<?xml version='1.0' encoding='UTF-8'?><gpx version="1.1" creator="JPX - https://github.com/jenetics/jpx" xmlns="http://www.topografix.com/GPX/1/1"><trk><trkseg><trkpt lat="37.09330595986039" lon="15.150774268995791"><ele>124.8</ele><time>2026-04-12T08:00:25.986Z</time></trkpt><trkpt lat="37.093213191290474" lon="15.15079440550427"><ele>124.6</ele><time>2026-04-12T08:00:29.972Z</time></trkpt><trkpt lat="37.093094713089144" lon="15.150863053291244"><ele>124.4</ele><time>2026-04-12T08:00:31.976Z</time></trkpt><trkpt lat="37.09301655184207" lon="15.150898257284565"><ele>124.2</ele><time>2026-04-12T08:00:32.978Z</time></trkpt><trkpt lat="37.0929369918899" lon="15.150935174088243"><ele>124.0</ele><time>2026-04-12T08:00:33.979Z</time></trkpt><trkpt lat="37.09285729069186" lon="15.150970360323331"><ele>124.00000000000001</ele><time>2026-04-12T08:00:34.981Z</time></trkpt><trkpt lat="37.092773062672045" lon="15.15101270675438"><ele>124.0</ele><time>2026-04-12T08:00:35.982Z</time></trkpt><trkpt lat="37.09269033976839" lon="15.151045900248041"><ele>124.0</ele><time>2026-04-12T08:00:36.983Z</time></trkpt><trkpt lat="37.092609808514226" lon="15.151087407802748"><ele>124.0</ele><time>2026-04-12T08:00:37.984Z</time></trkpt><trkpt lat="37.0925292583585" lon="15.151125874228454"><ele>124.00000000000001</ele><time>2026-04-12T08:00:38.985Z</time></trkpt><trkpt lat="37.09244141609011" lon="15.15115086791135"><ele>124.0</ele><time>2026-04-12T08:00:39.986Z</time></trkpt><trkpt lat="37.092357786032046" lon="15.151203573784915"><ele>123.16666666666667</ele><time>2026-04-12T08:00:40.987Z</time></trkpt><trkpt lat="37.09226946922644" lon="15.15120506857924"><ele>122.33333333333334</ele><time>2026-04-12T08:00:41.988Z</time></trkpt><trkpt lat="37.092200538181" lon="15.151219195780596"><ele>121.5</ele><time>2026-04-12T08:00:42.989Z</time></trkpt><trkpt lat="37.09211322891463" lon="15.151252789368872"><ele>120.66666666666666</ele><time>2026-04-12T08:00:44.991Z</time></trkpt><trkpt lat="37.09202695488426" lon="15.151288440806528"><ele>119.83333333333333</ele><time>2026-04-12T08:00:46.992Z</time></trkpt><trkpt lat="37.092010322579746" lon="15.15138029360769"><ele>119.0</ele><time>2026-04-12T08:00:47.992Z</time></trkpt><trkpt lat="37.091982562450795" lon="15.151491470183473"><ele>119.0</ele><time>2026-04-12T08:00:49.993Z</time></trkpt><trkpt lat="37.09194837959049" lon="15.151585827694515"><ele>119.0</ele><time>2026-04-12T08:00:51.994Z</time></trkpt><trkpt lat="37.09191503664367" lon="15.151696350027292"><ele>119.0</ele><time>2026-04-12T08:00:53.995Z</time></trkpt><trkpt lat="37.09184318317216" lon="15.151804796167765"><ele>119.0</ele><time>2026-04-12T08:00:55.996Z</time></trkpt><trkpt lat="37.09179980480585" lon="15.151913704409065"><ele>119.0</ele><time>2026-04-12T08:00:57.997Z</time></trkpt><trkpt lat="37.09177891800715" lon="15.15198866802315"><ele>118.99999999999999</ele><time>2026-04-12T08:00:59.997Z</time></trkpt><trkpt lat="37.09176442183627" lon="15.152087092305655"><ele>119.0</ele><time>2026-04-12T08:01:32.001Z</time></trkpt><trkpt lat="37.09176135964532" lon="15.152219568574314"><ele>119.0</ele><time>2026-04-12T08:01:34.001Z</time></trkpt><trkpt lat="37.0916953100991" lon="15.152344216943321"><ele>119.0</ele><time>2026-04-12T08:01:36.001Z</time></trkpt><trkpt lat="37.09163715244661" lon="15.152387846464345"><ele>118.99999999999999</ele><time>2026-04-12T08:01:37.001Z</time></trkpt><trkpt lat="37.0915687520169" lon="15.152415657879558"><ele>119.0</ele><time>2026-04-12T08:01:38.001Z</time></trkpt><trkpt lat="37.09149684368979" lon="15.152431691005157"><ele>118.2</ele><time>2026-04-12T08:01:39.001Z</time></trkpt><trkpt lat="37.09142372761054" lon="15.152432860683462"><ele>117.4</ele><time>2026-04-12T08:01:40.001Z</time></trkpt><trkpt lat="37.091338400754154" lon="15.152432566103716"><ele>116.6</ele><time>2026-04-12T08:01:41.001Z</time></trkpt><trkpt lat="37.091239599315415" lon="15.1524425775103"><ele>115.8</ele><time>2026-04-12T08:01:42.001Z</time></trkpt><trkpt lat="37.091140838859445" lon="15.152461247472708"><ele>115.0</ele><time>2026-04-12T08:01:43.001Z</time></trkpt><trkpt lat="37.091036852699396" lon="15.152485135511666"><ele>115.0</ele><time>2026-04-12T08:01:44.001Z</time></trkpt><trkpt lat="37.090931994863176" lon="15.152515458112498"><ele>115.0</ele><time>2026-04-12T08:01:45.001Z</time></trkpt><trkpt lat="37.09082851346127" lon="15.152554679995882"><ele>115.0</ele><time>2026-04-12T08:01:46.001Z</time></trkpt><trkpt lat="37.09072760899946" lon="15.152596762759524"><ele>115.0</ele><time>2026-04-12T08:01:47.001Z</time></trkpt><trkpt lat="37.09063037661056" lon="15.152629682117885"><ele>115.0</ele><time>2026-04-12T08:01:48.001Z</time></trkpt><trkpt lat="37.09053857389013" lon="15.152656760068067"><ele>114.8</ele><time>2026-04-12T08:01:49.001Z</time></trkpt><trkpt lat="37.09046166178775" lon="15.152706559971136"><ele>114.6</ele><time>2026-04-12T08:01:50.001Z</time></trkpt><trkpt lat="37.09038656738582" lon="15.15275040962066"><ele>114.4</ele><time>2026-04-12T08:01:51.001Z</time></trkpt><trkpt lat="37.09032341863053" lon="15.152791357319986"><ele>114.2</ele><time>2026-04-12T08:01:52.001Z</time></trkpt><trkpt lat="37.09020746990727" lon="15.152602721603289"><ele>114.0</ele><time>2026-04-12T08:01:53.001Z</time></trkpt><trkpt lat="37.090129531358684" lon="15.15250845327135"><ele>114.0</ele><time>2026-04-12T08:01:54.001Z</time></trkpt><trkpt lat="37.09004142808492" lon="15.152401890432229"><ele>114.0</ele><time>2026-04-12T08:01:55.001Z</time></trkpt><trkpt lat="37.089938126829566" lon="15.152288783179289"><ele>114.0</ele><time>2026-04-12T08:01:56.001Z</time></trkpt><trkpt lat="37.08983600447395" lon="15.152169371995335"><ele>114.0</ele><time>2026-04-12T08:01:57.001Z</time></trkpt><trkpt lat="37.08973461073483" lon="15.152050745673167"><ele>114.25</ele><time>2026-04-12T08:01:58.001Z</time></trkpt><trkpt lat="37.08963263656456" lon="15.151927571470997"><ele>114.5</ele><time>2026-04-12T08:01:59.001Z</time></trkpt><trkpt lat="37.089536208554186" lon="15.151809468613495"><ele>114.75</ele><time>2026-04-12T08:02:00.001Z</time></trkpt><trkpt lat="37.08944244253265" lon="15.151696897311945"><ele>115.0</ele><time>2026-04-12T08:02:01.001Z</time></trkpt><trkpt lat="37.08935130519063" lon="15.151590560088676"><ele>115.0</ele><time>2026-04-12T08:02:02.001Z</time></trkpt><trkpt lat="37.08926786349807" lon="15.15147834518251"><ele>115.0</ele><time>2026-04-12T08:02:03.001Z</time></trkpt><trkpt lat="37.08918023442319" lon="15.151379839246411"><ele>115.0</ele><time>2026-04-12T08:02:04.001Z</time></trkpt><trkpt lat="37.08909797031668" lon="15.151279341161683"><ele>115.0</ele><time>2026-04-12T08:02:05.001Z</time></trkpt><trkpt lat="37.089015658522726" lon="15.151183408887874"><ele>115.75</ele><time>2026-04-12T08:02:06.001Z</time></trkpt><trkpt lat="37.08893263019914" lon="15.151088780241421"><ele>116.5</ele><time>2026-04-12T08:02:07.002Z</time></trkpt><trkpt lat="37.08884665392361" lon="15.150990194585773"><ele>117.25</ele><time>2026-04-12T08:02:08.002Z</time></trkpt><trkpt lat="37.088764160358046" lon="15.15088875953222"><ele>118.0</ele><time>2026-04-12T08:02:09.002Z</time></trkpt><trkpt lat="37.088683104349656" lon="15.150787716816417"><ele>117.4</ele><time>2026-04-12T08:02:10.002Z</time></trkpt><trkpt lat="37.08860239410425" lon="15.150689341863222"><ele>116.80000000000001</ele><time>2026-04-12T08:02:11.002Z</time></trkpt><trkpt lat="37.08851794670318" lon="15.150597650775287"><ele>116.2</ele><time>2026-04-12T08:02:12.002Z</time></trkpt><trkpt lat="37.08843475986417" lon="15.150508705518188"><ele>115.6</ele><time>2026-04-12T08:02:13.002Z</time></trkpt><trkpt lat="37.08837232413376" lon="15.15040658305651"><ele>115.0</ele><time>2026-04-12T08:02:14.002Z</time></trkpt><trkpt lat="37.08829888628511" lon="15.150320441702188"><ele>115.4</ele><time>2026-04-12T08:02:15.002Z</time></trkpt><trkpt lat="37.08822625061606" lon="15.150235241109709"><ele>115.8</ele><time>2026-04-12T08:02:16.002Z</time></trkpt><trkpt lat="37.088136395874045" lon="15.150158410365387"><ele>116.19999999999999</ele><time>2026-04-12T08:02:17.002Z</time></trkpt><trkpt lat="37.088057536812606" lon="15.150069665089223"><ele>116.6</ele><time>2026-04-12T08:02:18.002Z</time></trkpt><trkpt lat="37.08798040272903" lon="15.149988767956435"><ele>117.0</ele><time>2026-04-12T08:02:19.002Z</time></trkpt><trkpt lat="37.08791381225063" lon="15.149912228281561"><ele>117.0</ele><time>2026-04-12T08:02:20.002Z</time></trkpt><trkpt lat="37.08785272793445" lon="15.149834591531185"><ele>116.99999999999999</ele><time>2026-04-12T08:02:21.002Z</time></trkpt><trkpt lat="37.08778667387547" lon="15.149757708231839"><ele>116.99999999999999</ele><time>2026-04-12T08:02:22.002Z</time></trkpt><trkpt lat="37.08774007431737" lon="15.149647850851505"><ele>117.0</ele><time>2026-04-12T08:02:23.002Z</time></trkpt><trkpt lat="37.08765153004657" lon="15.149601086466257"><ele>117.0</ele><time>2026-04-12T08:02:24.002Z</time></trkpt><trkpt lat="37.087592929639975" lon="15.14952338366934"><ele>117.0</ele><time>2026-04-12T08:02:25.002Z</time></trkpt><trkpt lat="37.087538045283765" lon="15.149453127810624"><ele>117.0</ele><time>2026-04-12T08:02:26.002Z</time></trkpt><trkpt lat="37.08748101049525" lon="15.149385117170338"><ele>117.0</ele><time>2026-04-12T08:02:27.002Z</time></trkpt><trkpt lat="37.087422804135" lon="15.149315488725744"><ele>117.0</ele><time>2026-04-12T08:02:28.002Z</time></trkpt><trkpt lat="37.0873633596594" lon="15.149237865777213"><ele>117.0</ele><time>2026-04-12T08:02:29.002Z</time></trkpt><trkpt lat="37.087301250694736" lon="15.149161727486675"><ele>117.0</ele><time>2026-04-12T08:02:30.002Z</time></trkpt><trkpt lat="37.08723430746749" lon="15.149088854274689"><ele>116.83333333333333</ele><time>2026-04-12T08:02:31.002Z</time></trkpt><trkpt lat="37.08718458162476" lon="15.148989937220133"><ele>116.66666666666666</ele><time>2026-04-12T08:02:32.002Z</time></trkpt><trkpt lat="37.087121667710235" lon="15.148914465960397"><ele>116.5</ele><time>2026-04-12T08:02:33.002Z</time></trkpt><trkpt lat="37.087059877701094" lon="15.148840055041207"><ele>116.33333333333333</ele><time>2026-04-12T08:02:34.002Z</time></trkpt><trkpt lat="37.08699506067775" lon="15.148761717545595"><ele>116.16666666666666</ele><time>2026-04-12T08:02:35.002Z</time></trkpt><trkpt lat="37.086932940750174" lon="15.14868663977687"><ele>116.0</ele><time>2026-04-12T08:02:36.002Z</time></trkpt><trkpt lat="37.086866918903084" lon="15.148606846155065"><ele>116.0</ele><time>2026-04-12T08:02:37.001Z</time></trkpt><trkpt lat="37.08680312175417" lon="15.148530182499641"><ele>116.0</ele><time>2026-04-12T08:02:38.001Z</time></trkpt><trkpt lat="37.08673811471556" lon="15.148452200096575"><ele>116.0</ele><time>2026-04-12T08:02:39.001Z</time></trkpt><trkpt lat="37.08666763082901" lon="15.148367647477805"><ele>116.0</ele><time>2026-04-12T08:02:40.001Z</time></trkpt><trkpt lat="37.08659667944066" lon="15.148281486287527"><ele>116.0</ele><time>2026-04-12T08:02:41.001Z</time></trkpt><trkpt lat="37.086528956581994" lon="15.148200208771156"><ele>116.4</ele><time>2026-04-12T08:02:42.001Z</time></trkpt><trkpt lat="37.08646029818793" lon="15.148117990071166"><ele>116.8</ele><time>2026-04-12T08:02:43.001Z</time></trkpt><trkpt lat="37.08639206704895" lon="15.14803691021146"><ele>117.20000000000002</ele><time>2026-04-12T08:02:44.001Z</time></trkpt><trkpt lat="37.08632615543097" lon="15.147958586655365"><ele>117.60000000000001</ele><time>2026-04-12T08:02:45.001Z</time></trkpt><trkpt lat="37.08625816936355" lon="15.147877798023345"><ele>118.0</ele><time>2026-04-12T08:02:46.001Z</time></trkpt><trkpt lat="37.0861906701991" lon="15.147797587976115"><ele>118.00000000000001</ele><time>2026-04-12T08:02:47.001Z</time></trkpt><trkpt lat="37.08612810708654" lon="15.147723243494951"><ele>118.0</ele><time>2026-04-12T08:02:48.001Z</time></trkpt><trkpt lat="37.08606566021604" lon="15.147649037156032"><ele>118.0</ele><time>2026-04-12T08:02:49.001Z</time></trkpt><trkpt lat="37.08600079144266" lon="15.147571952693726"><ele>118.0</ele><time>2026-04-12T08:02:50.001Z</time></trkpt><trkpt lat="37.0859244546909" lon="15.147509725028259"><ele>118.00000000000001</ele><time>2026-04-12T08:02:51.001Z</time></trkpt><trkpt lat="37.08586352213489" lon="15.147433292462141"><ele>118.0</ele><time>2026-04-12T08:02:52.001Z</time></trkpt><trkpt lat="37.08579961845323" lon="15.147358785395207"><ele>118.16666666666667</ele><time>2026-04-12T08:02:53.001Z</time></trkpt><trkpt lat="37.08573848727481" lon="15.14728578619827"><ele>118.33333333333334</ele><time>2026-04-12T08:02:54.001Z</time></trkpt><trkpt lat="37.08568408632837" lon="15.147218269752699"><ele>118.5</ele><time>2026-04-12T08:02:55.001Z</time></trkpt><trkpt lat="37.0856258590263" lon="15.147151536976937"><ele>118.66666666666666</ele><time>2026-04-12T08:02:56.001Z</time></trkpt><trkpt lat="37.08557421628973" lon="15.147062084452623"><ele>118.83333333333333</ele><time>2026-04-12T08:02:57.001Z</time></trkpt><trkpt lat="37.08551675526633" lon="15.146994049219131"><ele>119.0</ele><time>2026-04-12T08:02:59Z</time></trkpt><trkpt lat="37.08543583923885" lon="15.147083506127201"><ele>119.0</ele><time>2026-04-12T08:03:00Z</time></trkpt><trkpt lat="37.08536420162519" lon="15.147131562637261"><ele>119.0</ele><time>2026-04-12T08:03:01Z</time></trkpt><trkpt lat="37.085268301176264" lon="15.14715454032077"><ele>119.0</ele><time>2026-04-12T08:03:02Z</time></trkpt><trkpt lat="37.08515912738651" lon="15.147175780119111"><ele>119.0</ele><time>2026-04-12T08:03:03Z</time></trkpt><trkpt lat="37.08505183706443" lon="15.147204126741572"><ele>119.0</ele><time>2026-04-12T08:03:04Z</time></trkpt><trkpt lat="37.084944735455835" lon="15.14722792009867"><ele>119.80000000000001</ele><time>2026-04-12T08:03:05Z</time></trkpt><trkpt lat="37.08484128152231" lon="15.14723417051315"><ele>120.60000000000001</ele><time>2026-04-12T08:03:06Z</time></trkpt><trkpt lat="37.084747812863256" lon="15.147218540978885"><ele>121.4</ele><time>2026-04-12T08:03:07Z</time></trkpt><trkpt lat="37.08465873579953" lon="15.14719038016252"><ele>122.2</ele><time>2026-04-12T08:03:08Z</time></trkpt><trkpt lat="37.084575886319115" lon="15.147159669547866"><ele>123.0</ele><time>2026-04-12T08:03:09Z</time></trkpt><trkpt lat="37.08450315848957" lon="15.147123815655663"><ele>123.0</ele><time>2026-04-12T08:03:10Z</time></trkpt><trkpt lat="37.08444244917229" lon="15.147099151988614"><ele>123.0</ele><time>2026-04-12T08:03:11Z</time></trkpt><trkpt lat="37.0843817353466" lon="15.147060341444769"><ele>123.0</ele><time>2026-04-12T08:03:14Z</time></trkpt><trkpt lat="37.08431289946083" lon="15.147223823117868"><ele>123.0</ele><time>2026-04-12T08:03:16Z</time></trkpt><trkpt lat="37.084308595027906" lon="15.147330877321178"><ele>123.0</ele><time>2026-04-12T08:03:17Z</time></trkpt><trkpt lat="37.084285442357036" lon="15.147428024515811"><ele>123.0</ele><time>2026-04-12T08:03:18Z</time></trkpt><trkpt lat="37.08425934364148" lon="15.147560595925318"><ele>122.75</ele><time>2026-04-12T08:03:19Z</time></trkpt><trkpt lat="37.084228737243016" lon="15.147692499778232"><ele>122.5</ele><time>2026-04-12T08:03:20Z</time></trkpt><trkpt lat="37.08419759602292" lon="15.147837155289375"><ele>122.25</ele><time>2026-04-12T08:03:21Z</time></trkpt><trkpt lat="37.0841669949596" lon="15.147972086100841"><ele>122.0</ele><time>2026-04-12T08:03:22Z</time></trkpt><trkpt lat="37.08413365325177" lon="15.14810312509585"><ele>121.25</ele><time>2026-04-12T08:03:23Z</time></trkpt><trkpt lat="37.08410158485065" lon="15.148236438494282"><ele>120.5</ele><time>2026-04-12T08:03:24Z</time></trkpt><trkpt lat="37.084062257036294" lon="15.148378215933851"><ele>119.75</ele><time>2026-04-12T08:03:25Z</time></trkpt><trkpt lat="37.08402892620037" lon="15.14852917723221"><ele>119.0</ele><time>2026-04-12T08:03:26Z</time></trkpt><trkpt lat="37.08400751742059" lon="15.14869071172657"><ele>119.0</ele><time>2026-04-12T08:03:27Z</time></trkpt><trkpt lat="37.08396388278763" lon="15.148840416193938"><ele>119.0</ele><time>2026-04-12T08:03:28Z</time></trkpt><trkpt lat="37.08392650344004" lon="15.148982996341768"><ele>119.0</ele><time>2026-04-12T08:03:29Z</time></trkpt><trkpt lat="37.08388075096952" lon="15.149145473267156"><ele>119.0</ele><time>2026-04-12T08:03:30Z</time></trkpt><trkpt lat="37.083846181054525" lon="15.149295554941709"><ele>118.75</ele><time>2026-04-12T08:03:31Z</time></trkpt><trkpt lat="37.08380402618124" lon="15.14945321181654"><ele>118.5</ele><time>2026-04-12T08:03:32Z</time></trkpt><trkpt lat="37.08378065707795" lon="15.149582265190762"><ele>118.25</ele><time>2026-04-12T08:03:33Z</time></trkpt><trkpt lat="37.083741928654426" lon="15.149737823273195"><ele>118.0</ele><time>2026-04-12T08:03:34Z</time></trkpt><trkpt lat="37.08370901211917" lon="15.149905803298292"><ele>117.75</ele><time>2026-04-12T08:03:35Z</time></trkpt><trkpt lat="37.08368263554664" lon="15.15007540958611"><ele>117.5</ele><time>2026-04-12T08:03:36Z</time></trkpt><trkpt lat="37.08365514695849" lon="15.150236481739869"><ele>117.25</ele><time>2026-04-12T08:03:37Z</time></trkpt><trkpt lat="37.083610955374304" lon="15.150380441762353"><ele>117.0</ele><time>2026-04-12T08:03:38Z</time></trkpt><trkpt lat="37.08359491319988" lon="15.150525982879534"><ele>117.0</ele><time>2026-04-12T08:03:39Z</time></trkpt><trkpt lat="37.08356396882436" lon="15.150661459816106"><ele>116.99999999999999</ele><time>2026-04-12T08:03:40Z</time></trkpt><trkpt lat="37.083531908392324" lon="15.150795957418646"><ele>116.99999999999999</ele><time>2026-04-12T08:03:41Z</time></trkpt><trkpt lat="37.083501320935035" lon="15.150927761284303"><ele>117.0</ele><time>2026-04-12T08:03:42Z</time></trkpt><trkpt lat="37.083471701243994" lon="15.151047359806903"><ele>117.0</ele><time>2026-04-12T08:03:43Z</time></trkpt><trkpt lat="37.08345073660699" lon="15.151153032126619"><ele>117.16666666666667</ele><time>2026-04-12T08:03:44Z</time></trkpt><trkpt lat="37.08343048023862" lon="15.15125668890843"><ele>117.33333333333334</ele><time>2026-04-12T08:03:45Z</time></trkpt><trkpt lat="37.08341288610247" lon="15.151350580529812"><ele>117.5</ele><time>2026-04-12T08:03:46Z</time></trkpt><trkpt lat="37.08338279966604" lon="15.15146692847373"><ele>117.66666666666667</ele><time>2026-04-12T08:03:48Z</time></trkpt><trkpt lat="37.083300266282244" lon="15.15144378955183"><ele>117.83333333333334</ele><time>2026-04-12T08:03:50Z</time></trkpt><trkpt lat="37.08321772926045" lon="15.151434975223765"><ele>118.0</ele><time>2026-04-12T08:03:51Z</time></trkpt><trkpt lat="37.08313132579318" lon="15.151413551840529"><ele>118.0</ele><time>2026-04-12T08:03:52Z</time></trkpt><trkpt lat="37.0830166164838" lon="15.151385110150141"><ele>118.0</ele><time>2026-04-12T08:03:53Z</time></trkpt><trkpt lat="37.0828986358819" lon="15.151355857361953"><ele>118.0</ele><time>2026-04-12T08:03:54Z</time></trkpt><trkpt lat="37.082766003715264" lon="15.151321914166981"><ele>118.0</ele><time>2026-04-12T08:03:55Z</time></trkpt><trkpt lat="37.08262644740003" lon="15.151283556421408"><ele>118.0</ele><time>2026-04-12T08:03:56Z</time></trkpt><trkpt lat="37.08249173601491" lon="15.151232859324825"><ele>118.0</ele><time>2026-04-12T08:03:57Z</time></trkpt><trkpt lat="37.08235521584151" lon="15.15120621002145"><ele>118.0</ele><time>2026-04-12T08:03:58Z</time></trkpt><trkpt lat="37.0822453149852" lon="15.151179394861645"><ele>118.0</ele><time>2026-04-12T08:03:59Z</time></trkpt><trkpt lat="37.08217799848265" lon="15.15116723103258"><ele>117.83333333333334</ele><time>2026-04-12T08:04:00Z</time></trkpt><trkpt lat="37.08211574751937" lon="15.151144306466106"><ele>117.66666666666667</ele><time>2026-04-12T08:04:13Z</time></trkpt><trkpt lat="37.08203272513853" lon="15.15112066495398"><ele>117.5</ele><time>2026-04-12T08:04:15Z</time></trkpt><trkpt lat="37.08197065058712" lon="15.151096095383194"><ele>117.33333333333334</ele><time>2026-04-12T08:04:16Z</time></trkpt><trkpt lat="37.08188729900387" lon="15.151067480604967"><ele>117.16666666666667</ele><time>2026-04-12T08:04:17Z</time></trkpt><trkpt lat="37.081790116039" lon="15.151039929853699"><ele>117.0</ele><time>2026-04-12T08:04:18Z</time></trkpt><trkpt lat="37.081691577089245" lon="15.151005953378391"><ele>117.0</ele><time>2026-04-12T08:04:19Z</time></trkpt><trkpt lat="37.081599400936035" lon="15.15097313339622"><ele>117.0</ele><time>2026-04-12T08:04:20Z</time></trkpt><trkpt lat="37.081517214755394" lon="15.150948577255628"><ele>117.0</ele><time>2026-04-12T08:04:21Z</time></trkpt><trkpt lat="37.081441121547975" lon="15.150925947493409"><ele>117.0</ele><time>2026-04-12T08:04:22Z</time></trkpt><trkpt lat="37.081377811341724" lon="15.150911495975032"><ele>117.0</ele><time>2026-04-12T08:04:23Z</time></trkpt><trkpt lat="37.081315901014754" lon="15.150882811649925"><ele>117.0</ele><time>2026-04-12T08:04:25Z</time></trkpt><trkpt lat="37.08119871222828" lon="15.150856026339172"><ele>117.0</ele><time>2026-04-12T08:04:28Z</time></trkpt><trkpt lat="37.08111876305116" lon="15.150857143586533"><ele>116.99999999999999</ele><time>2026-04-12T08:04:29Z</time></trkpt><trkpt lat="37.081021086154585" lon="15.150838619183867"><ele>116.99999999999999</ele><time>2026-04-12T08:04:30Z</time></trkpt><trkpt lat="37.08092476646786" lon="15.150794027789892"><ele>117.0</ele><time>2026-04-12T08:04:31Z</time></trkpt><trkpt lat="37.08082435387922" lon="15.150762400596044"><ele>117.0</ele><time>2026-04-12T08:04:32Z</time></trkpt><trkpt lat="37.08073037973167" lon="15.150736597929862"><ele>116.19999999999999</ele><time>2026-04-12T08:04:33Z</time></trkpt><trkpt lat="37.08064374586171" lon="15.150715489678879"><ele>115.39999999999999</ele><time>2026-04-12T08:04:34Z</time></trkpt><trkpt lat="37.08056821548076" lon="15.150695623869197"><ele>114.60000000000001</ele><time>2026-04-12T08:04:35Z</time></trkpt><trkpt lat="37.08045894683253" lon="15.150649904896726"><ele>113.80000000000001</ele><time>2026-04-12T08:04:37Z</time></trkpt><trkpt lat="37.08036139177503" lon="15.150586012638616"><ele>113.0</ele><time>2026-04-12T08:04:39Z</time></trkpt><trkpt lat="37.080271496182114" lon="15.150565704068157"><ele>112.99999999999999</ele><time>2026-04-12T08:04:41Z</time></trkpt><trkpt lat="37.08023007365195" lon="15.150656484071853"><ele>113.0</ele><time>2026-04-12T08:04:42Z</time></trkpt><trkpt lat="37.08021597336534" lon="15.150799670620572"><ele>113.0</ele><time>2026-04-12T08:04:44Z</time></trkpt><trkpt lat="37.08021180085863" lon="15.150883208337095"><ele>113.0</ele><time>2026-04-12T08:04:45Z</time></trkpt><trkpt lat="37.08020739315059" lon="15.150964810647723"><ele>112.99999999999999</ele><time>2026-04-12T08:04:46Z</time></trkpt><trkpt lat="37.080199350700525" lon="15.151112679852135"><ele>113.0</ele><time>2026-04-12T08:04:48Z</time></trkpt><trkpt lat="37.08019401220167" lon="15.15125419872435"><ele>112.80000000000001</ele><time>2026-04-12T08:04:50Z</time></trkpt><trkpt lat="37.08019282657719" lon="15.151403210010795"><ele>112.60000000000001</ele><time>2026-04-12T08:04:52Z</time></trkpt><trkpt lat="37.080183710796064" lon="15.151552413725879"><ele>112.39999999999999</ele><time>2026-04-12T08:04:54Z</time></trkpt><trkpt lat="37.0801821171435" lon="15.15164865322204"><ele>112.19999999999999</ele><time>2026-04-12T08:04:56Z</time></trkpt><trkpt lat="37.08007054430593" lon="15.15169290927268"><ele>112.0</ele><time>2026-04-12T08:05:00Z</time></trkpt><trkpt lat="37.08000968235476" lon="15.15166360119393"><ele>111.71428571428571</ele><time>2026-04-12T08:05:01Z</time></trkpt><trkpt lat="37.079942563615646" lon="15.15164914077681"><ele>111.42857142857143</ele><time>2026-04-12T08:05:02Z</time></trkpt><trkpt lat="37.07986908828675" lon="15.151631731635128"><ele>111.14285714285714</ele><time>2026-04-12T08:05:03Z</time></trkpt><trkpt lat="37.079797444649444" lon="15.151619721773669"><ele>110.85714285714286</ele><time>2026-04-12T08:05:04Z</time></trkpt><trkpt lat="37.079733043381125" lon="15.151599180833596"><ele>110.57142857142857</ele><time>2026-04-12T08:05:05Z</time></trkpt><trkpt lat="37.07966883554524" lon="15.15158330719572"><ele>110.28571428571428</ele><time>2026-04-12T08:05:06Z</time></trkpt><trkpt lat="37.07960280032405" lon="15.151555097860896"><ele>110.0</ele><time>2026-04-12T08:05:07Z</time></trkpt><trkpt lat="37.0795326760324" lon="15.151527671330484"><ele>108.8</ele><time>2026-04-12T08:05:08Z</time></trkpt><trkpt lat="37.079460642359685" lon="15.151500880530929"><ele>107.6</ele><time>2026-04-12T08:05:09Z</time></trkpt><trkpt lat="37.07938430319917" lon="15.151477624544356"><ele>106.4</ele><time>2026-04-12T08:05:10Z</time></trkpt><trkpt lat="37.07928803560129" lon="15.151465482624776"><ele>105.2</ele><time>2026-04-12T08:05:11Z</time></trkpt><trkpt lat="37.079180139041945" lon="15.151422857124121"><ele>104.0</ele><time>2026-04-12T08:05:12Z</time></trkpt><trkpt lat="37.07905926165561" lon="15.151386426469857"><ele>101.25</ele><time>2026-04-12T08:05:13Z</time></trkpt><trkpt lat="37.07894424315516" lon="15.15135288692192"><ele>98.5</ele><time>2026-04-12T08:05:14Z</time></trkpt><trkpt lat="37.07882373863937" lon="15.151318520179633"><ele>95.75</ele><time>2026-04-12T08:05:15Z</time></trkpt><trkpt lat="37.078698033492635" lon="15.151283217073244"><ele>93.0</ele><time>2026-04-12T08:05:16Z</time></trkpt><trkpt lat="37.07856946282038" lon="15.151246492522224"><ele>93.0</ele><time>2026-04-12T08:05:17Z</time></trkpt><trkpt lat="37.07844097076283" lon="15.151210818290163"><ele>93.0</ele><time>2026-04-12T08:05:18Z</time></trkpt><trkpt lat="37.078316837781166" lon="15.151173979252537"><ele>93.0</ele><time>2026-04-12T08:05:19Z</time></trkpt><trkpt lat="37.078199942096475" lon="15.151140012502779"><ele>93.0</ele><time>2026-04-12T08:05:20Z</time></trkpt><trkpt lat="37.07809068047195" lon="15.151107581510315"><ele>94.4</ele><time>2026-04-12T08:05:21Z</time></trkpt><trkpt lat="37.07798345149415" lon="15.151078020323283"><ele>95.80000000000001</ele><time>2026-04-12T08:05:22Z</time></trkpt><trkpt lat="37.07788487327702" lon="15.151049739862438"><ele>97.2</ele><time>2026-04-12T08:05:23Z</time></trkpt><trkpt lat="37.07779003576793" lon="15.15103000308163"><ele>98.6</ele><time>2026-04-12T08:05:24Z</time></trkpt><trkpt lat="37.0776998522794" lon="15.151042648683028"><ele>100.0</ele><time>2026-04-12T08:05:25Z</time></trkpt><trkpt lat="37.07762007232466" lon="15.151089630095068"><ele>100.0</ele><time>2026-04-12T08:05:26Z</time></trkpt><trkpt lat="37.077545265279724" lon="15.151160466214096"><ele>100.0</ele><time>2026-04-12T08:05:27Z</time></trkpt><trkpt lat="37.077477329405205" lon="15.151268230155686"><ele>100.0</ele><time>2026-04-12T08:05:28Z</time></trkpt><trkpt lat="37.07741981300291" lon="15.151401447836149"><ele>100.0</ele><time>2026-04-12T08:05:29Z</time></trkpt><trkpt lat="37.07737098315174" lon="15.151558410261675"><ele>101.33333333333334</ele><time>2026-04-12T08:05:30Z</time></trkpt><trkpt lat="37.07731176838003" lon="15.151729611740112"><ele>102.66666666666666</ele><time>2026-04-12T08:05:31Z</time></trkpt><trkpt lat="37.07724730506732" lon="15.151896370816843"><ele>104.0</ele><time>2026-04-12T08:05:32Z</time></trkpt><trkpt lat="37.077177899439185" lon="15.152069081834554"><ele>104.0</ele><time>2026-04-12T08:05:33Z</time></trkpt><trkpt lat="37.07710900201975" lon="15.152238475745632"><ele>104.0</ele><time>2026-04-12T08:05:34Z</time></trkpt><trkpt lat="37.077042300234176" lon="15.152390774502033"><ele>104.0</ele><time>2026-04-12T08:05:35Z</time></trkpt><trkpt lat="37.076961149551856" lon="15.1525308421362"><ele>104.0</ele><time>2026-04-12T08:05:36Z</time></trkpt><trkpt lat="37.07687651709114" lon="15.152668831266052"><ele>103.75</ele><time>2026-04-12T08:05:37Z</time></trkpt><trkpt lat="37.07678141747359" lon="15.1527927257384"><ele>103.5</ele><time>2026-04-12T08:05:38Z</time></trkpt><trkpt lat="37.076683105191734" lon="15.152906325691685"><ele>103.25</ele><time>2026-04-12T08:05:39Z</time></trkpt><trkpt lat="37.0765843965138" lon="15.153030149470084"><ele>103.0</ele><time>2026-04-12T08:05:40Z</time></trkpt><trkpt lat="37.07650676493984" lon="15.153179199454605"><ele>103.0</ele><time>2026-04-12T08:05:41Z</time></trkpt><trkpt lat="37.07641081969062" lon="15.15332506758947"><ele>103.0</ele><time>2026-04-12T08:05:42Z</time></trkpt><trkpt lat="37.07629052887692" lon="15.153476795591391"><ele>103.0</ele><time>2026-04-12T08:05:43Z</time></trkpt><trkpt lat="37.0761887099375" lon="15.153684313070125"><ele>103.0</ele><time>2026-04-12T08:05:44Z</time></trkpt><trkpt lat="37.0760933756344" lon="15.153837242615554"><ele>103.0</ele><time>2026-04-12T08:05:45Z</time></trkpt><trkpt lat="37.07599541914339" lon="15.153986024763865"><ele>103.0</ele><time>2026-04-12T08:05:46Z</time></trkpt><trkpt lat="37.075886370716105" lon="15.154124303158168"><ele>102.0</ele><time>2026-04-12T08:05:47Z</time></trkpt><trkpt lat="37.07576328718445" lon="15.15426140465534"><ele>101.0</ele><time>2026-04-12T08:05:48Z</time></trkpt><trkpt lat="37.075621181330575" lon="15.15438655813169"><ele>100.0</ele><time>2026-04-12T08:05:49Z</time></trkpt><trkpt lat="37.07548270598214" lon="15.154501120865834"><ele>100.0</ele><time>2026-04-12T08:05:50Z</time></trkpt><trkpt lat="37.07534783243041" lon="15.154606344023287"><ele>100.0</ele><time>2026-04-12T08:05:51Z</time></trkpt><trkpt lat="37.07521262687939" lon="15.154707960794662"><ele>100.0</ele><time>2026-04-12T08:05:52Z</time></trkpt><trkpt lat="37.07507907539787" lon="15.154805818247093"><ele>100.0</ele><time>2026-04-12T08:05:53Z</time></trkpt><trkpt lat="37.074947789471686" lon="15.1549031528944"><ele>100.0</ele><time>2026-04-12T08:05:54Z</time></trkpt><trkpt lat="37.074819224427046" lon="15.15500552962424"><ele>100.0</ele><time>2026-04-12T08:05:55Z</time></trkpt><trkpt lat="37.074690979366245" lon="15.155102852506825"><ele>100.25</ele><time>2026-04-12T08:05:56Z</time></trkpt><trkpt lat="37.07456237345698" lon="15.155197538676042"><ele>100.5</ele><time>2026-04-12T08:05:57Z</time></trkpt><trkpt lat="37.07443595849597" lon="15.155295581123193"><ele>100.75</ele><time>2026-04-12T08:05:58Z</time></trkpt><trkpt lat="37.07430894600373" lon="15.155392364316642"><ele>101.0</ele><time>2026-04-12T08:05:59Z</time></trkpt><trkpt lat="37.074179589698446" lon="15.155482310065487"><ele>101.0</ele><time>2026-04-12T08:06:00Z</time></trkpt><trkpt lat="37.07404478937454" lon="15.155561137143645"><ele>101.0</ele><time>2026-04-12T08:06:01Z</time></trkpt><trkpt lat="37.073905883824146" lon="15.155629234004058"><ele>101.0</ele><time>2026-04-12T08:06:02Z</time></trkpt><trkpt lat="37.07375601245001" lon="15.155679106640735"><ele>101.0</ele><time>2026-04-12T08:06:03Z</time></trkpt><trkpt lat="37.07360385864259" lon="15.155715586131683"><ele>101.0</ele><time>2026-04-12T08:06:04Z</time></trkpt><trkpt lat="37.07344147670968" lon="15.155708254363143"><ele>101.0</ele><time>2026-04-12T08:06:05Z</time></trkpt><trkpt lat="37.073273662750765" lon="15.15566690978688"><ele>100.66666666666666</ele><time>2026-04-12T08:06:06Z</time></trkpt><trkpt lat="37.073094948699165" lon="15.155619267091966"><ele>100.33333333333334</ele><time>2026-04-12T08:06:07Z</time></trkpt><trkpt lat="37.07290337205617" lon="15.155570653078795"><ele>100.0</ele><time>2026-04-12T08:06:08Z</time></trkpt><trkpt lat="37.0727130394887" lon="15.155526826400115"><ele>100.0</ele><time>2026-04-12T08:06:09Z</time></trkpt><trkpt lat="37.072527640106735" lon="15.155481187591604"><ele>100.0</ele><time>2026-04-12T08:06:10Z</time></trkpt><trkpt lat="37.072345193197364" lon="15.15543505391745"><ele>100.0</ele><time>2026-04-12T08:06:11Z</time></trkpt><trkpt lat="37.07216597762537" lon="15.155387802998208"><ele>99.66666666666667</ele><time>2026-04-12T08:06:12Z</time></trkpt><trkpt lat="37.071989206879266" lon="15.155342448694809"><ele>99.33333333333334</ele><time>2026-04-12T08:06:13Z</time></trkpt><trkpt lat="37.071815409146176" lon="15.155298139014578"><ele>99.0</ele><time>2026-04-12T08:06:14Z</time></trkpt><trkpt lat="37.07164183279863" lon="15.155259370184398"><ele>98.33333333333334</ele><time>2026-04-12T08:06:15Z</time></trkpt><trkpt lat="37.07145427781032" lon="15.155220542332078"><ele>97.66666666666667</ele><time>2026-04-12T08:06:16Z</time></trkpt><trkpt lat="37.07125998730196" lon="15.155180018939184"><ele>97.0</ele><time>2026-04-12T08:06:17Z</time></trkpt><trkpt lat="37.0710635590408" lon="15.155132304803963"><ele>97.0</ele><time>2026-04-12T08:06:18Z</time></trkpt><trkpt lat="37.070868322865266" lon="15.155079476267781"><ele>97.0</ele><time>2026-04-12T08:06:19Z</time></trkpt><trkpt lat="37.07067592449311" lon="15.155030451036263"><ele>97.0</ele><time>2026-04-12T08:06:20Z</time></trkpt><trkpt lat="37.07048628865062" lon="15.1549838134493"><ele>97.0</ele><time>2026-04-12T08:06:21Z</time></trkpt><trkpt lat="37.070297662916104" lon="15.154936086022431"><ele>97.0</ele><time>2026-04-12T08:06:22Z</time></trkpt><trkpt lat="37.07011026126719" lon="15.154888265874956"><ele>97.0</ele><time>2026-04-12T08:06:23Z</time></trkpt><trkpt lat="37.06992017734526" lon="15.154839831814742"><ele>97.66666666666667</ele><time>2026-04-12T08:06:24Z</time></trkpt><trkpt lat="37.06972680535025" lon="15.154792826970981"><ele>98.33333333333334</ele><time>2026-04-12T08:06:25Z</time></trkpt><trkpt lat="37.069533900497476" lon="15.154747224216266"><ele>99.0</ele><time>2026-04-12T08:06:26Z</time></trkpt><trkpt lat="37.06933982214854" lon="15.154701052766598"><ele>99.0</ele><time>2026-04-12T08:06:27Z</time></trkpt><trkpt lat="37.069149455659954" lon="15.154632182607756"><ele>99.0</ele><time>2026-04-12T08:06:28Z</time></trkpt><trkpt lat="37.06895273445514" lon="15.15458307044809"><ele>99.0</ele><time>2026-04-12T08:06:29Z</time></trkpt><trkpt lat="37.06875572481202" lon="15.154533886300007"><ele>99.0</ele><time>2026-04-12T08:06:30Z</time></trkpt><trkpt lat="37.06855513469357" lon="15.15450558846521"><ele>99.0</ele><time>2026-04-12T08:06:31Z</time></trkpt><trkpt lat="37.06835883004108" lon="15.154455465266768"><ele>99.0</ele><time>2026-04-12T08:06:32Z</time></trkpt><trkpt lat="37.068162847650676" lon="15.154406737715048"><ele>99.0</ele><time>2026-04-12T08:06:33Z</time></trkpt><trkpt lat="37.06796578440762" lon="15.154359011808019"><ele>99.0</ele><time>2026-04-12T08:06:34Z</time></trkpt><trkpt lat="37.0677672339939" lon="15.15431151824771"><ele>99.0</ele><time>2026-04-12T08:06:35Z</time></trkpt><trkpt lat="37.067570453066125" lon="15.154262456408741"><ele>98.66666666666666</ele><time>2026-04-12T08:06:36Z</time></trkpt><trkpt lat="37.067373864173746" lon="15.154213425727814"><ele>98.33333333333333</ele><time>2026-04-12T08:06:37Z</time></trkpt><trkpt lat="37.06717927042826" lon="15.15414588582579"><ele>98.0</ele><time>2026-04-12T08:06:38Z</time></trkpt><trkpt lat="37.06698306215919" lon="15.154097094635354"><ele>98.0</ele><time>2026-04-12T08:06:39Z</time></trkpt><trkpt lat="37.06678716087805" lon="15.154048379509517"><ele>98.0</ele><time>2026-04-12T08:06:40Z</time></trkpt><trkpt lat="37.06658476421811" lon="15.154022930944842"><ele>98.0</ele><time>2026-04-12T08:06:41Z</time></trkpt><trkpt lat="37.06638724755196" lon="15.153976654111418"><ele>98.0</ele><time>2026-04-12T08:06:42Z</time></trkpt><trkpt lat="37.06619030972091" lon="15.153931130418586"><ele>98.0</ele><time>2026-04-12T08:06:43Z</time></trkpt><trkpt lat="37.065994810715864" lon="15.15388575826556"><ele>98.0</ele><time>2026-04-12T08:06:44Z</time></trkpt><trkpt lat="37.065801676904584" lon="15.15384135358607"><ele>97.66666666666666</ele><time>2026-04-12T08:06:45Z</time></trkpt><trkpt lat="37.06561058574077" lon="15.1537963921886"><ele>97.33333333333334</ele><time>2026-04-12T08:06:46Z</time></trkpt><trkpt lat="37.06542485156225" lon="15.153734048699544"><ele>97.0</ele><time>2026-04-12T08:06:47Z</time></trkpt><trkpt lat="37.06523918756493" lon="15.15368920233809"><ele>97.0</ele><time>2026-04-12T08:06:48Z</time></trkpt><trkpt lat="37.0650516880807" lon="15.153643912597683"><ele>97.0</ele><time>2026-04-12T08:06:49Z</time></trkpt><trkpt lat="37.06486625713356" lon="15.15359898849382"><ele>97.0</ele><time>2026-04-12T08:06:50Z</time></trkpt><trkpt lat="37.06467888082083" lon="15.153553485454879"><ele>96.66666666666667</ele><time>2026-04-12T08:06:51Z</time></trkpt><trkpt lat="37.0644871435474" lon="15.153526371068073"><ele>96.33333333333334</ele><time>2026-04-12T08:06:52Z</time></trkpt><trkpt lat="37.0642996267903" lon="15.153479157984012"><ele>96.0</ele><time>2026-04-12T08:06:53Z</time></trkpt><trkpt lat="37.06411045704442" lon="15.15343512703426"><ele>95.66666666666667</ele><time>2026-04-12T08:06:54Z</time></trkpt><trkpt lat="37.06392323364283" lon="15.15339614918898"><ele>95.33333333333334</ele><time>2026-04-12T08:06:55Z</time></trkpt><trkpt lat="37.06373684474384" lon="15.153339511108545"><ele>95.0</ele><time>2026-04-12T08:06:56Z</time></trkpt><trkpt lat="37.06354131973201" lon="15.153293439426905"><ele>95.0</ele><time>2026-04-12T08:06:57Z</time></trkpt><trkpt lat="37.063336144127504" lon="15.15324508219593"><ele>95.0</ele><time>2026-04-12T08:06:58Z</time></trkpt><trkpt lat="37.06312430587526" lon="15.153195154678544"><ele>95.0</ele><time>2026-04-12T08:06:59Z</time></trkpt><trkpt lat="37.06290618516013" lon="15.15314374645799"><ele>95.5</ele><time>2026-04-12T08:07:00Z</time></trkpt><trkpt lat="37.06268446617149" lon="15.153091490167515"><ele>96.0</ele><time>2026-04-12T08:07:01Z</time></trkpt><trkpt lat="37.06245747427705" lon="15.15303799112855"><ele>95.5</ele><time>2026-04-12T08:07:02Z</time></trkpt><trkpt lat="37.062219781504645" lon="15.152982024694635"><ele>95.0</ele><time>2026-04-12T08:07:03Z</time></trkpt><trkpt lat="37.061985232056315" lon="15.15292685330909"><ele>95.0</ele><time>2026-04-12T08:07:04Z</time></trkpt><trkpt lat="37.061743927107564" lon="15.152884354560177"><ele>95.0</ele><time>2026-04-12T08:07:05Z</time></trkpt><trkpt lat="37.06150476680005" lon="15.152819767478917"><ele>95.0</ele><time>2026-04-12T08:07:06Z</time></trkpt><trkpt lat="37.06126544951051" lon="15.152761374121148"><ele>95.0</ele><time>2026-04-12T08:07:07Z</time></trkpt><trkpt lat="37.061024558496115" lon="15.152706076816441"><ele>95.0</ele><time>2026-04-12T08:07:08Z</time></trkpt><trkpt lat="37.060785574087625" lon="15.1526478472853"><ele>95.0</ele><time>2026-04-12T08:07:09Z</time></trkpt><trkpt lat="37.060547464228534" lon="15.152589837600623"><ele>94.5</ele><time>2026-04-12T08:07:10Z</time></trkpt><trkpt lat="37.06030901496765" lon="15.152536262014975"><ele>94.0</ele><time>2026-04-12T08:07:11Z</time></trkpt><trkpt lat="37.0600722241043" lon="15.15248317109254"><ele>94.0</ele><time>2026-04-12T08:07:12Z</time></trkpt><trkpt lat="37.05982964305474" lon="15.152426850807034"><ele>94.0</ele><time>2026-04-12T08:07:13Z</time></trkpt><trkpt lat="37.059585247412365" lon="15.15237148928889"><ele>94.0</ele><time>2026-04-12T08:07:14Z</time></trkpt><trkpt lat="37.059341289177674" lon="15.152316766912978"><ele>94.0</ele><time>2026-04-12T08:07:15Z</time></trkpt><trkpt lat="37.059100240394926" lon="15.152258861630806"><ele>94.5</ele><time>2026-04-12T08:07:16Z</time></trkpt><trkpt lat="37.05885637724618" lon="15.152200500865924"><ele>95.0</ele><time>2026-04-12T08:07:17Z</time></trkpt><trkpt lat="37.058608130894406" lon="15.152141088716634"><ele>95.0</ele><time>2026-04-12T08:07:18Z</time></trkpt><trkpt lat="37.0583605927497" lon="15.152080744977047"><ele>95.0</ele><time>2026-04-12T08:07:19Z</time></trkpt><trkpt lat="37.05811265180251" lon="15.152023256029183"><ele>94.0</ele><time>2026-04-12T08:07:20Z</time></trkpt><trkpt lat="37.057867157199546" lon="15.151968940223611"><ele>93.0</ele><time>2026-04-12T08:07:21Z</time></trkpt><trkpt lat="37.05762062611307" lon="15.151912891453158"><ele>93.0</ele><time>2026-04-12T08:07:22Z</time></trkpt><trkpt lat="37.057372471547176" lon="15.151855813226671"><ele>93.0</ele><time>2026-04-12T08:07:23Z</time></trkpt><trkpt lat="37.057121317234696" lon="15.151797577007851"><ele>93.0</ele><time>2026-04-12T08:07:24Z</time></trkpt><trkpt lat="37.0568662461101" lon="15.151736760198022"><ele>93.0</ele><time>2026-04-12T08:07:25Z</time></trkpt><trkpt lat="37.0566054437061" lon="15.151675416011928"><ele>91.5</ele><time>2026-04-12T08:07:26Z</time></trkpt><trkpt lat="37.05634455064649" lon="15.151613754198463"><ele>90.0</ele><time>2026-04-12T08:07:27Z</time></trkpt><trkpt lat="37.05607900749167" lon="15.15155247699874"><ele>89.5</ele><time>2026-04-12T08:07:28Z</time></trkpt><trkpt lat="37.05581443171763" lon="15.1514900080069"><ele>89.0</ele><time>2026-04-12T08:07:29Z</time></trkpt><trkpt lat="37.05554220712755" lon="15.151425155154309"><ele>89.0</ele><time>2026-04-12T08:07:30Z</time></trkpt><trkpt lat="37.05527384615592" lon="15.151359840467293"><ele>89.0</ele><time>2026-04-12T08:07:31Z</time></trkpt><trkpt lat="37.05500961909182" lon="15.151295428237823"><ele>89.0</ele><time>2026-04-12T08:07:32Z</time></trkpt><trkpt lat="37.054749436188764" lon="15.151229633564173"><ele>89.0</ele><time>2026-04-12T08:07:33Z</time></trkpt><trkpt lat="37.05449332389264" lon="15.15116548051074"><ele>89.0</ele><time>2026-04-12T08:07:34Z</time></trkpt><trkpt lat="37.05424350780457" lon="15.151105783973035"><ele>89.0</ele><time>2026-04-12T08:07:35Z</time></trkpt><trkpt lat="37.05400701531488" lon="15.15105389592184"><ele>88.33333333333334</ele><time>2026-04-12T08:07:36Z</time></trkpt><trkpt lat="37.05378166659892" lon="15.151003179366713"><ele>87.66666666666667</ele><time>2026-04-12T08:07:37Z</time></trkpt><trkpt lat="37.053566345987704" lon="15.150951007670553"><ele>87.0</ele><time>2026-04-12T08:07:38Z</time></trkpt><trkpt lat="37.05336218734162" lon="15.150896438762112"><ele>86.33333333333333</ele><time>2026-04-12T08:07:39Z</time></trkpt><trkpt lat="37.053160998613485" lon="15.150843038603584"><ele>85.66666666666666</ele><time>2026-04-12T08:07:40Z</time></trkpt><trkpt lat="37.052957764278084" lon="15.15080223920398"><ele>85.0</ele><time>2026-04-12T08:07:41Z</time></trkpt><trkpt lat="37.052752729176696" lon="15.150788883780095"><ele>85.0</ele><time>2026-04-12T08:07:42Z</time></trkpt><trkpt lat="37.05254342733632" lon="15.150805436774618"><ele>85.0</ele><time>2026-04-12T08:07:43Z</time></trkpt><trkpt lat="37.05233586392501" lon="15.150846561042707"><ele>85.0</ele><time>2026-04-12T08:07:44Z</time></trkpt><trkpt lat="37.052135706844226" lon="15.150915827078332"><ele>84.0</ele><time>2026-04-12T08:07:45Z</time></trkpt><trkpt lat="37.05194123494953" lon="15.151006294635776"><ele>83.0</ele><time>2026-04-12T08:07:46Z</time></trkpt><trkpt lat="37.051758047282014" lon="15.151126963335754"><ele>82.0</ele><time>2026-04-12T08:07:47Z</time></trkpt><trkpt lat="37.05158475034092" lon="15.151268340830143"><ele>80.0</ele><time>2026-04-12T08:07:48Z</time></trkpt><trkpt lat="37.051417057752154" lon="15.151421079770525"><ele>78.0</ele><time>2026-04-12T08:07:49Z</time></trkpt><trkpt lat="37.05124802517821" lon="15.151573380873272"><ele>76.0</ele><time>2026-04-12T08:07:50Z</time></trkpt><trkpt lat="37.051071635232105" lon="15.151728505490675"><ele>76.0</ele><time>2026-04-12T08:07:51Z</time></trkpt><trkpt lat="37.05089170489638" lon="15.151887772322667"><ele>76.0</ele><time>2026-04-12T08:07:52Z</time></trkpt><trkpt lat="37.05070886008188" lon="15.152046134331224"><ele>76.0</ele><time>2026-04-12T08:07:53Z</time></trkpt><trkpt lat="37.05052573598184" lon="15.152202518261074"><ele>75.66666666666666</ele><time>2026-04-12T08:07:54Z</time></trkpt><trkpt lat="37.050343326332744" lon="15.152362788074408"><ele>75.33333333333333</ele><time>2026-04-12T08:07:55Z</time></trkpt><trkpt lat="37.05015975352796" lon="15.15251697162088"><ele>75.0</ele><time>2026-04-12T08:07:56Z</time></trkpt><trkpt lat="37.049976644870846" lon="15.152670806062858"><ele>74.0</ele><time>2026-04-12T08:07:57Z</time></trkpt><trkpt lat="37.04979367435325" lon="15.152823368257941"><ele>73.0</ele><time>2026-04-12T08:07:58Z</time></trkpt><trkpt lat="37.049615293707184" lon="15.152979979767535"><ele>72.0</ele><time>2026-04-12T08:07:59Z</time></trkpt><trkpt lat="37.04943798748197" lon="15.153136465214871"><ele>71.33333333333333</ele><time>2026-04-12T08:08:00Z</time></trkpt><trkpt lat="37.04926173948881" lon="15.15329328332394"><ele>70.66666666666666</ele><time>2026-04-12T08:08:01Z</time></trkpt><trkpt lat="37.049087088013884" lon="15.153445896131503"><ele>70.0</ele><time>2026-04-12T08:08:02Z</time></trkpt><trkpt lat="37.04891618567194" lon="15.153596819954824"><ele>70.0</ele><time>2026-04-12T08:08:03Z</time></trkpt><trkpt lat="37.04874726837678" lon="15.153746635412066"><ele>70.0</ele><time>2026-04-12T08:08:04Z</time></trkpt><trkpt lat="37.04857856268329" lon="15.153892686752593"><ele>70.0</ele><time>2026-04-12T08:08:05Z</time></trkpt><trkpt lat="37.04841347434124" lon="15.154037076435582"><ele>70.0</ele><time>2026-04-12T08:08:06Z</time></trkpt><trkpt lat="37.04825436685797" lon="15.15417864429143"><ele>70.0</ele><time>2026-04-12T08:08:07Z</time></trkpt><trkpt lat="37.04810046138924" lon="15.154310017511927"><ele>70.0</ele><time>2026-04-12T08:08:08Z</time></trkpt><trkpt lat="37.04794971441194" lon="15.154430314886843"><ele>70.0</ele><time>2026-04-12T08:08:09Z</time></trkpt><trkpt lat="37.04779951994232" lon="15.154535972747153"><ele>70.0</ele><time>2026-04-12T08:08:10Z</time></trkpt><trkpt lat="37.04763888889912" lon="15.15462658451953"><ele>70.0</ele><time>2026-04-12T08:08:11Z</time></trkpt><trkpt lat="37.04746873731654" lon="15.154691291642086"><ele>70.0</ele><time>2026-04-12T08:08:12Z</time></trkpt><trkpt lat="37.04729053272511" lon="15.154732629933191"><ele>70.0</ele><time>2026-04-12T08:08:13Z</time></trkpt><trkpt lat="37.04710357833804" lon="15.154740258776682"><ele>70.0</ele><time>2026-04-12T08:08:14Z</time></trkpt><trkpt lat="37.04691524015797" lon="15.154782506440121"><ele>70.0</ele><time>2026-04-12T08:08:15Z</time></trkpt><trkpt lat="37.04672363051785" lon="15.154803889495314"><ele>70.0</ele><time>2026-04-12T08:08:16Z</time></trkpt><trkpt lat="37.04652943515189" lon="15.15482867664578"><ele>70.0</ele><time>2026-04-12T08:08:17Z</time></trkpt><trkpt lat="37.046335491040075" lon="15.15485248075373"><ele>69.66666666666666</ele><time>2026-04-12T08:08:18Z</time></trkpt><trkpt lat="37.04614170181645" lon="15.15487466612234"><ele>69.33333333333333</ele><time>2026-04-12T08:08:19Z</time></trkpt><trkpt lat="37.045947929916956" lon="15.15489806559539"><ele>69.0</ele><time>2026-04-12T08:08:20Z</time></trkpt><trkpt lat="37.045757675069055" lon="15.154922786784491"><ele>69.0</ele><time>2026-04-12T08:08:21Z</time></trkpt><trkpt lat="37.045570167477294" lon="15.154946379999876"><ele>69.0</ele><time>2026-04-12T08:08:22Z</time></trkpt><trkpt lat="37.04538404503709" lon="15.154969595851446"><ele>69.0</ele><time>2026-04-12T08:08:23Z</time></trkpt><trkpt lat="37.04520086821367" lon="15.154992522684617"><ele>69.0</ele><time>2026-04-12T08:08:24Z</time></trkpt><trkpt lat="37.04502007687" lon="15.155013492226528"><ele>69.0</ele><time>2026-04-12T08:08:25Z</time></trkpt><trkpt lat="37.04484116335214" lon="15.155035997187468"><ele>69.0</ele><time>2026-04-12T08:08:26Z</time></trkpt><trkpt lat="37.0446632235783" lon="15.155060068271421"><ele>70.33333333333333</ele><time>2026-04-12T08:08:27Z</time></trkpt><trkpt lat="37.04448403837247" lon="15.155082898234966"><ele>71.66666666666666</ele><time>2026-04-12T08:08:28Z</time></trkpt><trkpt lat="37.0443058430173" lon="15.155106727141577"><ele>73.0</ele><time>2026-04-12T08:08:29Z</time></trkpt><trkpt lat="37.04412559088767" lon="15.155125444202525"><ele>74.0</ele><time>2026-04-12T08:08:30Z</time></trkpt><trkpt lat="37.043940607724316" lon="15.15513713634773"><ele>75.0</ele><time>2026-04-12T08:08:31Z</time></trkpt><trkpt lat="37.043755335075396" lon="15.155136169687813"><ele>76.0</ele><time>2026-04-12T08:08:32Z</time></trkpt><trkpt lat="37.043568750803324" lon="15.155123324018742"><ele>76.0</ele><time>2026-04-12T08:08:33Z</time></trkpt><trkpt lat="37.04338136608383" lon="15.155094187123607"><ele>76.0</ele><time>2026-04-12T08:08:34Z</time></trkpt><trkpt lat="37.04318968842712" lon="15.15506368572196"><ele>76.0</ele><time>2026-04-12T08:08:35Z</time></trkpt><trkpt lat="37.04299896578301" lon="15.155036503104682"><ele>77.33333333333333</ele><time>2026-04-12T08:08:36Z</time></trkpt><trkpt lat="37.04280650941185" lon="15.155013052424094"><ele>78.66666666666667</ele><time>2026-04-12T08:08:37Z</time></trkpt><trkpt lat="37.04261347041184" lon="15.15499788916163"><ele>80.0</ele><time>2026-04-12T08:08:38Z</time></trkpt><trkpt lat="37.042421407545305" lon="15.154983766187303"><ele>80.33333333333334</ele><time>2026-04-12T08:08:39Z</time></trkpt><trkpt lat="37.042229528241876" lon="15.154968927497107"><ele>80.66666666666667</ele><time>2026-04-12T08:08:40Z</time></trkpt><trkpt lat="37.04203665885154" lon="15.154955062963166"><ele>81.0</ele><time>2026-04-12T08:08:41Z</time></trkpt><trkpt lat="37.04184473740778" lon="15.154944638462727"><ele>81.0</ele><time>2026-04-12T08:08:42Z</time></trkpt><trkpt lat="37.04165327462919" lon="15.154938996334616"><ele>81.0</ele><time>2026-04-12T08:08:43Z</time></trkpt><trkpt lat="37.04146253189125" lon="15.154939417034567"><ele>81.0</ele><time>2026-04-12T08:08:44Z</time></trkpt><trkpt lat="37.04127176214288" lon="15.154941152972977"><ele>81.0</ele><time>2026-04-12T08:08:45Z</time></trkpt><trkpt lat="37.041083741795106" lon="15.154946692986014"><ele>81.0</ele><time>2026-04-12T08:08:46Z</time></trkpt><trkpt lat="37.04089539734841" lon="15.154955979814673"><ele>81.0</ele><time>2026-04-12T08:08:47Z</time></trkpt><trkpt lat="37.040709600556056" lon="15.15496410604779"><ele>81.66666666666667</ele><time>2026-04-12T08:08:48Z</time></trkpt><trkpt lat="37.040527170343935" lon="15.154970634259088"><ele>82.33333333333334</ele><time>2026-04-12T08:08:49Z</time></trkpt><trkpt lat="37.04034776684582" lon="15.154980160726598"><ele>83.0</ele><time>2026-04-12T08:08:50Z</time></trkpt><trkpt lat="37.040170572666476" lon="15.154988201648779"><ele>83.0</ele><time>2026-04-12T08:08:51Z</time></trkpt><trkpt lat="37.039995440307464" lon="15.154994862934394"><ele>83.0</ele><time>2026-04-12T08:08:52Z</time></trkpt><trkpt lat="37.039820548884876" lon="15.155004519685383"><ele>83.0</ele><time>2026-04-12T08:08:53Z</time></trkpt><trkpt lat="37.039648935736686" lon="15.155020053974647"><ele>83.33333333333334</ele><time>2026-04-12T08:08:54Z</time></trkpt><trkpt lat="37.03947835196795" lon="15.155044438731206"><ele>83.66666666666667</ele><time>2026-04-12T08:08:55Z</time></trkpt><trkpt lat="37.03930745274352" lon="15.15509103418809"><ele>84.0</ele><time>2026-04-12T08:08:56Z</time></trkpt><trkpt lat="37.039136023681614" lon="15.155167518856624"><ele>83.66666666666667</ele><time>2026-04-12T08:08:57Z</time></trkpt><trkpt lat="37.03897076152326" lon="15.1552734617023"><ele>83.33333333333334</ele><time>2026-04-12T08:08:58Z</time></trkpt><trkpt lat="37.038810601050415" lon="15.155405110208552"><ele>83.0</ele><time>2026-04-12T08:08:59Z</time></trkpt><trkpt lat="37.038657815136176" lon="15.15556137867842"><ele>83.0</ele><time>2026-04-12T08:09:00Z</time></trkpt><trkpt lat="37.03851057449334" lon="15.155736249484333"><ele>83.0</ele><time>2026-04-12T08:09:01Z</time></trkpt><trkpt lat="37.038362141841105" lon="15.155911173937183"><ele>83.0</ele><time>2026-04-12T08:09:02Z</time></trkpt><trkpt lat="37.038207108804976" lon="15.156087681627676"><ele>83.0</ele><time>2026-04-12T08:09:03Z</time></trkpt><trkpt lat="37.03805218792591" lon="15.156262884901956"><ele>83.0</ele><time>2026-04-12T08:09:04Z</time></trkpt><trkpt lat="37.03789674817072" lon="15.156437737595821"><ele>83.0</ele><time>2026-04-12T08:09:05Z</time></trkpt><trkpt lat="37.037739076114526" lon="15.156614316690407"><ele>82.66666666666667</ele><time>2026-04-12T08:09:06Z</time></trkpt><trkpt lat="37.037582608099605" lon="15.156791552953198"><ele>82.33333333333333</ele><time>2026-04-12T08:09:07Z</time></trkpt><trkpt lat="37.037425957921556" lon="15.15697026407378"><ele>82.0</ele><time>2026-04-12T08:09:08Z</time></trkpt><trkpt lat="37.03727079074293" lon="15.157149513690674"><ele>82.66666666666666</ele><time>2026-04-12T08:09:09Z</time></trkpt><trkpt lat="37.037115172956966" lon="15.157330106971393"><ele>83.33333333333333</ele><time>2026-04-12T08:09:10Z</time></trkpt><trkpt lat="37.03695918305193" lon="15.157509584018475"><ele>84.0</ele><time>2026-04-12T08:09:11Z</time></trkpt><trkpt lat="37.03680242588235" lon="15.157684709009416"><ele>84.0</ele><time>2026-04-12T08:09:12Z</time></trkpt><trkpt lat="37.036647569684156" lon="15.157860635583155"><ele>84.0</ele><time>2026-04-12T08:09:13Z</time></trkpt><trkpt lat="37.03649286537738" lon="15.158039331289952"><ele>84.0</ele><time>2026-04-12T08:09:14Z</time></trkpt><trkpt lat="37.03633940917251" lon="15.158217255738764"><ele>83.66666666666667</ele><time>2026-04-12T08:09:15Z</time></trkpt><trkpt lat="37.036188232066735" lon="15.158392608855152"><ele>83.33333333333334</ele><time>2026-04-12T08:09:16Z</time></trkpt><trkpt lat="37.03603789092005" lon="15.158565714350319"><ele>83.0</ele><time>2026-04-12T08:09:17Z</time></trkpt><trkpt lat="37.03588451216702" lon="15.158740019288185"><ele>83.66666666666667</ele><time>2026-04-12T08:09:18Z</time></trkpt><trkpt lat="37.035730824562286" lon="15.158913673190549"><ele>84.33333333333333</ele><time>2026-04-12T08:09:19Z</time></trkpt><trkpt lat="37.03557679875782" lon="15.159086257390971"><ele>85.0</ele><time>2026-04-12T08:09:20Z</time></trkpt><trkpt lat="37.03542482470944" lon="15.159259611069158"><ele>85.0</ele><time>2026-04-12T08:09:21Z</time></trkpt><trkpt lat="37.03527533910393" lon="15.159434544511912"><ele>85.0</ele><time>2026-04-12T08:09:22Z</time></trkpt><trkpt lat="37.03512629694605" lon="15.159609023364187"><ele>85.0</ele><time>2026-04-12T08:09:23Z</time></trkpt><trkpt lat="37.034976810431374" lon="15.159782665116941"><ele>84.33333333333333</ele><time>2026-04-12T08:09:24Z</time></trkpt><trkpt lat="37.03482547317171" lon="15.159955296143712"><ele>83.66666666666667</ele><time>2026-04-12T08:09:25Z</time></trkpt><trkpt lat="37.03467514165657" lon="15.160127003192512"><ele>83.0</ele><time>2026-04-12T08:09:26Z</time></trkpt><trkpt lat="37.03452384392701" lon="15.160298148045275"><ele>83.0</ele><time>2026-04-12T08:09:27Z</time></trkpt><trkpt lat="37.034371318290724" lon="15.160472724650694"><ele>83.0</ele><time>2026-04-12T08:09:28Z</time></trkpt><trkpt lat="37.034217469431134" lon="15.16065090162181"><ele>83.0</ele><time>2026-04-12T08:09:29Z</time></trkpt><trkpt lat="37.03406225837815" lon="15.160829497710537"><ele>82.66666666666667</ele><time>2026-04-12T08:09:30Z</time></trkpt><trkpt lat="37.033904943891386" lon="15.16100890255886"><ele>82.33333333333333</ele><time>2026-04-12T08:09:31Z</time></trkpt><trkpt lat="37.033746199165996" lon="15.161190390150283"><ele>82.0</ele><time>2026-04-12T08:09:32Z</time></trkpt><trkpt lat="37.033586746611334" lon="15.161374617232687"><ele>81.33333333333333</ele><time>2026-04-12T08:09:33Z</time></trkpt><trkpt lat="37.033425540527894" lon="15.161557769376076"><ele>80.66666666666667</ele><time>2026-04-12T08:09:34Z</time></trkpt><trkpt lat="37.03326551997028" lon="15.16173977118178"><ele>80.0</ele><time>2026-04-12T08:09:35Z</time></trkpt><trkpt lat="37.03310469711365" lon="15.161922110112815"><ele>80.0</ele><time>2026-04-12T08:09:36Z</time></trkpt><trkpt lat="37.03294424926235" lon="15.16210399766622"><ele>80.0</ele><time>2026-04-12T08:09:37Z</time></trkpt><trkpt lat="37.032784821206" lon="15.162284619744415"><ele>80.0</ele><time>2026-04-12T08:09:38Z</time></trkpt><trkpt lat="37.03262617210749" lon="15.16246681530812"><ele>79.66666666666667</ele><time>2026-04-12T08:09:39Z</time></trkpt><trkpt lat="37.03246609348196" lon="15.162648531080352"><ele>79.33333333333333</ele><time>2026-04-12T08:09:40Z</time></trkpt><trkpt lat="37.032305109234194" lon="15.162829587076002"><ele>79.0</ele><time>2026-04-12T08:09:41Z</time></trkpt><trkpt lat="37.03214563487881" lon="15.16301333975799"><ele>78.66666666666666</ele><time>2026-04-12T08:09:42Z</time></trkpt><trkpt lat="37.03198640558625" lon="15.163197444065702"><ele>78.33333333333333</ele><time>2026-04-12T08:09:43Z</time></trkpt><trkpt lat="37.03182736334701" lon="15.163380064089278"><ele>78.0</ele><time>2026-04-12T08:09:44Z</time></trkpt><trkpt lat="37.03166719663031" lon="15.163561119156512"><ele>78.66666666666667</ele><time>2026-04-12T08:09:45Z</time></trkpt><trkpt lat="37.03150851344312" lon="15.163740275094279"><ele>79.33333333333334</ele><time>2026-04-12T08:09:46Z</time></trkpt><trkpt lat="37.03135014143749" lon="15.163919008414108"><ele>80.0</ele><time>2026-04-12T08:09:47Z</time></trkpt><trkpt lat="37.03119454233989" lon="15.164097024647281"><ele>80.0</ele><time>2026-04-12T08:09:48Z</time></trkpt><trkpt lat="37.03103992243383" lon="15.164273151517925"><ele>80.0</ele><time>2026-04-12T08:09:49Z</time></trkpt><trkpt lat="37.03088217846417" lon="15.164449192525309"><ele>80.0</ele><time>2026-04-12T08:09:50Z</time></trkpt><trkpt lat="37.03072386140179" lon="15.164629649689065"><ele>80.33333333333334</ele><time>2026-04-12T08:09:51Z</time></trkpt><trkpt lat="37.0305609121964" lon="15.164815192366564"><ele>80.66666666666667</ele><time>2026-04-12T08:09:52Z</time></trkpt><trkpt lat="37.03039393217803" lon="15.16499564018591"><ele>81.0</ele><time>2026-04-12T08:09:53Z</time></trkpt><trkpt lat="37.030217714010966" lon="15.165174088278377"><ele>81.0</ele><time>2026-04-12T08:09:54Z</time></trkpt><trkpt lat="37.030039758908515" lon="15.165343635913871"><ele>81.0</ele><time>2026-04-12T08:09:55Z</time></trkpt><trkpt lat="37.02985827674245" lon="15.165486482943601"><ele>81.0</ele><time>2026-04-12T08:09:56Z</time></trkpt><trkpt lat="37.02966386900362" lon="15.165594100854834"><ele>81.0</ele><time>2026-04-12T08:09:57Z</time></trkpt><trkpt lat="37.029454809661054" lon="15.165677195301807"><ele>81.0</ele><time>2026-04-12T08:09:58Z</time></trkpt><trkpt lat="37.02923871047356" lon="15.165738337869437"><ele>81.0</ele><time>2026-04-12T08:09:59Z</time></trkpt><trkpt lat="37.02901033562158" lon="15.165782174953922"><ele>82.5</ele><time>2026-04-12T08:10:00Z</time></trkpt><trkpt lat="37.02877505041728" lon="15.1658083546865"><ele>84.0</ele><time>2026-04-12T08:10:01Z</time></trkpt><trkpt lat="37.02853521148666" lon="15.16582952241501"><ele>86.5</ele><time>2026-04-12T08:10:02Z</time></trkpt><trkpt lat="37.028303899112245" lon="15.165855586980406"><ele>89.0</ele><time>2026-04-12T08:10:03Z</time></trkpt><trkpt lat="37.02807716962452" lon="15.165876243972203"><ele>89.0</ele><time>2026-04-12T08:10:04Z</time></trkpt><trkpt lat="37.02784853057599" lon="15.165880496974877"><ele>89.0</ele><time>2026-04-12T08:10:05Z</time></trkpt><trkpt lat="37.02761838054024" lon="15.1658558189418"><ele>90.0</ele><time>2026-04-12T08:10:06Z</time></trkpt><trkpt lat="37.02738709013137" lon="15.165809960408696"><ele>91.0</ele><time>2026-04-12T08:10:07Z</time></trkpt><trkpt lat="37.02715586217073" lon="15.165766194044275"><ele>91.0</ele><time>2026-04-12T08:10:08Z</time></trkpt><trkpt lat="37.02692729463022" lon="15.165723786282815"><ele>91.0</ele><time>2026-04-12T08:10:09Z</time></trkpt><trkpt lat="37.02670976571857" lon="15.165687546198361"><ele>92.0</ele><time>2026-04-12T08:10:10Z</time></trkpt><trkpt lat="37.02650039050578" lon="15.165653070736994"><ele>93.0</ele><time>2026-04-12T08:10:11Z</time></trkpt><trkpt lat="37.02629547099776" lon="15.165620038465558"><ele>94.0</ele><time>2026-04-12T08:10:12Z</time></trkpt><trkpt lat="37.026097018642055" lon="15.165586848751172"><ele>94.0</ele><time>2026-04-12T08:10:13Z</time></trkpt><trkpt lat="37.02590489721173" lon="15.165554761029865"><ele>94.0</ele><time>2026-04-12T08:10:14Z</time></trkpt><trkpt lat="37.02571931806327" lon="15.165526655906593"><ele>94.0</ele><time>2026-04-12T08:10:15Z</time></trkpt><trkpt lat="37.02553558398124" lon="15.165501952172601"><ele>94.33333333333333</ele><time>2026-04-12T08:10:16Z</time></trkpt><trkpt lat="37.02535472641453" lon="15.165478143677323"><ele>94.66666666666667</ele><time>2026-04-12T08:10:17Z</time></trkpt><trkpt lat="37.02517648911671" lon="15.165449709563514"><ele>95.0</ele><time>2026-04-12T08:10:18Z</time></trkpt><trkpt lat="37.02500477386516" lon="15.16541879169891"><ele>95.0</ele><time>2026-04-12T08:10:19Z</time></trkpt><trkpt lat="37.0248433780419" lon="15.165386898594676"><ele>95.0</ele><time>2026-04-12T08:10:20Z</time></trkpt><trkpt lat="37.02468985628151" lon="15.165358843456717"><ele>95.0</ele><time>2026-04-12T08:10:21Z</time></trkpt><trkpt lat="37.02454830776682" lon="15.16533297765892"><ele>95.0</ele><time>2026-04-12T08:10:22Z</time></trkpt><trkpt lat="37.02442162927805" lon="15.165306281365531"><ele>95.0</ele><time>2026-04-12T08:10:23Z</time></trkpt><trkpt lat="37.02432050251162" lon="15.165279559197206"><ele>95.0</ele><time>2026-04-12T08:10:24Z</time></trkpt><trkpt lat="37.024231967501606" lon="15.165286758799873"><ele>95.0</ele><time>2026-04-12T08:10:25Z</time></trkpt><trkpt lat="37.02414719623179" lon="15.165316599164326"><ele>95.0</ele><time>2026-04-12T08:10:26Z</time></trkpt><trkpt lat="37.02408964732957" lon="15.165402040339295"><ele>95.0</ele><time>2026-04-12T08:10:27Z</time></trkpt><trkpt lat="37.02409003484601" lon="15.165512728821662"><ele>95.0</ele><time>2026-04-12T08:10:28Z</time></trkpt><trkpt lat="37.02410509146878" lon="15.165615992905067"><ele>95.0</ele><time>2026-04-12T08:10:29Z</time></trkpt><trkpt lat="37.024164110635866" lon="15.165736174758885"><ele>95.0</ele><time>2026-04-12T08:10:30Z</time></trkpt><trkpt lat="37.024237064685934" lon="15.165876256486667"><ele>95.0</ele><time>2026-04-12T08:10:31Z</time></trkpt><trkpt lat="37.02430936687445" lon="15.166051751592398"><ele>94.0</ele><time>2026-04-12T08:10:32Z</time></trkpt><trkpt lat="37.024380786508445" lon="15.166248943693123"><ele>93.0</ele><time>2026-04-12T08:10:33Z</time></trkpt><trkpt lat="37.0244596837939" lon="15.166443390735648"><ele>92.0</ele><time>2026-04-12T08:10:34Z</time></trkpt><trkpt lat="37.02454841614366" lon="15.166656250280901"><ele>91.33333333333334</ele><time>2026-04-12T08:10:35Z</time></trkpt><trkpt lat="37.02464080242708" lon="15.166882582800019"><ele>90.66666666666667</ele><time>2026-04-12T08:10:36Z</time></trkpt><trkpt lat="37.02472905576567" lon="15.167116235942979"><ele>90.0</ele><time>2026-04-12T08:10:37Z</time></trkpt><trkpt lat="37.02481894854212" lon="15.167345109275216"><ele>90.0</ele><time>2026-04-12T08:10:38Z</time></trkpt><trkpt lat="37.02491073249158" lon="15.167567675438814"><ele>90.0</ele><time>2026-04-12T08:10:39Z</time></trkpt><trkpt lat="37.02499744902183" lon="15.167779881647103"><ele>90.0</ele><time>2026-04-12T08:10:40Z</time></trkpt><trkpt lat="37.02508187825593" lon="15.16798013163773"><ele>90.0</ele><time>2026-04-12T08:10:41Z</time></trkpt><trkpt lat="37.02515579726034" lon="15.168175044398252"><ele>90.0</ele><time>2026-04-12T08:10:42Z</time></trkpt><trkpt lat="37.02520823241198" lon="15.16837776204824"><ele>90.0</ele><time>2026-04-12T08:10:43Z</time></trkpt><trkpt lat="37.02524109497721" lon="15.168603300184143"><ele>88.33333333333333</ele><time>2026-04-12T08:10:44Z</time></trkpt><trkpt lat="37.025246467077146" lon="15.168838252058821"><ele>86.66666666666666</ele><time>2026-04-12T08:10:45Z</time></trkpt><trkpt lat="37.02523271749535" lon="15.169072658515466"><ele>85.0</ele><time>2026-04-12T08:10:46Z</time></trkpt><trkpt lat="37.02518046411139" lon="15.169301753310023"><ele>83.66666666666666</ele><time>2026-04-12T08:10:47Z</time></trkpt><trkpt lat="37.02509880299368" lon="15.169532676861655"><ele>82.33333333333333</ele><time>2026-04-12T08:10:48Z</time></trkpt><trkpt lat="37.024999133541016" lon="15.169769826893672"><ele>81.0</ele><time>2026-04-12T08:10:49Z</time></trkpt><trkpt lat="37.024882618515974" lon="15.170009387410229"><ele>80.5</ele><time>2026-04-12T08:10:50Z</time></trkpt><trkpt lat="37.024768770385016" lon="15.170267607908837"><ele>80.0</ele><time>2026-04-12T08:10:51Z</time></trkpt><trkpt lat="37.02465236983875" lon="15.170539316477084"><ele>79.0</ele><time>2026-04-12T08:10:52Z</time></trkpt><trkpt lat="37.024530292786686" lon="15.170823742830814"><ele>78.0</ele><time>2026-04-12T08:10:53Z</time></trkpt><trkpt lat="37.02440366804008" lon="15.171114491201077"><ele>78.0</ele><time>2026-04-12T08:10:54Z</time></trkpt><trkpt lat="37.02427721433052" lon="15.171405608118162"><ele>78.0</ele><time>2026-04-12T08:10:55Z</time></trkpt><trkpt lat="37.02415277006774" lon="15.171699562221544"><ele>78.5</ele><time>2026-04-12T08:10:56Z</time></trkpt><trkpt lat="37.02402810503452" lon="15.171989062711804"><ele>79.0</ele><time>2026-04-12T08:10:57Z</time></trkpt><trkpt lat="37.02390391837336" lon="15.172276914088831"><ele>78.0</ele><time>2026-04-12T08:10:58Z</time></trkpt><trkpt lat="37.023782290722316" lon="15.172562421202766"><ele>77.0</ele><time>2026-04-12T08:10:59Z</time></trkpt><trkpt lat="37.02365900407891" lon="15.172843516161462"><ele>77.0</ele><time>2026-04-12T08:11:00Z</time></trkpt><trkpt lat="37.0235363380632" lon="15.173121780013181"><ele>77.0</ele><time>2026-04-12T08:11:01Z</time></trkpt><trkpt lat="37.02341383240975" lon="15.17339820338897"><ele>77.5</ele><time>2026-04-12T08:11:02Z</time></trkpt><trkpt lat="37.023293455297264" lon="15.17367349918781"><ele>78.0</ele><time>2026-04-12T08:11:03Z</time></trkpt><trkpt lat="37.02317271870258" lon="15.173946773900637"><ele>77.0</ele><time>2026-04-12T08:11:04Z</time></trkpt><trkpt lat="37.023052957774155" lon="15.174220066476"><ele>76.0</ele><time>2026-04-12T08:11:05Z</time></trkpt><trkpt lat="37.02293869634467" lon="15.174489692498385"><ele>76.0</ele><time>2026-04-12T08:11:06Z</time></trkpt><trkpt lat="37.022829680130435" lon="15.174747861199249"><ele>76.0</ele><time>2026-04-12T08:11:07Z</time></trkpt><trkpt lat="37.02272189624408" lon="15.17499826594692"><ele>76.0</ele><time>2026-04-12T08:11:08Z</time></trkpt><trkpt lat="37.02261241659752" lon="15.175248357759482"><ele>76.0</ele><time>2026-04-12T08:11:09Z</time></trkpt><trkpt lat="37.02250760359956" lon="15.175491520878717"><ele>76.0</ele><time>2026-04-12T08:11:10Z</time></trkpt><trkpt lat="37.022410875589614" lon="15.175718584484637"><ele>76.0</ele><time>2026-04-12T08:11:11Z</time></trkpt><trkpt lat="37.022315252346274" lon="15.17593633359444"><ele>76.0</ele><time>2026-04-12T08:11:12Z</time></trkpt><trkpt lat="37.02221209265886" lon="15.176150386964052"><ele>76.0</ele><time>2026-04-12T08:11:13Z</time></trkpt><trkpt lat="37.022093971206786" lon="15.176358108270914"><ele>75.66666666666666</ele><time>2026-04-12T08:11:14Z</time></trkpt><trkpt lat="37.021956542318776" lon="15.176558671226259"><ele>75.33333333333333</ele><time>2026-04-12T08:11:15Z</time></trkpt><trkpt lat="37.02179924100351" lon="15.17674978026738"><ele>75.0</ele><time>2026-04-12T08:11:16Z</time></trkpt><trkpt lat="37.02163122699713" lon="15.176946168742514"><ele>75.0</ele><time>2026-04-12T08:11:17Z</time></trkpt><trkpt lat="37.02146048262305" lon="15.177145947951965"><ele>75.0</ele><time>2026-04-12T08:11:18Z</time></trkpt><trkpt lat="37.02128869151729" lon="15.177352040924163"><ele>74.0</ele><time>2026-04-12T08:11:19Z</time></trkpt><trkpt lat="37.021116507198826" lon="15.177559800778587"><ele>73.0</ele><time>2026-04-12T08:11:20Z</time></trkpt><trkpt lat="37.02094229547322" lon="15.177770150011586"><ele>73.0</ele><time>2026-04-12T08:11:21Z</time></trkpt><trkpt lat="37.02076863820143" lon="15.177978836391041"><ele>73.0</ele><time>2026-04-12T08:11:22Z</time></trkpt><trkpt lat="37.02059436203687" lon="15.17818625181035"><ele>71.5</ele><time>2026-04-12T08:11:23Z</time></trkpt><trkpt lat="37.020420521422075" lon="15.178392009128885"><ele>70.0</ele><time>2026-04-12T08:11:24Z</time></trkpt><trkpt lat="37.02024940187783" lon="15.178594252972564"><ele>70.0</ele><time>2026-04-12T08:11:25Z</time></trkpt><trkpt lat="37.02007635751742" lon="15.17879512956673"><ele>70.0</ele><time>2026-04-12T08:11:26Z</time></trkpt><trkpt lat="37.01990314150726" lon="15.178980446932243"><ele>69.66666666666666</ele><time>2026-04-12T08:11:27Z</time></trkpt><trkpt lat="37.01972201736859" lon="15.179135568997495"><ele>69.33333333333333</ele><time>2026-04-12T08:11:28Z</time></trkpt><trkpt lat="37.01951516887128" lon="15.179252706644126"><ele>69.0</ele><time>2026-04-12T08:11:29Z</time></trkpt><trkpt lat="37.019286617586886" lon="15.179346392263588"><ele>68.5</ele><time>2026-04-12T08:11:30Z</time></trkpt><trkpt lat="37.01904342521872" lon="15.17943673477073"><ele>68.0</ele><time>2026-04-12T08:11:31Z</time></trkpt><trkpt lat="37.0187975096348" lon="15.17953978551526"><ele>68.0</ele><time>2026-04-12T08:11:32Z</time></trkpt><trkpt lat="37.01854922229365" lon="15.179648355913768"><ele>68.0</ele><time>2026-04-12T08:11:33Z</time></trkpt><trkpt lat="37.01830181922873" lon="15.179750559534332"><ele>66.0</ele><time>2026-04-12T08:11:34Z</time></trkpt><trkpt lat="37.018055057436484" lon="15.179851531636967"><ele>64.0</ele><time>2026-04-12T08:11:35Z</time></trkpt><trkpt lat="37.017810396518335" lon="15.179954820095704"><ele>64.0</ele><time>2026-04-12T08:11:36Z</time></trkpt><trkpt lat="37.01756698699398" lon="15.180058057444072"><ele>64.0</ele><time>2026-04-12T08:11:37Z</time></trkpt><trkpt lat="37.01732367954213" lon="15.180159715206786"><ele>65.5</ele><time>2026-04-12T08:11:38Z</time></trkpt><trkpt lat="37.0170759403774" lon="15.180263695465188"><ele>67.0</ele><time>2026-04-12T08:11:39Z</time></trkpt><trkpt lat="37.016827053853106" lon="15.180378063147677"><ele>67.5</ele><time>2026-04-12T08:11:40Z</time></trkpt><trkpt lat="37.016576549713314" lon="15.180515601132145"><ele>68.0</ele><time>2026-04-12T08:11:41Z</time></trkpt><trkpt lat="37.01633124921239" lon="15.180678928710778"><ele>66.5</ele><time>2026-04-12T08:11:42Z</time></trkpt><trkpt lat="37.01609224023523" lon="15.180858677343478"><ele>65.0</ele><time>2026-04-12T08:11:43Z</time></trkpt><trkpt lat="37.015831135340655" lon="15.18101972738399"><ele>65.0</ele><time>2026-04-12T08:11:44Z</time></trkpt><trkpt lat="37.01557449919803" lon="15.18120013072741"><ele>65.0</ele><time>2026-04-12T08:11:45Z</time></trkpt><trkpt lat="37.01531013594691" lon="15.181383822445863"><ele>63.5</ele><time>2026-04-12T08:11:46Z</time></trkpt><trkpt lat="37.0150377582063" lon="15.181572217125543"><ele>62.0</ele><time>2026-04-12T08:11:47Z</time></trkpt><trkpt lat="37.01475624832642" lon="15.181766929527855"><ele>61.5</ele><time>2026-04-12T08:11:48Z</time></trkpt><trkpt lat="37.01446748530098" lon="15.181966657429607"><ele>61.0</ele><time>2026-04-12T08:11:49Z</time></trkpt><trkpt lat="37.01418392658519" lon="15.182157108062581"><ele>61.0</ele><time>2026-04-12T08:11:50Z</time></trkpt><trkpt lat="37.01390845875629" lon="15.182292711286626"><ele>61.0</ele><time>2026-04-12T08:11:51Z</time></trkpt><trkpt lat="37.01366898203481" lon="15.182453138531612"><ele>61.0</ele><time>2026-04-12T08:11:52Z</time></trkpt><trkpt lat="37.013353156298535" lon="15.182739170379698"><ele>61.0</ele><time>2026-04-12T08:11:53Z</time></trkpt><trkpt lat="37.01309592608378" lon="15.182913987537232"><ele>60.5</ele><time>2026-04-12T08:11:54Z</time></trkpt><trkpt lat="37.01284680220082" lon="15.183082993072297"><ele>60.0</ele><time>2026-04-12T08:11:55Z</time></trkpt><trkpt lat="37.01259586261385" lon="15.183262615271781"><ele>59.0</ele><time>2026-04-12T08:11:56Z</time></trkpt><trkpt lat="37.012348305456634" lon="15.183440186121816"><ele>58.0</ele><time>2026-04-12T08:11:57Z</time></trkpt><trkpt lat="37.012099842140586" lon="15.18361528045311"><ele>58.0</ele><time>2026-04-12T08:11:58Z</time></trkpt><trkpt lat="37.01184392280993" lon="15.183791402786692"><ele>58.0</ele><time>2026-04-12T08:11:59Z</time></trkpt><trkpt lat="37.011587820294295" lon="15.183966865461706"><ele>57.5</ele><time>2026-04-12T08:12:00Z</time></trkpt><trkpt lat="37.01133166751591" lon="15.184142358013668"><ele>57.0</ele><time>2026-04-12T08:12:01Z</time></trkpt><trkpt lat="37.0110771146695" lon="15.184319354798959"><ele>57.0</ele><time>2026-04-12T08:12:02Z</time></trkpt><trkpt lat="37.01082100178584" lon="15.184496417846299"><ele>57.0</ele><time>2026-04-12T08:12:03Z</time></trkpt><trkpt lat="37.010567882390866" lon="15.184668306774869"><ele>57.0</ele><time>2026-04-12T08:12:04Z</time></trkpt><trkpt lat="37.01031758369579" lon="15.184842595162639"><ele>57.0</ele><time>2026-04-12T08:12:05Z</time></trkpt><trkpt lat="37.010071073050625" lon="15.18501339315144"><ele>56.0</ele><time>2026-04-12T08:12:06Z</time></trkpt><trkpt lat="37.00982830618904" lon="15.18518100074203"><ele>55.0</ele><time>2026-04-12T08:12:07Z</time></trkpt><trkpt lat="37.00958795077022" lon="15.18534459337581"><ele>55.0</ele><time>2026-04-12T08:12:08Z</time></trkpt><trkpt lat="37.00935412488052" lon="15.185507360476013"><ele>55.0</ele><time>2026-04-12T08:12:09Z</time></trkpt><trkpt lat="37.00912053549391" lon="15.185669588186238"><ele>55.0</ele><time>2026-04-12T08:12:10Z</time></trkpt><trkpt lat="37.00888954628074" lon="15.185828492064525"><ele>55.0</ele><time>2026-04-12T08:12:11Z</time></trkpt><trkpt lat="37.00866279123846" lon="15.185986886285384"><ele>55.0</ele><time>2026-04-12T08:12:12Z</time></trkpt><trkpt lat="37.00843578761993" lon="15.186144738315566"><ele>55.0</ele><time>2026-04-12T08:12:13Z</time></trkpt><trkpt lat="37.008214459602975" lon="15.186296133092306"><ele>55.5</ele><time>2026-04-12T08:12:14Z</time></trkpt><trkpt lat="37.007997890549326" lon="15.18644204583876"><ele>56.0</ele><time>2026-04-12T08:12:15Z</time></trkpt><trkpt lat="37.00778157368629" lon="15.186581251701844"><ele>56.0</ele><time>2026-04-12T08:12:16Z</time></trkpt><trkpt lat="37.0075777368907" lon="15.186730071475045"><ele>56.0</ele><time>2026-04-12T08:12:17Z</time></trkpt><trkpt lat="37.00738592721012" lon="15.186879784121794"><ele>57.0</ele><time>2026-04-12T08:12:18Z</time></trkpt><trkpt lat="37.00718948907765" lon="15.18701798528707"><ele>58.0</ele><time>2026-04-12T08:12:19Z</time></trkpt><trkpt lat="37.006991745870785" lon="15.187154809965184"><ele>58.0</ele><time>2026-04-12T08:12:20Z</time></trkpt><trkpt lat="37.00680294635978" lon="15.187276956567183"><ele>58.0</ele><time>2026-04-12T08:12:21Z</time></trkpt><trkpt lat="37.00661858776201" lon="15.18738212753769"><ele>58.0</ele><time>2026-04-12T08:12:22Z</time></trkpt><trkpt lat="37.00641656398058" lon="15.187457749301883"><ele>56.0</ele><time>2026-04-12T08:12:23Z</time></trkpt><trkpt lat="37.0061928232515" lon="15.187461614175202"><ele>54.0</ele><time>2026-04-12T08:12:24Z</time></trkpt><trkpt lat="37.00596024278537" lon="15.187479671482482"><ele>54.0</ele><time>2026-04-12T08:12:25Z</time></trkpt><trkpt lat="37.00572421487235" lon="15.18746779167273"><ele>54.0</ele><time>2026-04-12T08:12:26Z</time></trkpt><trkpt lat="37.005479388102586" lon="15.187464551505485"><ele>54.0</ele><time>2026-04-12T08:12:27Z</time></trkpt><trkpt lat="37.00523063993238" lon="15.187467791562812"><ele>54.0</ele><time>2026-04-12T08:12:28Z</time></trkpt><trkpt lat="37.00498558455845" lon="15.187471938026164"><ele>54.0</ele><time>2026-04-12T08:12:29Z</time></trkpt><trkpt lat="37.00474942383965" lon="15.18747521420105"><ele>54.0</ele><time>2026-04-12T08:12:30Z</time></trkpt><trkpt lat="37.00451958251766" lon="15.187480660597263"><ele>54.0</ele><time>2026-04-12T08:12:31Z</time></trkpt><trkpt lat="37.004294909908" lon="15.18748498925091"><ele>54.0</ele><time>2026-04-12T08:12:32Z</time></trkpt><trkpt lat="37.00407319312963" lon="15.187490991169033"><ele>54.0</ele><time>2026-04-12T08:12:33Z</time></trkpt><trkpt lat="37.00384772614757" lon="15.187500393526983"><ele>54.33333333333333</ele><time>2026-04-12T08:12:34Z</time></trkpt><trkpt lat="37.00362458981191" lon="15.187509057640764"><ele>54.666666666666664</ele><time>2026-04-12T08:12:35Z</time></trkpt><trkpt lat="37.00340142510001" lon="15.187517066281494"><ele>55.0</ele><time>2026-04-12T08:12:36Z</time></trkpt><trkpt lat="37.00317804743018" lon="15.18752234856968"><ele>55.666666666666664</ele><time>2026-04-12T08:12:37Z</time></trkpt><trkpt lat="37.002956480229486" lon="15.1875239016035"><ele>56.33333333333333</ele><time>2026-04-12T08:12:38Z</time></trkpt><trkpt lat="37.00273347134744" lon="15.187526884692003"><ele>57.0</ele><time>2026-04-12T08:12:39Z</time></trkpt><trkpt lat="37.0025135083261" lon="15.187532534502182"><ele>56.66666666666667</ele><time>2026-04-12T08:12:40Z</time></trkpt><trkpt lat="37.0022935277186" lon="15.18753163222152"><ele>56.333333333333336</ele><time>2026-04-12T08:12:41Z</time></trkpt><trkpt lat="37.00207435577047" lon="15.187529025384945"><ele>56.0</ele><time>2026-04-12T08:12:42Z</time></trkpt><trkpt lat="37.001852156092355" lon="15.187528793432309"><ele>56.333333333333336</ele><time>2026-04-12T08:12:43Z</time></trkpt><trkpt lat="37.001632933270436" lon="15.187532327037045"><ele>56.66666666666667</ele><time>2026-04-12T08:12:44Z</time></trkpt><trkpt lat="37.00141360387064" lon="15.187539252725413"><ele>57.0</ele><time>2026-04-12T08:12:45Z</time></trkpt><trkpt lat="37.00119658765761" lon="15.187546370434736"><ele>57.0</ele><time>2026-04-12T08:12:46Z</time></trkpt><trkpt lat="37.000979475763025" lon="15.187548782961509"><ele>57.0</ele><time>2026-04-12T08:12:47Z</time></trkpt><trkpt lat="37.000763041137546" lon="15.18754992044236"><ele>57.0</ele><time>2026-04-12T08:12:48Z</time></trkpt><trkpt lat="37.00055041645869" lon="15.187555654618013"><ele>57.0</ele><time>2026-04-12T08:12:49Z</time></trkpt><trkpt lat="37.000340223921874" lon="15.187573089887055"><ele>57.0</ele><time>2026-04-12T08:12:50Z</time></trkpt><trkpt lat="37.000137918481684" lon="15.187614814051942"><ele>57.0</ele><time>2026-04-12T08:12:51Z</time></trkpt><trkpt lat="36.99994455442174" lon="15.187695445301278"><ele>57.0</ele><time>2026-04-12T08:12:52Z</time></trkpt><trkpt lat="36.999755159404884" lon="15.187804644041757"><ele>57.0</ele><time>2026-04-12T08:12:53Z</time></trkpt><trkpt lat="36.99956841874887" lon="15.187931076620773"><ele>57.0</ele><time>2026-04-12T08:12:54Z</time></trkpt><trkpt lat="36.99938338932591" lon="15.188056260923656"><ele>57.0</ele><time>2026-04-12T08:12:55Z</time></trkpt><trkpt lat="36.99919917774261" lon="15.188175195043833"><ele>57.0</ele><time>2026-04-12T08:12:56Z</time></trkpt><trkpt lat="36.999013790867416" lon="15.188288287782687"><ele>57.0</ele><time>2026-04-12T08:12:57Z</time></trkpt><trkpt lat="36.99883032702135" lon="15.188399998155116"><ele>56.33333333333333</ele><time>2026-04-12T08:12:58Z</time></trkpt><trkpt lat="36.998647945345446" lon="15.18850996369009"><ele>55.666666666666664</ele><time>2026-04-12T08:12:59Z</time></trkpt><trkpt lat="36.998465677662324" lon="15.188614904345846"><ele>55.0</ele><time>2026-04-12T08:13:00Z</time></trkpt><trkpt lat="36.998282130798714" lon="15.188714929600657"><ele>55.0</ele><time>2026-04-12T08:13:01Z</time></trkpt><trkpt lat="36.99809872947334" lon="15.188811145610957"><ele>55.0</ele><time>2026-04-12T08:13:02Z</time></trkpt><trkpt lat="36.99791880663026" lon="15.188916078196078"><ele>55.0</ele><time>2026-04-12T08:13:03Z</time></trkpt><trkpt lat="36.997744179842826" lon="15.189022325023144"><ele>54.33333333333333</ele><time>2026-04-12T08:13:04Z</time></trkpt><trkpt lat="36.997565652668655" lon="15.18912826746572"><ele>53.66666666666667</ele><time>2026-04-12T08:13:05Z</time></trkpt><trkpt lat="36.997390288906004" lon="15.189231720754051"><ele>53.0</ele><time>2026-04-12T08:13:06Z</time></trkpt><trkpt lat="36.99721378461438" lon="15.189336175251414"><ele>53.0</ele><time>2026-04-12T08:13:07Z</time></trkpt><trkpt lat="36.99704030218639" lon="15.189433264091006"><ele>53.0</ele><time>2026-04-12T08:13:08Z</time></trkpt><trkpt lat="36.99686528417771" lon="15.189514848432172"><ele>53.0</ele><time>2026-04-12T08:13:09Z</time></trkpt><trkpt lat="36.99668346125559" lon="15.189564071026194"><ele>52.66666666666667</ele><time>2026-04-12T08:13:10Z</time></trkpt><trkpt lat="36.99648544855567" lon="15.189582271274471"><ele>52.33333333333333</ele><time>2026-04-12T08:13:11Z</time></trkpt><trkpt lat="36.99627812847032" lon="15.189568601062769"><ele>52.0</ele><time>2026-04-12T08:13:12Z</time></trkpt><trkpt lat="36.99607101065882" lon="15.189532481229294"><ele>52.0</ele><time>2026-04-12T08:13:13Z</time></trkpt><trkpt lat="36.99586370733126" lon="15.189495606779177"><ele>52.0</ele><time>2026-04-12T08:13:14Z</time></trkpt><trkpt lat="36.99566406145345" lon="15.189457297220786"><ele>52.0</ele><time>2026-04-12T08:13:15Z</time></trkpt><trkpt lat="36.99546676881782" lon="15.189423570939843"><ele>51.666666666666664</ele><time>2026-04-12T08:13:16Z</time></trkpt><trkpt lat="36.99527167013664" lon="15.18939530463743"><ele>51.33333333333333</ele><time>2026-04-12T08:13:17Z</time></trkpt><trkpt lat="36.99508174528758" lon="15.18937103510099"><ele>51.0</ele><time>2026-04-12T08:13:18Z</time></trkpt><trkpt lat="36.99489154144403" lon="15.189361483738207"><ele>51.0</ele><time>2026-04-12T08:13:19Z</time></trkpt><trkpt lat="36.9946981243989" lon="15.189395525819535"><ele>51.0</ele><time>2026-04-12T08:13:20Z</time></trkpt><trkpt lat="36.99449851348846" lon="15.189454188859179"><ele>51.0</ele><time>2026-04-12T08:13:21Z</time></trkpt><trkpt lat="36.99429765458707" lon="15.189516686108503"><ele>51.66666666666667</ele><time>2026-04-12T08:13:22Z</time></trkpt><trkpt lat="36.99410043570894" lon="15.189572466225377"><ele>52.333333333333336</ele><time>2026-04-12T08:13:23Z</time></trkpt><trkpt lat="36.99390529053354" lon="15.18962204714227"><ele>53.0</ele><time>2026-04-12T08:13:24Z</time></trkpt><trkpt lat="36.993708427011256" lon="15.18967513718336"><ele>53.0</ele><time>2026-04-12T08:13:25Z</time></trkpt><trkpt lat="36.99351855849185" lon="15.189734640464964"><ele>53.0</ele><time>2026-04-12T08:13:26Z</time></trkpt><trkpt lat="36.99332918264011" lon="15.189793572782417"><ele>53.0</ele><time>2026-04-12T08:13:27Z</time></trkpt><trkpt lat="36.99314303019749" lon="15.189847369696935"><ele>52.66666666666667</ele><time>2026-04-12T08:13:28Z</time></trkpt><trkpt lat="36.99296285790529" lon="15.189899544377154"><ele>52.33333333333333</ele><time>2026-04-12T08:13:29Z</time></trkpt><trkpt lat="36.99278926306901" lon="15.189948978029332"><ele>52.0</ele><time>2026-04-12T08:13:30Z</time></trkpt><trkpt lat="36.99261615941651" lon="15.190001596108774"><ele>52.666666666666664</ele><time>2026-04-12T08:13:31Z</time></trkpt><trkpt lat="36.99244656684518" lon="15.190055861571311"><ele>53.33333333333333</ele><time>2026-04-12T08:13:32Z</time></trkpt><trkpt lat="36.99227926219612" lon="15.190106987120236"><ele>54.0</ele><time>2026-04-12T08:13:33Z</time></trkpt><trkpt lat="36.99210801074491" lon="15.190152094379442"><ele>54.0</ele><time>2026-04-12T08:13:34Z</time></trkpt><trkpt lat="36.99193928577429" lon="15.190186774105259"><ele>54.0</ele><time>2026-04-12T08:13:35Z</time></trkpt><trkpt lat="36.99176128104309" lon="15.19019474856365"><ele>54.0</ele><time>2026-04-12T08:13:36Z</time></trkpt><trkpt lat="36.99158907461693" lon="15.190235537786604"><ele>54.33333333333333</ele><time>2026-04-12T08:13:37Z</time></trkpt><trkpt lat="36.991416723769" lon="15.190251056083122"><ele>54.666666666666664</ele><time>2026-04-12T08:13:38Z</time></trkpt><trkpt lat="36.99123817319213" lon="15.190265441444465"><ele>55.0</ele><time>2026-04-12T08:13:39Z</time></trkpt><trkpt lat="36.99106231206427" lon="15.190280765461694"><ele>55.0</ele><time>2026-04-12T08:13:40Z</time></trkpt><trkpt lat="36.99088535235203" lon="15.190295594597853"><ele>55.0</ele><time>2026-04-12T08:13:41Z</time></trkpt><trkpt lat="36.99070867560488" lon="15.190306414262977"><ele>55.0</ele><time>2026-04-12T08:13:42Z</time></trkpt><trkpt lat="36.99053012978959" lon="15.190320363275593"><ele>54.666666666666664</ele><time>2026-04-12T08:13:43Z</time></trkpt><trkpt lat="36.99035530311171" lon="15.190337204815762"><ele>54.33333333333333</ele><time>2026-04-12T08:13:44Z</time></trkpt><trkpt lat="36.990176141216224" lon="15.19035717799575"><ele>54.0</ele><time>2026-04-12T08:13:45Z</time></trkpt><trkpt lat="36.98999857551764" lon="15.190376633584737"><ele>54.0</ele><time>2026-04-12T08:13:46Z</time></trkpt><trkpt lat="36.98982235357026" lon="15.190394143581058"><ele>54.0</ele><time>2026-04-12T08:13:47Z</time></trkpt><trkpt lat="36.98964745360258" lon="15.190411636634837"><ele>54.0</ele><time>2026-04-12T08:13:48Z</time></trkpt><trkpt lat="36.98947345015828" lon="15.190430023021905"><ele>54.0</ele><time>2026-04-12T08:13:49Z</time></trkpt><trkpt lat="36.98929649925244" lon="15.190448680144987"><ele>54.0</ele><time>2026-04-12T08:13:50Z</time></trkpt><trkpt lat="36.98912428882857" lon="15.190472014320559"><ele>54.0</ele><time>2026-04-12T08:13:51Z</time></trkpt><trkpt lat="36.988945112132306" lon="15.190515399047781"><ele>53.66666666666667</ele><time>2026-04-12T08:13:52Z</time></trkpt><trkpt lat="36.98876260241775" lon="15.19056255191728"><ele>53.333333333333336</ele><time>2026-04-12T08:13:53Z</time></trkpt><trkpt lat="36.988583238181704" lon="15.190608772533821"><ele>53.0</ele><time>2026-04-12T08:13:54Z</time></trkpt><trkpt lat="36.98840275774105" lon="15.190653598048643"><ele>52.333333333333336</ele><time>2026-04-12T08:13:55Z</time></trkpt><trkpt lat="36.988221941612785" lon="15.19070036664479"><ele>51.66666666666667</ele><time>2026-04-12T08:13:56Z</time></trkpt><trkpt lat="36.988040648791674" lon="15.190744044526852"><ele>51.0</ele><time>2026-04-12T08:13:57Z</time></trkpt><trkpt lat="36.98785906970075" lon="15.190789042861764"><ele>51.0</ele><time>2026-04-12T08:13:58Z</time></trkpt><trkpt lat="36.987678183396625" lon="15.190835619964497"><ele>51.0</ele><time>2026-04-12T08:13:59Z</time></trkpt><trkpt lat="36.987497528685616" lon="15.190884995747892"><ele>51.0</ele><time>2026-04-12T08:14:00Z</time></trkpt><trkpt lat="36.987315048305575" lon="15.190934821660349"><ele>51.33333333333333</ele><time>2026-04-12T08:14:01Z</time></trkpt><trkpt lat="36.98713401560275" lon="15.19097940507488"><ele>51.666666666666664</ele><time>2026-04-12T08:14:02Z</time></trkpt><trkpt lat="36.98695517936838" lon="15.19102091609005"><ele>52.0</ele><time>2026-04-12T08:14:03Z</time></trkpt><trkpt lat="36.98677539914274" lon="15.191065026759723"><ele>52.666666666666664</ele><time>2026-04-12T08:14:04Z</time></trkpt><trkpt lat="36.986594803213784" lon="15.191109188188912"><ele>53.33333333333333</ele><time>2026-04-12T08:14:05Z</time></trkpt><trkpt lat="36.98641758941834" lon="15.191154656093806"><ele>54.0</ele><time>2026-04-12T08:14:06Z</time></trkpt><trkpt lat="36.98623877308233" lon="15.19119772835524"><ele>54.0</ele><time>2026-04-12T08:14:07Z</time></trkpt><trkpt lat="36.98606353375918" lon="15.191240168157492"><ele>54.0</ele><time>2026-04-12T08:14:08Z</time></trkpt><trkpt lat="36.985888229209166" lon="15.191286417780375"><ele>54.0</ele><time>2026-04-12T08:14:09Z</time></trkpt><trkpt lat="36.98571242691186" lon="15.191330186992403"><ele>54.33333333333333</ele><time>2026-04-12T08:14:10Z</time></trkpt><trkpt lat="36.985538183770196" lon="15.191374166126806"><ele>54.666666666666664</ele><time>2026-04-12T08:14:11Z</time></trkpt><trkpt lat="36.985362939639714" lon="15.191414394886507"><ele>55.0</ele><time>2026-04-12T08:14:12Z</time></trkpt><trkpt lat="36.985191481828544" lon="15.191453645367648"><ele>55.0</ele><time>2026-04-12T08:14:13Z</time></trkpt><trkpt lat="36.985022390570236" lon="15.191496118237483"><ele>55.0</ele><time>2026-04-12T08:14:14Z</time></trkpt><trkpt lat="36.98485011546272" lon="15.19154214113331"><ele>55.0</ele><time>2026-04-12T08:14:15Z</time></trkpt><trkpt lat="36.98467861598018" lon="15.191589800021443"><ele>54.33333333333333</ele><time>2026-04-12T08:14:16Z</time></trkpt><trkpt lat="36.98451119801969" lon="15.19163199201252"><ele>53.66666666666667</ele><time>2026-04-12T08:14:17Z</time></trkpt><trkpt lat="36.98434496376619" lon="15.191675104032878"><ele>53.0</ele><time>2026-04-12T08:14:18Z</time></trkpt><trkpt lat="36.984179427850776" lon="15.191716303298223"><ele>54.333333333333336</ele><time>2026-04-12T08:14:19Z</time></trkpt><trkpt lat="36.984015757237415" lon="15.19175773967631"><ele>55.66666666666667</ele><time>2026-04-12T08:14:20Z</time></trkpt><trkpt lat="36.983845520574455" lon="15.191799515424705"><ele>57.0</ele><time>2026-04-12T08:14:21Z</time></trkpt><trkpt lat="36.983680564902535" lon="15.191837829901324"><ele>57.0</ele><time>2026-04-12T08:14:22Z</time></trkpt><trkpt lat="36.98351177433657" lon="15.191869738137248"><ele>57.0</ele><time>2026-04-12T08:14:23Z</time></trkpt><trkpt lat="36.98333879587464" lon="15.191885870313808"><ele>57.0</ele><time>2026-04-12T08:14:24Z</time></trkpt><trkpt lat="36.98316873475998" lon="15.191872076629524"><ele>57.66666666666667</ele><time>2026-04-12T08:14:25Z</time></trkpt><trkpt lat="36.98299326141118" lon="15.191839140623658"><ele>58.333333333333336</ele><time>2026-04-12T08:14:26Z</time></trkpt><trkpt lat="36.98281200372621" lon="15.19180510421418"><ele>59.0</ele><time>2026-04-12T08:14:27Z</time></trkpt><trkpt lat="36.98263209551723" lon="15.191775527426016"><ele>58.66666666666667</ele><time>2026-04-12T08:14:28Z</time></trkpt><trkpt lat="36.982452071345925" lon="15.191749575993903"><ele>58.33333333333333</ele><time>2026-04-12T08:14:29Z</time></trkpt><trkpt lat="36.98227401695929" lon="15.191722703789857"><ele>58.0</ele><time>2026-04-12T08:14:30Z</time></trkpt><trkpt lat="36.98209579522636" lon="15.191694980946028"><ele>58.0</ele><time>2026-04-12T08:14:31Z</time></trkpt><trkpt lat="36.98192242472966" lon="15.191667038369722"><ele>58.0</ele><time>2026-04-12T08:14:32Z</time></trkpt><trkpt lat="36.98175037083325" lon="15.191637996442847"><ele>58.0</ele><time>2026-04-12T08:14:33Z</time></trkpt><trkpt lat="36.98157902506948" lon="15.191608719668455"><ele>58.0</ele><time>2026-04-12T08:14:34Z</time></trkpt><trkpt lat="36.9814083276932" lon="15.19158248348371"><ele>58.0</ele><time>2026-04-12T08:14:35Z</time></trkpt><trkpt lat="36.981239630151805" lon="15.191556662253316"><ele>58.0</ele><time>2026-04-12T08:14:36Z</time></trkpt><trkpt lat="36.981075095985" lon="15.191531277545291"><ele>57.666666666666664</ele><time>2026-04-12T08:14:37Z</time></trkpt><trkpt lat="36.980913062489726" lon="15.191504962341336"><ele>57.33333333333333</ele><time>2026-04-12T08:14:38Z</time></trkpt><trkpt lat="36.98075343623104" lon="15.191474497974813"><ele>57.0</ele><time>2026-04-12T08:14:39Z</time></trkpt><trkpt lat="36.98059613512222" lon="15.19144279590108"><ele>57.66666666666667</ele><time>2026-04-12T08:14:40Z</time></trkpt><trkpt lat="36.980425458651034" lon="15.191425768239283"><ele>58.333333333333336</ele><time>2026-04-12T08:14:41Z</time></trkpt><trkpt lat="36.98026928614725" lon="15.191400251211284"><ele>59.0</ele><time>2026-04-12T08:14:42Z</time></trkpt><trkpt lat="36.98011316366039" lon="15.191371752200165"><ele>59.333333333333336</ele><time>2026-04-12T08:14:43Z</time></trkpt><trkpt lat="36.97995861738555" lon="15.191346315390378"><ele>59.66666666666667</ele><time>2026-04-12T08:14:44Z</time></trkpt><trkpt lat="36.97980658329974" lon="15.191318568710875"><ele>60.0</ele><time>2026-04-12T08:14:45Z</time></trkpt><trkpt lat="36.97965710100066" lon="15.191295036192965"><ele>60.0</ele><time>2026-04-12T08:14:46Z</time></trkpt><trkpt lat="36.9795105700665" lon="15.191272513667737"><ele>60.0</ele><time>2026-04-12T08:14:47Z</time></trkpt><trkpt lat="36.97936457627265" lon="15.191252988679832"><ele>60.0</ele><time>2026-04-12T08:14:48Z</time></trkpt><trkpt lat="36.97921690550491" lon="15.191232834580477"><ele>60.0</ele><time>2026-04-12T08:14:49Z</time></trkpt><trkpt lat="36.97906980880554" lon="15.191213489810439"><ele>60.66666666666667</ele><time>2026-04-12T08:14:50Z</time></trkpt><trkpt lat="36.978919220504245" lon="15.191190999368022"><ele>61.333333333333336</ele><time>2026-04-12T08:14:51Z</time></trkpt><trkpt lat="36.978768298403686" lon="15.191163001876355"><ele>62.0</ele><time>2026-04-12T08:14:52Z</time></trkpt><trkpt lat="36.978617652339636" lon="15.191139372758018"><ele>62.0</ele><time>2026-04-12T08:14:53Z</time></trkpt><trkpt lat="36.978465474953126" lon="15.191117207539055"><ele>62.0</ele><time>2026-04-12T08:14:54Z</time></trkpt><trkpt lat="36.9783137927078" lon="15.19109721082932"><ele>62.0</ele><time>2026-04-12T08:14:55Z</time></trkpt><trkpt lat="36.9781600041584" lon="15.191078700115554"><ele>62.333333333333336</ele><time>2026-04-12T08:14:56Z</time></trkpt><trkpt lat="36.97800949091667" lon="15.191052519830057"><ele>62.66666666666667</ele><time>2026-04-12T08:14:57Z</time></trkpt><trkpt lat="36.97785869876783" lon="15.191022269273015"><ele>63.0</ele><time>2026-04-12T08:14:58Z</time></trkpt><trkpt lat="36.97771077433503" lon="15.190998944126031"><ele>63.0</ele><time>2026-04-12T08:14:59Z</time></trkpt><trkpt lat="36.9775660186606" lon="15.190979735753777"><ele>63.0</ele><time>2026-04-12T08:15:00Z</time></trkpt><trkpt lat="36.97742380415764" lon="15.190970844395272"><ele>63.0</ele><time>2026-04-12T08:15:01Z</time></trkpt><trkpt lat="36.97726808421799" lon="15.190977741691597"><ele>63.0</ele><time>2026-04-12T08:15:02Z</time></trkpt><trkpt lat="36.977098177106555" lon="15.190952679681011"><ele>62.66666666666667</ele><time>2026-04-12T08:15:03Z</time></trkpt><trkpt lat="36.97691780492051" lon="15.190946543991567"><ele>62.333333333333336</ele><time>2026-04-12T08:15:04Z</time></trkpt><trkpt lat="36.976748822079145" lon="15.190941835853758"><ele>62.0</ele><time>2026-04-12T08:15:05Z</time></trkpt><trkpt lat="36.97658889960656" lon="15.190945438549484"><ele>61.333333333333336</ele><time>2026-04-12T08:15:06Z</time></trkpt><trkpt lat="36.97643590238549" lon="15.190929477084696"><ele>60.66666666666667</ele><time>2026-04-12T08:15:07Z</time></trkpt><trkpt lat="36.97628527263035" lon="15.190917315514962"><ele>60.0</ele><time>2026-04-12T08:15:08Z</time></trkpt><trkpt lat="36.976138072047064" lon="15.190895673101002"><ele>60.0</ele><time>2026-04-12T08:15:09Z</time></trkpt><trkpt lat="36.97600203330877" lon="15.19085856625486"><ele>60.0</ele><time>2026-04-12T08:15:10Z</time></trkpt><trkpt lat="36.97586959126155" lon="15.190807611948278"><ele>60.0</ele><time>2026-04-12T08:15:11Z</time></trkpt><trkpt lat="36.97574742280406" lon="15.190724615569257"><ele>60.0</ele><time>2026-04-12T08:15:12Z</time></trkpt><trkpt lat="36.975640727371676" lon="15.19062543724367"><ele>60.0</ele><time>2026-04-12T08:15:13Z</time></trkpt><trkpt lat="36.975545347722054" lon="15.190516454954562"><ele>60.0</ele><time>2026-04-12T08:15:14Z</time></trkpt><trkpt lat="36.97546129862239" lon="15.190404830264303"><ele>60.0</ele><time>2026-04-12T08:15:15Z</time></trkpt><trkpt lat="36.975380264037305" lon="15.190297392921165"><ele>60.0</ele><time>2026-04-12T08:15:16Z</time></trkpt><trkpt lat="36.97530241964746" lon="15.190196132392652"><ele>60.0</ele><time>2026-04-12T08:15:17Z</time></trkpt><trkpt lat="36.97522335684864" lon="15.190102152852429"><ele>60.0</ele><time>2026-04-12T08:15:18Z</time></trkpt><trkpt lat="36.975143733889674" lon="15.190013241421049"><ele>60.0</ele><time>2026-04-12T08:15:19Z</time></trkpt><trkpt lat="36.97506231451936" lon="15.189926116011454"><ele>60.0</ele><time>2026-04-12T08:15:20Z</time></trkpt><trkpt lat="36.9749786951381" lon="15.189841163318828"><ele>60.0</ele><time>2026-04-12T08:15:21Z</time></trkpt><trkpt lat="36.9748857817364" lon="15.189758928164428"><ele>59.0</ele><time>2026-04-12T08:15:22Z</time></trkpt><trkpt lat="36.97477478781205" lon="15.189682067125245"><ele>58.0</ele><time>2026-04-12T08:15:23Z</time></trkpt><trkpt lat="36.974662634523206" lon="15.189620143773983"><ele>57.0</ele><time>2026-04-12T08:15:24Z</time></trkpt><trkpt lat="36.974557479220444" lon="15.189567520170405"><ele>56.0</ele><time>2026-04-12T08:15:25Z</time></trkpt><trkpt lat="36.97445376009665" lon="15.189520011374988"><ele>56.0</ele><time>2026-04-12T08:15:26Z</time></trkpt><trkpt lat="36.9743445995964" lon="15.189476989867238"><ele>56.0</ele><time>2026-04-12T08:15:27Z</time></trkpt><trkpt lat="36.97422775550306" lon="15.189437265769714"><ele>56.0</ele><time>2026-04-12T08:15:28Z</time></trkpt><trkpt lat="36.97410583089707" lon="15.18940235774428"><ele>56.0</ele><time>2026-04-12T08:15:29Z</time></trkpt><trkpt lat="36.97398453054741" lon="15.189369522405329"><ele>56.0</ele><time>2026-04-12T08:15:30Z</time></trkpt><trkpt lat="36.973863857528876" lon="15.189349709883993"><ele>56.0</ele><time>2026-04-12T08:15:31Z</time></trkpt><trkpt lat="36.97374448845634" lon="15.189335790116349"><ele>56.0</ele><time>2026-04-12T08:15:32Z</time></trkpt><trkpt lat="36.97363355075213" lon="15.189321251579786"><ele>56.0</ele><time>2026-04-12T08:15:33Z</time></trkpt><trkpt lat="36.97353261478284" lon="15.189317465062347"><ele>56.00000000000001</ele><time>2026-04-12T08:15:34Z</time></trkpt><trkpt lat="36.973442907416505" lon="15.189329845207938"><ele>56.0</ele><time>2026-04-12T08:15:35Z</time></trkpt><trkpt lat="36.97335721472667" lon="15.189354547927042"><ele>56.0</ele><time>2026-04-12T08:15:36Z</time></trkpt><trkpt lat="36.97327934760865" lon="15.189401861053405"><ele>56.0</ele><time>2026-04-12T08:15:37Z</time></trkpt><trkpt lat="36.97321174336419" lon="15.18946807721287"><ele>56.00000000000001</ele><time>2026-04-12T08:15:38Z</time></trkpt><trkpt lat="36.97314909978541" lon="15.18954263439924"><ele>56.0</ele><time>2026-04-12T08:15:39Z</time></trkpt><trkpt lat="36.97309427403674" lon="15.189621391418804"><ele>55.833333333333336</ele><time>2026-04-12T08:15:40Z</time></trkpt><trkpt lat="36.97303520876899" lon="15.189697597926534"><ele>55.66666666666667</ele><time>2026-04-12T08:15:41Z</time></trkpt><trkpt lat="36.972973271142514" lon="15.189767146535436"><ele>55.5</ele><time>2026-04-12T08:15:42Z</time></trkpt><trkpt lat="36.972912112122195" lon="15.189833023208044"><ele>55.33333333333333</ele><time>2026-04-12T08:15:43Z</time></trkpt><trkpt lat="36.97286109978319" lon="15.189905649030916"><ele>55.166666666666664</ele><time>2026-04-12T08:15:44Z</time></trkpt><trkpt lat="36.97277423698835" lon="15.189993009084189"><ele>55.0</ele><time>2026-04-12T08:15:46Z</time></trkpt><trkpt lat="36.97272900456587" lon="15.190058593507601"><ele>54.99999999999999</ele><time>2026-04-12T08:15:49Z</time></trkpt><trkpt lat="36.972662537572376" lon="15.190126111315845"><ele>55.0</ele><time>2026-04-12T08:17:15Z</time></trkpt><trkpt lat="36.97261441980019" lon="15.190182895225227"><ele>55.0</ele><time>2026-04-12T08:17:16Z</time></trkpt><trkpt lat="36.97257278221122" lon="15.190267050438932"><ele>55.0</ele><time>2026-04-12T08:17:17Z</time></trkpt><trkpt lat="36.97248980850701" lon="15.190349461131817"><ele>54.99999999999999</ele><time>2026-04-12T08:17:18Z</time></trkpt><trkpt lat="36.97242778117762" lon="15.190437817735475"><ele>55.0</ele><time>2026-04-12T08:17:19Z</time></trkpt><trkpt lat="36.9723658399152" lon="15.190529966586992"><ele>54.6</ele><time>2026-04-12T08:17:20Z</time></trkpt><trkpt lat="36.97230141836663" lon="15.190621303815396"><ele>54.2</ele><time>2026-04-12T08:17:21Z</time></trkpt><trkpt lat="36.972232328745804" lon="15.190712811417054"><ele>53.8</ele><time>2026-04-12T08:17:22Z</time></trkpt><trkpt lat="36.97216015518897" lon="15.190806833737055"><ele>53.4</ele><time>2026-04-12T08:17:23Z</time></trkpt><trkpt lat="36.97208882876833" lon="15.190895777370567"><ele>53.0</ele><time>2026-04-12T08:17:24Z</time></trkpt><trkpt lat="36.97202364921748" lon="15.190983712831226"><ele>53.0</ele><time>2026-04-12T08:17:25Z</time></trkpt><trkpt lat="36.97196028993299" lon="15.191068969060929"><ele>53.0</ele><time>2026-04-12T08:17:26Z</time></trkpt><trkpt lat="36.971898072685185" lon="15.19114905778947"><ele>53.0</ele><time>2026-04-12T08:17:27Z</time></trkpt><trkpt lat="36.971831638395116" lon="15.191224652726659"><ele>53.0</ele><time>2026-04-12T08:17:28Z</time></trkpt><trkpt lat="36.97175016273909" lon="15.19127922766862"><ele>53.0</ele><time>2026-04-12T08:17:29Z</time></trkpt><trkpt lat="36.971660192265844" lon="15.191315319204923"><ele>52.599999999999994</ele><time>2026-04-12T08:17:30Z</time></trkpt><trkpt lat="36.97156709767903" lon="15.191320793700578"><ele>52.199999999999996</ele><time>2026-04-12T08:17:31Z</time></trkpt><trkpt lat="36.971478924675814" lon="15.191300167239675"><ele>51.8</ele><time>2026-04-12T08:17:32Z</time></trkpt><trkpt lat="36.97139065792578" lon="15.19125950356592"><ele>51.4</ele><time>2026-04-12T08:17:33Z</time></trkpt><trkpt lat="36.97130617224753" lon="15.191205559341633"><ele>51.0</ele><time>2026-04-12T08:17:34Z</time></trkpt><trkpt lat="36.97123024616488" lon="15.191152677408516"><ele>51.0</ele><time>2026-04-12T08:17:35Z</time></trkpt><trkpt lat="36.97115636510108" lon="15.191096211920252"><ele>51.0</ele><time>2026-04-12T08:17:36Z</time></trkpt><trkpt lat="36.97106942428748" lon="15.191027261701258"><ele>51.0</ele><time>2026-04-12T08:17:37Z</time></trkpt><trkpt lat="36.970974272399125" lon="15.190932825106737"><ele>51.0</ele><time>2026-04-12T08:17:38Z</time></trkpt><trkpt lat="36.97087813481558" lon="15.190797765021612"><ele>50.75</ele><time>2026-04-12T08:17:39Z</time></trkpt><trkpt lat="36.970775405139705" lon="15.19067555283034"><ele>50.5</ele><time>2026-04-12T08:17:40Z</time></trkpt><trkpt lat="36.97066616398055" lon="15.190545774355481"><ele>50.25</ele><time>2026-04-12T08:17:41Z</time></trkpt><trkpt lat="36.970542358411" lon="15.190429561109125"><ele>50.0</ele><time>2026-04-12T08:17:42Z</time></trkpt><trkpt lat="36.97043068315615" lon="15.190271298100763"><ele>49.333333333333336</ele><time>2026-04-12T08:17:43Z</time></trkpt><trkpt lat="36.97030318820503" lon="15.190123473830045"><ele>48.66666666666667</ele><time>2026-04-12T08:17:44Z</time></trkpt><trkpt lat="36.97017909463277" lon="15.189981121727834"><ele>48.0</ele><time>2026-04-12T08:17:45Z</time></trkpt><trkpt lat="36.97005323842188" lon="15.18985961543351"><ele>49.66666666666667</ele><time>2026-04-12T08:17:46Z</time></trkpt><trkpt lat="36.969942230353475" lon="15.189738960102408"><ele>51.333333333333336</ele><time>2026-04-12T08:17:47Z</time></trkpt><trkpt lat="36.96982563321034" lon="15.18961812443603"><ele>53.0</ele><time>2026-04-12T08:17:48Z</time></trkpt><trkpt lat="36.969672690370444" lon="15.189568913324008"><ele>53.0</ele><time>2026-04-12T08:17:49Z</time></trkpt><trkpt lat="36.969509032267986" lon="15.189540088430114"><ele>53.0</ele><time>2026-04-12T08:17:50Z</time></trkpt><trkpt lat="36.96932825374608" lon="15.189543323118736"><ele>53.0</ele><time>2026-04-12T08:17:51Z</time></trkpt><trkpt lat="36.96914386553846" lon="15.189558372463749"><ele>51.66666666666667</ele><time>2026-04-12T08:17:52Z</time></trkpt><trkpt lat="36.968961338789484" lon="15.189568210617626"><ele>50.33333333333333</ele><time>2026-04-12T08:17:53Z</time></trkpt><trkpt lat="36.968770146259885" lon="15.189574258598828"><ele>49.0</ele><time>2026-04-12T08:17:54Z</time></trkpt><trkpt lat="36.96857039530563" lon="15.189583969297713"><ele>49.0</ele><time>2026-04-12T08:17:55Z</time></trkpt><trkpt lat="36.96837175019368" lon="15.189591536786823"><ele>49.0</ele><time>2026-04-12T08:17:56Z</time></trkpt><trkpt lat="36.9681649832466" lon="15.189595897110454"><ele>49.0</ele><time>2026-04-12T08:17:57Z</time></trkpt><trkpt lat="36.967950535524665" lon="15.1896023395366"><ele>49.5</ele><time>2026-04-12T08:17:58Z</time></trkpt><trkpt lat="36.967722317866034" lon="15.189616007906356"><ele>50.0</ele><time>2026-04-12T08:17:59Z</time></trkpt><trkpt lat="36.96749215583265" lon="15.18962895610524"><ele>48.5</ele><time>2026-04-12T08:18:00Z</time></trkpt><trkpt lat="36.96725924792422" lon="15.189641734684454"><ele>47.0</ele><time>2026-04-12T08:18:01Z</time></trkpt><trkpt lat="36.967022925492046" lon="15.189651822608578"><ele>47.0</ele><time>2026-04-12T08:18:02Z</time></trkpt><trkpt lat="36.96678799329159" lon="15.189660034671517"><ele>47.0</ele><time>2026-04-12T08:18:03Z</time></trkpt><trkpt lat="36.96655300093604" lon="15.18967331389204"><ele>45.0</ele><time>2026-04-12T08:18:04Z</time></trkpt><trkpt lat="36.96631763589842" lon="15.189686838508019"><ele>43.0</ele><time>2026-04-12T08:18:05Z</time></trkpt><trkpt lat="36.966083067841126" lon="15.189701602364677"><ele>42.5</ele><time>2026-04-12T08:18:06Z</time></trkpt><trkpt lat="36.96584552794261" lon="15.189718333326496"><ele>42.0</ele><time>2026-04-12T08:18:07Z</time></trkpt><trkpt lat="36.96560356853112" lon="15.189730889978858"><ele>42.0</ele><time>2026-04-12T08:18:08Z</time></trkpt><trkpt lat="36.96535715974361" lon="15.18974185881571"><ele>42.0</ele><time>2026-04-12T08:18:09Z</time></trkpt><trkpt lat="36.96511003384376" lon="15.189750193811808"><ele>40.5</ele><time>2026-04-12T08:18:10Z</time></trkpt><trkpt lat="36.96486052581692" lon="15.18976433003633"><ele>39.0</ele><time>2026-04-12T08:18:11Z</time></trkpt><trkpt lat="36.96461120272443" lon="15.189776792162105"><ele>39.0</ele><time>2026-04-12T08:18:12Z</time></trkpt><trkpt lat="36.96436253760377" lon="15.189788274949644"><ele>39.0</ele><time>2026-04-12T08:18:13Z</time></trkpt><trkpt lat="36.96411401579552" lon="15.189798121804955"><ele>38.0</ele><time>2026-04-12T08:18:14Z</time></trkpt><trkpt lat="36.96386207738592" lon="15.18980964764907"><ele>37.0</ele><time>2026-04-12T08:18:15Z</time></trkpt><trkpt lat="36.963605987154075" lon="15.189823973187275"><ele>37.5</ele><time>2026-04-12T08:18:16Z</time></trkpt><trkpt lat="36.963342631256985" lon="15.189837532549129"><ele>38.0</ele><time>2026-04-12T08:18:17Z</time></trkpt><trkpt lat="36.963078191750974" lon="15.18984777415501"><ele>36.0</ele><time>2026-04-12T08:18:18Z</time></trkpt><trkpt lat="36.962817442104" lon="15.189856607785009"><ele>34.0</ele><time>2026-04-12T08:18:19Z</time></trkpt><trkpt lat="36.96255853245455" lon="15.189866763254043"><ele>33.0</ele><time>2026-04-12T08:18:20Z</time></trkpt><trkpt lat="36.96230466519135" lon="15.189878020589171"><ele>32.0</ele><time>2026-04-12T08:18:21Z</time></trkpt><trkpt lat="36.962052739288346" lon="15.189890884224328"><ele>32.0</ele><time>2026-04-12T08:18:22Z</time></trkpt><trkpt lat="36.961803780654456" lon="15.189905203598844"><ele>32.0</ele><time>2026-04-12T08:18:23Z</time></trkpt><trkpt lat="36.96155932848586" lon="15.189919476590202"><ele>31.0</ele><time>2026-04-12T08:18:24Z</time></trkpt><trkpt lat="36.96131646156197" lon="15.189932996958849"><ele>30.0</ele><time>2026-04-12T08:18:25Z</time></trkpt><trkpt lat="36.961076826449386" lon="15.189942133452874"><ele>30.0</ele><time>2026-04-12T08:18:26Z</time></trkpt><trkpt lat="36.960843574872364" lon="15.189951138974973"><ele>30.0</ele><time>2026-04-12T08:18:27Z</time></trkpt><trkpt lat="36.96060642427164" lon="15.18996280661441"><ele>30.0</ele><time>2026-04-12T08:18:28Z</time></trkpt><trkpt lat="36.96035762020135" lon="15.189969764753837"><ele>30.0</ele><time>2026-04-12T08:18:29Z</time></trkpt><trkpt lat="36.96010319043225" lon="15.189980261162992"><ele>30.0</ele><time>2026-04-12T08:18:30Z</time></trkpt><trkpt lat="36.95984010338206" lon="15.189996908425009"><ele>30.0</ele><time>2026-04-12T08:18:31Z</time></trkpt><trkpt lat="36.95957592883856" lon="15.190012963816276"><ele>30.0</ele><time>2026-04-12T08:18:32Z</time></trkpt><trkpt lat="36.95930910866146" lon="15.190027906895937"><ele>30.0</ele><time>2026-04-12T08:18:33Z</time></trkpt><trkpt lat="36.95904344838801" lon="15.190036713975141"><ele>29.0</ele><time>2026-04-12T08:18:34Z</time></trkpt><trkpt lat="36.95877801248828" lon="15.190050215584542"><ele>28.0</ele><time>2026-04-12T08:18:35Z</time></trkpt><trkpt lat="36.958510273180316" lon="15.19006206438595"><ele>26.5</ele><time>2026-04-12T08:18:36Z</time></trkpt><trkpt lat="36.95824358070032" lon="15.190076716986884"><ele>25.0</ele><time>2026-04-12T08:18:37Z</time></trkpt><trkpt lat="36.95798344516188" lon="15.190093915241553"><ele>25.0</ele><time>2026-04-12T08:18:38Z</time></trkpt><trkpt lat="36.95772184652369" lon="15.19010811710111"><ele>25.0</ele><time>2026-04-12T08:18:39Z</time></trkpt><trkpt lat="36.95746239467204" lon="15.190119586693399"><ele>24.5</ele><time>2026-04-12T08:18:40Z</time></trkpt><trkpt lat="36.95720346885635" lon="15.190131123247085"><ele>24.0</ele><time>2026-04-12T08:18:41Z</time></trkpt><trkpt lat="36.95694851599318" lon="15.190140955344775"><ele>24.0</ele><time>2026-04-12T08:18:42Z</time></trkpt><trkpt lat="36.95669503129915" lon="15.190153589231723"><ele>24.0</ele><time>2026-04-12T08:18:43Z</time></trkpt><trkpt lat="36.95644495991791" lon="15.190164825477526"><ele>24.0</ele><time>2026-04-12T08:18:44Z</time></trkpt><trkpt lat="36.95619677476611" lon="15.190176584401824"><ele>24.0</ele><time>2026-04-12T08:18:45Z</time></trkpt><trkpt lat="36.95594928172214" lon="15.190187587780908"><ele>23.5</ele><time>2026-04-12T08:18:46Z</time></trkpt><trkpt lat="36.95570351871528" lon="15.190198811285788"><ele>23.0</ele><time>2026-04-12T08:18:47Z</time></trkpt><trkpt lat="36.95546051106882" lon="15.190210623567822"><ele>23.0</ele><time>2026-04-12T08:18:48Z</time></trkpt><trkpt lat="36.955219739217895" lon="15.190222765038317"><ele>23.0</ele><time>2026-04-12T08:18:49Z</time></trkpt><trkpt lat="36.954979219585624" lon="15.190233892686205"><ele>23.5</ele><time>2026-04-12T08:18:50Z</time></trkpt><trkpt lat="36.95473615696845" lon="15.19024724174079"><ele>24.0</ele><time>2026-04-12T08:18:51Z</time></trkpt><trkpt lat="36.95449400268754" lon="15.190258990090472"><ele>24.0</ele><time>2026-04-12T08:18:52Z</time></trkpt><trkpt lat="36.954256740373225" lon="15.190270134858341"><ele>24.0</ele><time>2026-04-12T08:18:53Z</time></trkpt><trkpt lat="36.95402459102981" lon="15.19027835943118"><ele>23.333333333333332</ele><time>2026-04-12T08:18:54Z</time></trkpt><trkpt lat="36.953803396567714" lon="15.190287546622423"><ele>22.666666666666664</ele><time>2026-04-12T08:18:55Z</time></trkpt><trkpt lat="36.95358618803407" lon="15.190300273531655"><ele>22.0</ele><time>2026-04-12T08:18:56Z</time></trkpt><trkpt lat="36.953379364633825" lon="15.19031264100411"><ele>21.333333333333332</ele><time>2026-04-12T08:18:57Z</time></trkpt><trkpt lat="36.95318204120151" lon="15.19032266123285"><ele>20.666666666666668</ele><time>2026-04-12T08:18:58Z</time></trkpt><trkpt lat="36.95299418088579" lon="15.190334473097144"><ele>20.0</ele><time>2026-04-12T08:18:59Z</time></trkpt><trkpt lat="36.95282170500427" lon="15.190345730511039"><ele>20.0</ele><time>2026-04-12T08:19:00Z</time></trkpt><trkpt lat="36.95266795376291" lon="15.190353099804057"><ele>20.0</ele><time>2026-04-12T08:19:01Z</time></trkpt><trkpt lat="36.95252728462452" lon="15.190348102739033"><ele>20.0</ele><time>2026-04-12T08:19:02Z</time></trkpt><trkpt lat="36.952416305003624" lon="15.190320295181726"><ele>20.0</ele><time>2026-04-12T08:19:03Z</time></trkpt><trkpt lat="36.95231402124529" lon="15.190271776469414"><ele>20.0</ele><time>2026-04-12T08:19:04Z</time></trkpt><trkpt lat="36.95220961968414" lon="15.19023500568945"><ele>20.0</ele><time>2026-04-12T08:19:05Z</time></trkpt><trkpt lat="36.952114175147855" lon="15.190246200536198"><ele>20.0</ele><time>2026-04-12T08:19:06Z</time></trkpt><trkpt lat="36.95202438330093" lon="15.1903087410188"><ele>20.0</ele><time>2026-04-12T08:19:07Z</time></trkpt><trkpt lat="36.951915381796375" lon="15.190365805087165"><ele>20.0</ele><time>2026-04-12T08:19:08Z</time></trkpt><trkpt lat="36.95177608814207" lon="15.190394109921671"><ele>19.333333333333336</ele><time>2026-04-12T08:19:09Z</time></trkpt><trkpt lat="36.95160441387707" lon="15.190403130346573"><ele>18.666666666666668</ele><time>2026-04-12T08:19:10Z</time></trkpt><trkpt lat="36.95143329010523" lon="15.190407459398838"><ele>18.0</ele><time>2026-04-12T08:19:11Z</time></trkpt><trkpt lat="36.951246303947215" lon="15.190408944416737"><ele>18.0</ele><time>2026-04-12T08:19:12Z</time></trkpt><trkpt lat="36.95104886076413" lon="15.190378091880007"><ele>18.0</ele><time>2026-04-12T08:19:13Z</time></trkpt><trkpt lat="36.95085361721481" lon="15.190313449451494"><ele>18.0</ele><time>2026-04-12T08:19:14Z</time></trkpt><trkpt lat="36.950665005770674" lon="15.190222776094673"><ele>16.666666666666668</ele><time>2026-04-12T08:19:15Z</time></trkpt><trkpt lat="36.95048352588701" lon="15.19009288213996"><ele>15.333333333333334</ele><time>2026-04-12T08:19:16Z</time></trkpt><trkpt lat="36.95031255330962" lon="15.189923098635607"><ele>14.0</ele><time>2026-04-12T08:19:17Z</time></trkpt><trkpt lat="36.95015880521655" lon="15.189719050713707"><ele>11.5</ele><time>2026-04-12T08:19:18Z</time></trkpt><trkpt lat="36.9500180762292" lon="15.189479254185185"><ele>9.0</ele><time>2026-04-12T08:19:19Z</time></trkpt><trkpt lat="36.94988464182427" lon="15.189223644769811"><ele>7.0</ele><time>2026-04-12T08:19:20Z</time></trkpt><trkpt lat="36.949735673716354" lon="15.188959632969903"><ele>5.0</ele><time>2026-04-12T08:19:21Z</time></trkpt><trkpt lat="36.949575140918505" lon="15.188680572068032"><ele>5.0</ele><time>2026-04-12T08:19:22Z</time></trkpt><trkpt lat="36.94940490800763" lon="15.188389624280273"><ele>5.0</ele><time>2026-04-12T08:19:23Z</time></trkpt><trkpt lat="36.949251117188325" lon="15.188120244690245"><ele>5.0</ele><time>2026-04-12T08:19:24Z</time></trkpt><trkpt lat="36.94910370484348" lon="15.187856078209718"><ele>5.0</ele><time>2026-04-12T08:19:25Z</time></trkpt><trkpt lat="36.94896782098625" lon="15.187601384558432"><ele>5.0</ele><time>2026-04-12T08:19:26Z</time></trkpt><trkpt lat="36.94883615450897" lon="15.18735244852171"><ele>5.0</ele><time>2026-04-12T08:19:27Z</time></trkpt><trkpt lat="36.948705665463116" lon="15.187109023703272"><ele>5.5</ele><time>2026-04-12T08:19:28Z</time></trkpt><trkpt lat="36.94857758852568" lon="15.186871722901824"><ele>6.0</ele><time>2026-04-12T08:19:29Z</time></trkpt><trkpt lat="36.948455305020865" lon="15.186626606400107"><ele>6.0</ele><time>2026-04-12T08:19:30Z</time></trkpt><trkpt lat="36.94834307543612" lon="15.186370243902267"><ele>6.0</ele><time>2026-04-12T08:19:31Z</time></trkpt><trkpt lat="36.948232577309575" lon="15.18611170820732"><ele>6.0</ele><time>2026-04-12T08:19:32Z</time></trkpt><trkpt lat="36.948122687517106" lon="15.185850210093154"><ele>6.0</ele><time>2026-04-12T08:19:33Z</time></trkpt><trkpt lat="36.948015807891395" lon="15.185581798703328"><ele>6.0</ele><time>2026-04-12T08:19:34Z</time></trkpt><trkpt lat="36.94790934228294" lon="15.185300514440694"><ele>6.0</ele><time>2026-04-12T08:19:35Z</time></trkpt><trkpt lat="36.94781146107465" lon="15.185005577146436"><ele>6.5</ele><time>2026-04-12T08:19:36Z</time></trkpt><trkpt lat="36.947720911256994" lon="15.184699820535357"><ele>7.0</ele><time>2026-04-12T08:19:37Z</time></trkpt><trkpt lat="36.94763494192963" lon="15.1843932370082"><ele>7.0</ele><time>2026-04-12T08:19:38Z</time></trkpt><trkpt lat="36.94755212033064" lon="15.184089121634841"><ele>7.0</ele><time>2026-04-12T08:19:39Z</time></trkpt><trkpt lat="36.94747428565246" lon="15.18378942791409"><ele>9.5</ele><time>2026-04-12T08:19:40Z</time></trkpt><trkpt lat="36.94739659999451" lon="15.183490355795096"><ele>12.0</ele><time>2026-04-12T08:19:41Z</time></trkpt><trkpt lat="36.94731948893963" lon="15.183200646847217"><ele>13.5</ele><time>2026-04-12T08:19:42Z</time></trkpt><trkpt lat="36.947238017732055" lon="15.182910997450595"><ele>15.0</ele><time>2026-04-12T08:19:43Z</time></trkpt><trkpt lat="36.94715704138064" lon="15.182624901077505"><ele>17.0</ele><time>2026-04-12T08:19:44Z</time></trkpt><trkpt lat="36.94707833678217" lon="15.1823382727821"><ele>19.0</ele><time>2026-04-12T08:19:45Z</time></trkpt><trkpt lat="36.946999012082514" lon="15.182048237710845"><ele>19.0</ele><time>2026-04-12T08:19:46Z</time></trkpt><trkpt lat="36.94691467792016" lon="15.181758045609984"><ele>19.0</ele><time>2026-04-12T08:19:47Z</time></trkpt><trkpt lat="36.94682440751608" lon="15.181466940728102"><ele>21.0</ele><time>2026-04-12T08:19:48Z</time></trkpt><trkpt lat="36.94672259506083" lon="15.181179211728447"><ele>23.0</ele><time>2026-04-12T08:19:49Z</time></trkpt><trkpt lat="36.946607909966346" lon="15.18089495200123"><ele>24.5</ele><time>2026-04-12T08:19:50Z</time></trkpt><trkpt lat="36.946480544411244" lon="15.180610308382777"><ele>26.0</ele><time>2026-04-12T08:19:51Z</time></trkpt><trkpt lat="36.946344445149784" lon="15.180326720278652"><ele>26.0</ele><time>2026-04-12T08:19:52Z</time></trkpt><trkpt lat="36.946196920173854" lon="15.180042259957116"><ele>26.0</ele><time>2026-04-12T08:19:53Z</time></trkpt><trkpt lat="36.946038181912336" lon="15.179765149960746"><ele>25.5</ele><time>2026-04-12T08:19:54Z</time></trkpt><trkpt lat="36.94587499247404" lon="15.179495101096661"><ele>25.0</ele><time>2026-04-12T08:19:55Z</time></trkpt><trkpt lat="36.94569964561775" lon="15.179237553079926"><ele>26.5</ele><time>2026-04-12T08:19:56Z</time></trkpt><trkpt lat="36.94551271452888" lon="15.178982003100362"><ele>28.0</ele><time>2026-04-12T08:19:57Z</time></trkpt><trkpt lat="36.94531213660491" lon="15.178726996993456"><ele>28.0</ele><time>2026-04-12T08:19:58Z</time></trkpt><trkpt lat="36.945110593816544" lon="15.178475327397875"><ele>28.0</ele><time>2026-04-12T08:19:59Z</time></trkpt><trkpt lat="36.94491465561188" lon="15.17822435437185"><ele>27.5</ele><time>2026-04-12T08:20:00Z</time></trkpt><trkpt lat="36.9447234187186" lon="15.177975183032427"><ele>27.0</ele><time>2026-04-12T08:20:01Z</time></trkpt><trkpt lat="36.94453229658071" lon="15.177733351033051"><ele>27.0</ele><time>2026-04-12T08:20:02Z</time></trkpt><trkpt lat="36.944346206316354" lon="15.177496701265364"><ele>27.0</ele><time>2026-04-12T08:20:03Z</time></trkpt><trkpt lat="36.944163853965776" lon="15.17726353910472"><ele>26.0</ele><time>2026-04-12T08:20:04Z</time></trkpt><trkpt lat="36.94398331819415" lon="15.177034304807192"><ele>25.0</ele><time>2026-04-12T08:20:05Z</time></trkpt><trkpt lat="36.943807068493136" lon="15.176807143153473"><ele>25.0</ele><time>2026-04-12T08:20:06Z</time></trkpt><trkpt lat="36.943634973021595" lon="15.176583174773652"><ele>25.0</ele><time>2026-04-12T08:20:07Z</time></trkpt><trkpt lat="36.94346438574606" lon="15.176363969249005"><ele>24.5</ele><time>2026-04-12T08:20:08Z</time></trkpt><trkpt lat="36.94329596074851" lon="15.176148191148414"><ele>24.0</ele><time>2026-04-12T08:20:09Z</time></trkpt><trkpt lat="36.94313058773408" lon="15.175935852086287"><ele>24.0</ele><time>2026-04-12T08:20:10Z</time></trkpt><trkpt lat="36.94296798670777" lon="15.175726438954944"><ele>24.0</ele><time>2026-04-12T08:20:11Z</time></trkpt><trkpt lat="36.94280786652811" lon="15.175523798829536"><ele>24.333333333333336</ele><time>2026-04-12T08:20:12Z</time></trkpt><trkpt lat="36.9426449644586" lon="15.175331915814308"><ele>24.666666666666668</ele><time>2026-04-12T08:20:13Z</time></trkpt><trkpt lat="36.94247102233712" lon="15.175160450786224"><ele>25.0</ele><time>2026-04-12T08:20:14Z</time></trkpt><trkpt lat="36.942299609558916" lon="15.174976826306052"><ele>24.5</ele><time>2026-04-12T08:20:15Z</time></trkpt><trkpt lat="36.942119068207305" lon="15.174808786203526"><ele>24.0</ele><time>2026-04-12T08:20:16Z</time></trkpt><trkpt lat="36.94193726233649" lon="15.174640137562088"><ele>24.0</ele><time>2026-04-12T08:20:17Z</time></trkpt><trkpt lat="36.941749075051945" lon="15.174463298303078"><ele>24.0</ele><time>2026-04-12T08:20:18Z</time></trkpt><trkpt lat="36.941554532237035" lon="15.17428537421264"><ele>24.0</ele><time>2026-04-12T08:20:19Z</time></trkpt><trkpt lat="36.941355431963274" lon="15.174103053764807"><ele>24.0</ele><time>2026-04-12T08:20:20Z</time></trkpt><trkpt lat="36.94115420758047" lon="15.173915639728788"><ele>24.0</ele><time>2026-04-12T08:20:21Z</time></trkpt><trkpt lat="36.94095094291199" lon="15.173732701727523"><ele>24.0</ele><time>2026-04-12T08:20:22Z</time></trkpt><trkpt lat="36.940750477970454" lon="15.173557631775703"><ele>24.0</ele><time>2026-04-12T08:20:23Z</time></trkpt><trkpt lat="36.94054684672288" lon="15.173408642377542"><ele>24.0</ele><time>2026-04-12T08:20:24Z</time></trkpt><trkpt lat="36.94036738076817" lon="15.173232456952944"><ele>24.0</ele><time>2026-04-12T08:20:25Z</time></trkpt><trkpt lat="36.940193479854486" lon="15.17308835070047"><ele>24.0</ele><time>2026-04-12T08:20:26Z</time></trkpt><trkpt lat="36.94002753064359" lon="15.172950014318156"><ele>24.0</ele><time>2026-04-12T08:20:27Z</time></trkpt><trkpt lat="36.939868057754325" lon="15.1728170767307"><ele>21.666666666666668</ele><time>2026-04-12T08:20:28Z</time></trkpt><trkpt lat="36.93970942054601" lon="15.172684835641078"><ele>19.333333333333336</ele><time>2026-04-12T08:20:29Z</time></trkpt><trkpt lat="36.939555603684624" lon="15.172556951814915"><ele>17.0</ele><time>2026-04-12T08:20:30Z</time></trkpt><trkpt lat="36.93940442788488" lon="15.172432142128224"><ele>17.0</ele><time>2026-04-12T08:20:31Z</time></trkpt><trkpt lat="36.93925511333277" lon="15.172308916569019"><ele>17.0</ele><time>2026-04-12T08:20:32Z</time></trkpt><trkpt lat="36.93910498520258" lon="15.172190569864323"><ele>17.0</ele><time>2026-04-12T08:20:33Z</time></trkpt><trkpt lat="36.93895101211206" lon="15.17208823592869"><ele>16.333333333333336</ele><time>2026-04-12T08:20:34Z</time></trkpt><trkpt lat="36.93880798995935" lon="15.171973705369346"><ele>15.666666666666668</ele><time>2026-04-12T08:20:35Z</time></trkpt><trkpt lat="36.938669074269434" lon="15.17186717142548"><ele>15.0</ele><time>2026-04-12T08:20:36Z</time></trkpt><trkpt lat="36.938532545207195" lon="15.171767194166534"><ele>15.0</ele><time>2026-04-12T08:20:37Z</time></trkpt><trkpt lat="36.93839843732761" lon="15.17166885333668"><ele>15.0</ele><time>2026-04-12T08:20:38Z</time></trkpt><trkpt lat="36.938265696072754" lon="15.171567057831254"><ele>15.0</ele><time>2026-04-12T08:20:39Z</time></trkpt><trkpt lat="36.93813433309523" lon="15.17146968989513"><ele>16.333333333333332</ele><time>2026-04-12T08:20:40Z</time></trkpt><trkpt lat="36.93800215712475" lon="15.171374890361358"><ele>17.666666666666664</ele><time>2026-04-12T08:20:41Z</time></trkpt><trkpt lat="36.93786996226024" lon="15.171277335090407"><ele>19.0</ele><time>2026-04-12T08:20:42Z</time></trkpt><trkpt lat="36.937734483234394" lon="15.17117801556544"><ele>19.0</ele><time>2026-04-12T08:20:43Z</time></trkpt><trkpt lat="36.93759849105078" lon="15.17107613002121"><ele>19.0</ele><time>2026-04-12T08:20:44Z</time></trkpt><trkpt lat="36.93745714684959" lon="15.170972625272544"><ele>19.0</ele><time>2026-04-12T08:20:45Z</time></trkpt><trkpt lat="36.93731474408223" lon="15.170864059629336"><ele>19.0</ele><time>2026-04-12T08:20:46Z</time></trkpt><trkpt lat="36.93716290824765" lon="15.170755721094178"><ele>19.0</ele><time>2026-04-12T08:20:47Z</time></trkpt><trkpt lat="36.93700801737135" lon="15.170643488702765"><ele>19.0</ele><time>2026-04-12T08:20:48Z</time></trkpt><trkpt lat="36.93684843251824" lon="15.170529643758217"><ele>18.666666666666664</ele><time>2026-04-12T08:20:49Z</time></trkpt><trkpt lat="36.936682893981356" lon="15.170414913652554"><ele>18.333333333333332</ele><time>2026-04-12T08:20:50Z</time></trkpt><trkpt lat="36.936518509518926" lon="15.170299284748022"><ele>18.0</ele><time>2026-04-12T08:20:51Z</time></trkpt><trkpt lat="36.93635726228282" lon="15.170187416808147"><ele>18.0</ele><time>2026-04-12T08:20:52Z</time></trkpt><trkpt lat="36.93620250761881" lon="15.170077772159338"><ele>18.0</ele><time>2026-04-12T08:20:53Z</time></trkpt><trkpt lat="36.93606161491266" lon="15.169951557423413"><ele>18.0</ele><time>2026-04-12T08:20:54Z</time></trkpt><trkpt lat="36.93590916552107" lon="15.169864037385093"><ele>18.666666666666668</ele><time>2026-04-12T08:20:55Z</time></trkpt><trkpt lat="36.93577039345504" lon="15.16976317755865"><ele>19.333333333333336</ele><time>2026-04-12T08:20:56Z</time></trkpt><trkpt lat="36.935637185922076" lon="15.169663155828113"><ele>20.0</ele><time>2026-04-12T08:20:57Z</time></trkpt><trkpt lat="36.93550451713792" lon="15.169562690289599"><ele>20.0</ele><time>2026-04-12T08:20:58Z</time></trkpt><trkpt lat="36.935371275075106" lon="15.16946385467984"><ele>20.0</ele><time>2026-04-12T08:20:59Z</time></trkpt><trkpt lat="36.93523989623878" lon="15.169364714424947"><ele>20.0</ele><time>2026-04-12T08:21:00Z</time></trkpt><trkpt lat="36.935109424080785" lon="15.169267195442044"><ele>20.0</ele><time>2026-04-12T08:21:01Z</time></trkpt><trkpt lat="36.9349768285936" lon="15.16916956360613"><ele>20.0</ele><time>2026-04-12T08:21:02Z</time></trkpt><trkpt lat="36.934839360559224" lon="15.169069018209155"><ele>20.0</ele><time>2026-04-12T08:21:03Z</time></trkpt><trkpt lat="36.93469860130802" lon="15.168966544832799"><ele>20.0</ele><time>2026-04-12T08:21:04Z</time></trkpt><trkpt lat="36.93455716869275" lon="15.16886484066701"><ele>20.0</ele><time>2026-04-12T08:21:05Z</time></trkpt><trkpt lat="36.93442199375192" lon="15.168768077242813"><ele>20.0</ele><time>2026-04-12T08:21:06Z</time></trkpt><trkpt lat="36.93429129360471" lon="15.168672017824367"><ele>19.75</ele><time>2026-04-12T08:21:07Z</time></trkpt><trkpt lat="36.93416420354234" lon="15.168577159896271"><ele>19.5</ele><time>2026-04-12T08:21:08Z</time></trkpt><trkpt lat="36.934042325230564" lon="15.16848488318084"><ele>19.25</ele><time>2026-04-12T08:21:09Z</time></trkpt><trkpt lat="36.933922572515385" lon="15.168394995354806"><ele>19.0</ele><time>2026-04-12T08:21:10Z</time></trkpt><trkpt lat="36.93379683237723" lon="15.168300216935565"><ele>19.0</ele><time>2026-04-12T08:21:11Z</time></trkpt><trkpt lat="36.93366259806273" lon="15.168195778303076"><ele>19.0</ele><time>2026-04-12T08:21:12Z</time></trkpt><trkpt lat="36.93351512715613" lon="15.168090038208591"><ele>19.0</ele><time>2026-04-12T08:21:13Z</time></trkpt><trkpt lat="36.93336379286093" lon="15.167979860944127"><ele>17.666666666666664</ele><time>2026-04-12T08:21:14Z</time></trkpt><trkpt lat="36.933207134012925" lon="15.16786509045319"><ele>16.333333333333332</ele><time>2026-04-12T08:21:15Z</time></trkpt><trkpt lat="36.933046168085326" lon="15.167749555635568"><ele>15.0</ele><time>2026-04-12T08:21:16Z</time></trkpt><trkpt lat="36.93288244880567" lon="15.16763096885684"><ele>15.0</ele><time>2026-04-12T08:21:17Z</time></trkpt><trkpt lat="36.93271661970566" lon="15.167512256939787"><ele>15.0</ele><time>2026-04-12T08:21:18Z</time></trkpt><trkpt lat="36.932551291267764" lon="15.167392350360483"><ele>15.0</ele><time>2026-04-12T08:21:19Z</time></trkpt><trkpt lat="36.93239359346149" lon="15.167277955162778"><ele>15.333333333333332</ele><time>2026-04-12T08:21:20Z</time></trkpt><trkpt lat="36.93224508757849" lon="15.16716832418569"><ele>15.666666666666666</ele><time>2026-04-12T08:21:21Z</time></trkpt><trkpt lat="36.93210126408672" lon="15.167062555871452"><ele>16.0</ele><time>2026-04-12T08:21:22Z</time></trkpt><trkpt lat="36.93196218941517" lon="15.166961073009347"><ele>16.0</ele><time>2026-04-12T08:21:23Z</time></trkpt><trkpt lat="36.931829267690006" lon="15.166865898432349"><ele>16.0</ele><time>2026-04-12T08:21:24Z</time></trkpt><trkpt lat="36.9317077486652" lon="15.16677274689592"><ele>16.0</ele><time>2026-04-12T08:21:25Z</time></trkpt><trkpt lat="36.9315892509084" lon="15.166685610740384"><ele>16.0</ele><time>2026-04-12T08:21:26Z</time></trkpt><trkpt lat="36.93147420191582" lon="15.166602366009476"><ele>16.5</ele><time>2026-04-12T08:21:27Z</time></trkpt><trkpt lat="36.9313612058803" lon="15.166514714707521"><ele>17.0</ele><time>2026-04-12T08:21:28Z</time></trkpt><trkpt lat="36.93125330892832" lon="15.166427000187873"><ele>17.5</ele><time>2026-04-12T08:21:29Z</time></trkpt><trkpt lat="36.93114611579793" lon="15.166335715029184"><ele>18.0</ele><time>2026-04-12T08:21:30Z</time></trkpt><trkpt lat="36.9310364331895" lon="15.166245737434185"><ele>18.0</ele><time>2026-04-12T08:21:31Z</time></trkpt><trkpt lat="36.930923773377046" lon="15.166162230092947"><ele>18.0</ele><time>2026-04-12T08:21:32Z</time></trkpt><trkpt lat="36.930805803167786" lon="15.166075946754942"><ele>18.0</ele><time>2026-04-12T08:21:33Z</time></trkpt><trkpt lat="36.930684965046595" lon="15.16598837999571"><ele>18.0</ele><time>2026-04-12T08:21:34Z</time></trkpt><trkpt lat="36.93056340741357" lon="15.16589599069123"><ele>18.0</ele><time>2026-04-12T08:21:35Z</time></trkpt><trkpt lat="36.930443398702316" lon="15.165800343272206"><ele>18.0</ele><time>2026-04-12T08:21:36Z</time></trkpt><trkpt lat="36.93031709719062" lon="15.165707736760313"><ele>18.0</ele><time>2026-04-12T08:21:37Z</time></trkpt><trkpt lat="36.93018341503308" lon="15.16560768629049"><ele>18.0</ele><time>2026-04-12T08:21:38Z</time></trkpt><trkpt lat="36.93004501264026" lon="15.16550413476702"><ele>19.666666666666668</ele><time>2026-04-12T08:21:39Z</time></trkpt><trkpt lat="36.92990274124967" lon="15.16539666841041"><ele>21.333333333333336</ele><time>2026-04-12T08:21:40Z</time></trkpt><trkpt lat="36.929766237641346" lon="15.165292350370398"><ele>23.0</ele><time>2026-04-12T08:21:41Z</time></trkpt><trkpt lat="36.9296217297992" lon="15.165183118563974"><ele>23.0</ele><time>2026-04-12T08:21:42Z</time></trkpt><trkpt lat="36.92946724717115" lon="15.165066924738795"><ele>23.0</ele><time>2026-04-12T08:21:43Z</time></trkpt><trkpt lat="36.92930975732761" lon="15.164944573116223"><ele>23.0</ele><time>2026-04-12T08:21:44Z</time></trkpt><trkpt lat="36.92916470206319" lon="15.164831518314827"><ele>23.0</ele><time>2026-04-12T08:21:45Z</time></trkpt><trkpt lat="36.92901223591308" lon="15.164717334918619"><ele>23.0</ele><time>2026-04-12T08:21:46Z</time></trkpt><trkpt lat="36.92886588016735" lon="15.164602397441817"><ele>23.0</ele><time>2026-04-12T08:21:47Z</time></trkpt><trkpt lat="36.92872605970349" lon="15.164483854857286"><ele>23.0</ele><time>2026-04-12T08:21:48Z</time></trkpt><trkpt lat="36.9286476313725" lon="15.164397450118583"><ele>23.0</ele><time>2026-04-12T08:21:49Z</time></trkpt><trkpt lat="36.92854350604401" lon="15.164299601664485"><ele>23.0</ele><time>2026-04-12T08:21:50Z</time></trkpt><trkpt lat="36.92843178975184" lon="15.164183546949337"><ele>23.0</ele><time>2026-04-12T08:21:51Z</time></trkpt><trkpt lat="36.928320168974466" lon="15.164055800137543"><ele>23.0</ele><time>2026-04-12T08:21:52Z</time></trkpt><trkpt lat="36.928209594977794" lon="15.163901281651565"><ele>23.0</ele><time>2026-04-12T08:21:53Z</time></trkpt><trkpt lat="36.928096085731845" lon="15.163740769715222"><ele>23.0</ele><time>2026-04-12T08:21:54Z</time></trkpt><trkpt lat="36.927980565882024" lon="15.163575633682035"><ele>23.0</ele><time>2026-04-12T08:21:55Z</time></trkpt><trkpt lat="36.92786875182599" lon="15.163411997730547"><ele>23.0</ele><time>2026-04-12T08:21:56Z</time></trkpt><trkpt lat="36.92775970841388" lon="15.163246424433886"><ele>23.0</ele><time>2026-04-12T08:21:57Z</time></trkpt><trkpt lat="36.92765091432877" lon="15.163081429553221"><ele>22.666666666666668</ele><time>2026-04-12T08:21:58Z</time></trkpt><trkpt lat="36.92754218092597" lon="15.162921709028867"><ele>22.333333333333332</ele><time>2026-04-12T08:21:59Z</time></trkpt><trkpt lat="36.92742876979992" lon="15.162760524085414"><ele>22.0</ele><time>2026-04-12T08:22:00Z</time></trkpt><trkpt lat="36.92731961954707" lon="15.162596245647986"><ele>22.0</ele><time>2026-04-12T08:22:01Z</time></trkpt><trkpt lat="36.92720790856656" lon="15.162432947372155"><ele>22.0</ele><time>2026-04-12T08:22:02Z</time></trkpt><trkpt lat="36.92709630207571" lon="15.162270576026673"><ele>22.0</ele><time>2026-04-12T08:22:03Z</time></trkpt><trkpt lat="36.926985222596954" lon="15.162106824943015"><ele>22.333333333333332</ele><time>2026-04-12T08:22:04Z</time></trkpt><trkpt lat="36.92687447223535" lon="15.16194188191806"><ele>22.666666666666668</ele><time>2026-04-12T08:22:05Z</time></trkpt><trkpt lat="36.92676934023265" lon="15.161782417842957"><ele>23.0</ele><time>2026-04-12T08:22:06Z</time></trkpt><trkpt lat="36.926661134785114" lon="15.161627289209965"><ele>22.5</ele><time>2026-04-12T08:22:07Z</time></trkpt><trkpt lat="36.926557935996556" lon="15.161476831244599"><ele>22.0</ele><time>2026-04-12T08:22:08Z</time></trkpt><trkpt lat="36.926464540725185" lon="15.16133508171083"><ele>21.5</ele><time>2026-04-12T08:22:09Z</time></trkpt><trkpt lat="36.92637410926275" lon="15.161194926129111"><ele>21.0</ele><time>2026-04-12T08:22:10Z</time></trkpt><trkpt lat="36.926282743440034" lon="15.161058923003893"><ele>21.0</ele><time>2026-04-12T08:22:11Z</time></trkpt><trkpt lat="36.926190898346036" lon="15.16092238624241"><ele>21.0</ele><time>2026-04-12T08:22:12Z</time></trkpt><trkpt lat="36.9261025519489" lon="15.160784265284367"><ele>21.0</ele><time>2026-04-12T08:22:13Z</time></trkpt><trkpt lat="36.92601889978233" lon="15.160648268603511"><ele>21.0</ele><time>2026-04-12T08:22:14Z</time></trkpt><trkpt lat="36.92594910066296" lon="15.1605115253636"><ele>21.25</ele><time>2026-04-12T08:22:15Z</time></trkpt><trkpt lat="36.92588686444953" lon="15.16037769179557"><ele>21.5</ele><time>2026-04-12T08:22:16Z</time></trkpt><trkpt lat="36.925822301811834" lon="15.160250993669795"><ele>21.75</ele><time>2026-04-12T08:22:17Z</time></trkpt><trkpt lat="36.92575679384405" lon="15.160127358965806"><ele>22.0</ele><time>2026-04-12T08:22:18Z</time></trkpt><trkpt lat="36.92569371048932" lon="15.160002636364197"><ele>22.0</ele><time>2026-04-12T08:22:19Z</time></trkpt><trkpt lat="36.92563680917085" lon="15.15987796599412"><ele>22.0</ele><time>2026-04-12T08:22:20Z</time></trkpt><trkpt lat="36.92558833627509" lon="15.159752732972688"><ele>22.0</ele><time>2026-04-12T08:22:21Z</time></trkpt><trkpt lat="36.92553176503161" lon="15.15963231955905"><ele>22.0</ele><time>2026-04-12T08:22:22Z</time></trkpt><trkpt lat="36.92547605680496" lon="15.15951910907757"><ele>22.0</ele><time>2026-04-12T08:22:23Z</time></trkpt><trkpt lat="36.925422826497424" lon="15.159411883490044"><ele>22.333333333333332</ele><time>2026-04-12T08:22:24Z</time></trkpt><trkpt lat="36.9253808564386" lon="15.159308050450996"><ele>22.666666666666664</ele><time>2026-04-12T08:22:25Z</time></trkpt><trkpt lat="36.925360362204515" lon="15.159209922358892"><ele>23.0</ele><time>2026-04-12T08:22:26Z</time></trkpt><trkpt lat="36.925359666390925" lon="15.159113099766328"><ele>23.333333333333332</ele><time>2026-04-12T08:22:27Z</time></trkpt><trkpt lat="36.92536747036461" lon="15.15902573055179"><ele>23.666666666666668</ele><time>2026-04-12T08:22:28Z</time></trkpt><trkpt lat="36.92537113184774" lon="15.158939575806931"><ele>24.0</ele><time>2026-04-12T08:22:29Z</time></trkpt><trkpt lat="36.9253069569248" lon="15.15884082310272"><ele>24.0</ele><time>2026-04-12T08:22:31Z</time></trkpt><trkpt lat="36.9252411022511" lon="15.158835722685604"><ele>24.0</ele><time>2026-04-12T08:22:45Z</time></trkpt><trkpt lat="36.92513686298233" lon="15.158804128739174"><ele>24.0</ele><time>2026-04-12T08:22:47Z</time></trkpt><trkpt lat="36.92509265481157" lon="15.15874272541704"><ele>24.0</ele><time>2026-04-12T08:22:48Z</time></trkpt><trkpt lat="36.9250667228053" lon="15.158638769312162"><ele>24.0</ele><time>2026-04-12T08:22:49Z</time></trkpt><trkpt lat="36.92500337955594" lon="15.158545515316804"><ele>24.0</ele><time>2026-04-12T08:22:50Z</time></trkpt><trkpt lat="36.924952170999454" lon="15.1584251339883"><ele>23.5</ele><time>2026-04-12T08:22:51Z</time></trkpt><trkpt lat="36.92489372941054" lon="15.158309904235729"><ele>23.0</ele><time>2026-04-12T08:22:52Z</time></trkpt><trkpt lat="36.92482888018006" lon="15.158182942009823"><ele>22.5</ele><time>2026-04-12T08:22:53Z</time></trkpt><trkpt lat="36.92476112948754" lon="15.15804623296018"><ele>22.0</ele><time>2026-04-12T08:22:54Z</time></trkpt><trkpt lat="36.92469046833629" lon="15.157906350621378"><ele>22.0</ele><time>2026-04-12T08:22:55Z</time></trkpt><trkpt lat="36.92462020563416" lon="15.157768483990994"><ele>22.0</ele><time>2026-04-12T08:22:56Z</time></trkpt><trkpt lat="36.92454293920448" lon="15.157627920972274"><ele>22.0</ele><time>2026-04-12T08:22:57Z</time></trkpt><trkpt lat="36.924461388763724" lon="15.157488513885093"><ele>22.0</ele><time>2026-04-12T08:22:58Z</time></trkpt><trkpt lat="36.92437954206187" lon="15.157352052670284"><ele>22.0</ele><time>2026-04-12T08:22:59Z</time></trkpt><trkpt lat="36.92429926632217" lon="15.157213384415915"><ele>22.0</ele><time>2026-04-12T08:23:00Z</time></trkpt><trkpt lat="36.92422108870463" lon="15.157073778527923"><ele>22.0</ele><time>2026-04-12T08:23:01Z</time></trkpt><trkpt lat="36.92414109843673" lon="15.156935586605384"><ele>22.0</ele><time>2026-04-12T08:23:02Z</time></trkpt><trkpt lat="36.92406018602735" lon="15.156800541157736"><ele>22.0</ele><time>2026-04-12T08:23:03Z</time></trkpt><trkpt lat="36.92397939189963" lon="15.156666386139982"><ele>22.0</ele><time>2026-04-12T08:23:04Z</time></trkpt><trkpt lat="36.92389946390405" lon="15.156533766363513"><ele>22.0</ele><time>2026-04-12T08:23:05Z</time></trkpt><trkpt lat="36.92382259213799" lon="15.156400423560443"><ele>22.0</ele><time>2026-04-12T08:23:06Z</time></trkpt><trkpt lat="36.923746175093655" lon="15.156267166866067"><ele>22.0</ele><time>2026-04-12T08:23:07Z</time></trkpt><trkpt lat="36.923672943117005" lon="15.156137020192489"><ele>22.0</ele><time>2026-04-12T08:23:08Z</time></trkpt><trkpt lat="36.92360273839881" lon="15.156010242585678"><ele>22.0</ele><time>2026-04-12T08:23:09Z</time></trkpt><trkpt lat="36.92354654776213" lon="15.155876655991396"><ele>22.0</ele><time>2026-04-12T08:23:10Z</time></trkpt><trkpt lat="36.923459800468166" lon="15.155777457609577"><ele>21.400000000000002</ele><time>2026-04-12T08:23:11Z</time></trkpt><trkpt lat="36.92338770985771" lon="15.15567197306184"><ele>20.8</ele><time>2026-04-12T08:23:12Z</time></trkpt><trkpt lat="36.9233208951026" lon="15.155561658482245"><ele>20.2</ele><time>2026-04-12T08:23:13Z</time></trkpt><trkpt lat="36.92326620762259" lon="15.155442906286716"><ele>19.6</ele><time>2026-04-12T08:23:14Z</time></trkpt><trkpt lat="36.92320562961211" lon="15.155326982619043"><ele>19.0</ele><time>2026-04-12T08:23:15Z</time></trkpt><trkpt lat="36.9231377484869" lon="15.155205094047213"><ele>19.0</ele><time>2026-04-12T08:23:16Z</time></trkpt><trkpt lat="36.92307321022741" lon="15.155088681029381"><ele>19.0</ele><time>2026-04-12T08:23:17Z</time></trkpt><trkpt lat="36.92300994125972" lon="15.154981252123886"><ele>19.0</ele><time>2026-04-12T08:23:18Z</time></trkpt><trkpt lat="36.922943226569984" lon="15.154867127011906"><ele>19.0</ele><time>2026-04-12T08:23:19Z</time></trkpt><trkpt lat="36.92287674784144" lon="15.154744753098415"><ele>19.25</ele><time>2026-04-12T08:23:20Z</time></trkpt><trkpt lat="36.922809402125175" lon="15.154621915066183"><ele>19.5</ele><time>2026-04-12T08:23:21Z</time></trkpt><trkpt lat="36.92273645588138" lon="15.154492282498909"><ele>19.75</ele><time>2026-04-12T08:23:22Z</time></trkpt><trkpt lat="36.92267011626857" lon="15.154368184881454"><ele>20.0</ele><time>2026-04-12T08:23:23Z</time></trkpt><trkpt lat="36.92260662258898" lon="15.154250321482753"><ele>19.75</ele><time>2026-04-12T08:23:24Z</time></trkpt><trkpt lat="36.922543683795034" lon="15.154130462024122"><ele>19.5</ele><time>2026-04-12T08:23:25Z</time></trkpt><trkpt lat="36.92248256538655" lon="15.154012995212234"><ele>19.25</ele><time>2026-04-12T08:23:26Z</time></trkpt><trkpt lat="36.92242156511764" lon="15.15389085915731"><ele>19.0</ele><time>2026-04-12T08:23:27Z</time></trkpt><trkpt lat="36.92236357729226" lon="15.1537688815486"><ele>19.0</ele><time>2026-04-12T08:23:28Z</time></trkpt><trkpt lat="36.92230445779332" lon="15.153642995747957"><ele>19.0</ele><time>2026-04-12T08:23:29Z</time></trkpt><trkpt lat="36.92224013778091" lon="15.153517106202505"><ele>19.0</ele><time>2026-04-12T08:23:30Z</time></trkpt><trkpt lat="36.9221737568486" lon="15.153398406331522"><ele>19.0</ele><time>2026-04-12T08:23:31Z</time></trkpt><trkpt lat="36.9221094333" lon="15.153281057472844"><ele>19.25</ele><time>2026-04-12T08:23:32Z</time></trkpt><trkpt lat="36.92204870530871" lon="15.153175845817774"><ele>19.5</ele><time>2026-04-12T08:23:33Z</time></trkpt><trkpt lat="36.921986583298406" lon="15.153019757087417"><ele>19.75</ele><time>2026-04-12T08:23:34Z</time></trkpt><trkpt lat="36.921929276514284" lon="15.152897250842585"><ele>20.0</ele><time>2026-04-12T08:23:35Z</time></trkpt><trkpt lat="36.92187626020399" lon="15.152781084336427"><ele>20.0</ele><time>2026-04-12T08:23:36Z</time></trkpt><trkpt lat="36.92182587310418" lon="15.152666506864682"><ele>20.0</ele><time>2026-04-12T08:23:37Z</time></trkpt><trkpt lat="36.92177843721916" lon="15.152553176802574"><ele>20.0</ele><time>2026-04-12T08:23:38Z</time></trkpt><trkpt lat="36.92173413249096" lon="15.152443138851611"><ele>20.0</ele><time>2026-04-12T08:23:39Z</time></trkpt><trkpt lat="36.921686754127585" lon="15.152328147768259"><ele>20.0</ele><time>2026-04-12T08:23:40Z</time></trkpt><trkpt lat="36.921636923588984" lon="15.152212538545868"><ele>20.6</ele><time>2026-04-12T08:23:41Z</time></trkpt><trkpt lat="36.92158417610577" lon="15.152094003929893"><ele>21.2</ele><time>2026-04-12T08:23:42Z</time></trkpt><trkpt lat="36.9215329837649" lon="15.151971118324548"><ele>21.799999999999997</ele><time>2026-04-12T08:23:43Z</time></trkpt><trkpt lat="36.921483556555025" lon="15.151849121046302"><ele>22.4</ele><time>2026-04-12T08:23:44Z</time></trkpt><trkpt lat="36.92143077807055" lon="15.151723785019128"><ele>23.0</ele><time>2026-04-12T08:23:45Z</time></trkpt><trkpt lat="36.92137853571152" lon="15.151595173937432"><ele>23.5</ele><time>2026-04-12T08:23:46Z</time></trkpt><trkpt lat="36.92132546574806" lon="15.151472217103185"><ele>24.0</ele><time>2026-04-12T08:23:47Z</time></trkpt><trkpt lat="36.92127432369824" lon="15.15134232183501"><ele>24.5</ele><time>2026-04-12T08:23:48Z</time></trkpt><trkpt lat="36.921218190408815" lon="15.151208347814874"><ele>25.0</ele><time>2026-04-12T08:23:49Z</time></trkpt><trkpt lat="36.921167295326164" lon="15.151072686327932"><ele>25.0</ele><time>2026-04-12T08:23:50Z</time></trkpt><trkpt lat="36.92111302379995" lon="15.150934821459487"><ele>25.0</ele><time>2026-04-12T08:23:51Z</time></trkpt><trkpt lat="36.92105813659061" lon="15.150798704458689"><ele>25.0</ele><time>2026-04-12T08:23:52Z</time></trkpt><trkpt lat="36.92100127009666" lon="15.15065808602639"><ele>25.0</ele><time>2026-04-12T08:23:53Z</time></trkpt><trkpt lat="36.92094324337866" lon="15.15051786663471"><ele>25.25</ele><time>2026-04-12T08:23:54Z</time></trkpt><trkpt lat="36.92088690112154" lon="15.15037331326911"><ele>25.5</ele><time>2026-04-12T08:23:55Z</time></trkpt><trkpt lat="36.92082660269866" lon="15.150229438927184"><ele>25.75</ele><time>2026-04-12T08:23:56Z</time></trkpt><trkpt lat="36.920765486641365" lon="15.150087074414209"><ele>26.0</ele><time>2026-04-12T08:23:57Z</time></trkpt><trkpt lat="36.9207045685627" lon="15.149938122484565"><ele>26.0</ele><time>2026-04-12T08:23:58Z</time></trkpt><trkpt lat="36.92064138060636" lon="15.149782503049698"><ele>26.0</ele><time>2026-04-12T08:23:59Z</time></trkpt><trkpt lat="36.920583377244235" lon="15.14963123526993"><ele>26.0</ele><time>2026-04-12T08:24:00Z</time></trkpt><trkpt lat="36.92052170257405" lon="15.149482449050153"><ele>26.0</ele><time>2026-04-12T08:24:01Z</time></trkpt><trkpt lat="36.92045906079662" lon="15.149329274881415"><ele>26.0</ele><time>2026-04-12T08:24:02Z</time></trkpt><trkpt lat="36.92039721795136" lon="15.149181738666814"><ele>26.0</ele><time>2026-04-12T08:24:03Z</time></trkpt><trkpt lat="36.9203360733829" lon="15.149032535633951"><ele>26.0</ele><time>2026-04-12T08:24:04Z</time></trkpt><trkpt lat="36.920274563780765" lon="15.148885865857292"><ele>26.0</ele><time>2026-04-12T08:24:05Z</time></trkpt><trkpt lat="36.920213775690755" lon="15.148740067001741"><ele>26.0</ele><time>2026-04-12T08:24:06Z</time></trkpt><trkpt lat="36.920155015052416" lon="15.1485965917399"><ele>26.0</ele><time>2026-04-12T08:24:07Z</time></trkpt><trkpt lat="36.920097850630476" lon="15.148453181340516"><ele>26.0</ele><time>2026-04-12T08:24:08Z</time></trkpt><trkpt lat="36.92004418805205" lon="15.14831544151637"><ele>26.0</ele><time>2026-04-12T08:24:09Z</time></trkpt><trkpt lat="36.91999207469111" lon="15.148185650798988"><ele>25.833333333333332</ele><time>2026-04-12T08:24:10Z</time></trkpt><trkpt lat="36.919945642082496" lon="15.14806329410077"><ele>25.666666666666664</ele><time>2026-04-12T08:24:11Z</time></trkpt><trkpt lat="36.9199162833709" lon="15.147945006619835"><ele>25.5</ele><time>2026-04-12T08:24:12Z</time></trkpt><trkpt lat="36.9199256814419" lon="15.147845329545813"><ele>25.333333333333336</ele><time>2026-04-12T08:24:13Z</time></trkpt><trkpt lat="36.919949226025444" lon="15.14775089952593"><ele>25.166666666666668</ele><time>2026-04-12T08:24:14Z</time></trkpt><trkpt lat="36.9199804464513" lon="15.147661163536158"><ele>25.0</ele><time>2026-04-12T08:24:15Z</time></trkpt><trkpt lat="36.92002081897052" lon="15.147573875935164"><ele>25.333333333333336</ele><time>2026-04-12T08:24:16Z</time></trkpt><trkpt lat="36.92006846572643" lon="15.147488055739744"><ele>25.666666666666668</ele><time>2026-04-12T08:24:17Z</time></trkpt><trkpt lat="36.92010802220814" lon="15.14739869351361"><ele>26.0</ele><time>2026-04-12T08:24:18Z</time></trkpt><trkpt lat="36.92013449705415" lon="15.147296406879153"><ele>26.333333333333336</ele><time>2026-04-12T08:24:19Z</time></trkpt><trkpt lat="36.92014583780121" lon="15.14719158862763"><ele>26.666666666666668</ele><time>2026-04-12T08:24:20Z</time></trkpt><trkpt lat="36.92014491359438" lon="15.147099353145183"><ele>27.0</ele><time>2026-04-12T08:24:21Z</time></trkpt><trkpt lat="36.92013706240669" lon="15.146939045440465"><ele>27.200000000000003</ele><time>2026-04-12T08:24:23Z</time></trkpt><trkpt lat="36.92014122566728" lon="15.14683940776566"><ele>27.400000000000002</ele><time>2026-04-12T08:24:24Z</time></trkpt><trkpt lat="36.92014765542332" lon="15.146720584666323"><ele>27.599999999999998</ele><time>2026-04-12T08:24:25Z</time></trkpt><trkpt lat="36.92014466038699" lon="15.146589091212366"><ele>27.799999999999997</ele><time>2026-04-12T08:24:26Z</time></trkpt><trkpt lat="36.92019978508109" lon="15.146430637427846"><ele>28.0</ele><time>2026-04-12T08:24:27Z</time></trkpt><trkpt lat="36.92023872539963" lon="15.146277296631565"><ele>28.666666666666668</ele><time>2026-04-12T08:24:28Z</time></trkpt><trkpt lat="36.92028521222809" lon="15.146104950284913"><ele>29.333333333333336</ele><time>2026-04-12T08:24:29Z</time></trkpt><trkpt lat="36.92033508024972" lon="15.145909365470427"><ele>30.0</ele><time>2026-04-12T08:24:30Z</time></trkpt><trkpt lat="36.92039079993843" lon="15.14570400663855"><ele>30.333333333333336</ele><time>2026-04-12T08:24:31Z</time></trkpt><trkpt lat="36.920444924257666" lon="15.14549445535727"><ele>30.666666666666668</ele><time>2026-04-12T08:24:32Z</time></trkpt><trkpt lat="36.92049494979063" lon="15.14527606441716"><ele>31.0</ele><time>2026-04-12T08:24:33Z</time></trkpt><trkpt lat="36.92054190972418" lon="15.145056965596229"><ele>31.0</ele><time>2026-04-12T08:24:34Z</time></trkpt><trkpt lat="36.92058460795998" lon="15.144853630751612"><ele>31.0</ele><time>2026-04-12T08:24:35Z</time></trkpt><trkpt lat="36.9206192014115" lon="15.144669610867203"><ele>31.0</ele><time>2026-04-12T08:24:36Z</time></trkpt><trkpt lat="36.920650673743644" lon="15.144495123026704"><ele>31.0</ele><time>2026-04-12T08:24:37Z</time></trkpt><trkpt lat="36.92067924757267" lon="15.144326690474507"><ele>31.0</ele><time>2026-04-12T08:24:38Z</time></trkpt><trkpt lat="36.92071072712667" lon="15.144141868015247"><ele>31.0</ele><time>2026-04-12T08:24:39Z</time></trkpt><trkpt lat="36.92074324709902" lon="15.143944497200195"><ele>31.333333333333336</ele><time>2026-04-12T08:24:40Z</time></trkpt><trkpt lat="36.920778474213535" lon="15.143726876530454"><ele>31.666666666666664</ele><time>2026-04-12T08:24:41Z</time></trkpt><trkpt lat="36.92081325913412" lon="15.143499410574416"><ele>32.0</ele><time>2026-04-12T08:24:42Z</time></trkpt><trkpt lat="36.92084520963251" lon="15.14326427774193"><ele>33.0</ele><time>2026-04-12T08:24:43Z</time></trkpt><trkpt lat="36.92087671046788" lon="15.14302592459922"><ele>34.0</ele><time>2026-04-12T08:24:44Z</time></trkpt><trkpt lat="36.92091182135294" lon="15.142778513633502"><ele>35.0</ele><time>2026-04-12T08:24:45Z</time></trkpt><trkpt lat="36.92094314247734" lon="15.142542484298485"><ele>35.666666666666664</ele><time>2026-04-12T08:24:46Z</time></trkpt><trkpt lat="36.9209831571807" lon="15.142299370546045"><ele>36.333333333333336</ele><time>2026-04-12T08:24:47Z</time></trkpt><trkpt lat="36.92101294919363" lon="15.142057263688832"><ele>37.0</ele><time>2026-04-12T08:24:48Z</time></trkpt><trkpt lat="36.92103486695102" lon="15.14181242208985"><ele>37.0</ele><time>2026-04-12T08:24:49Z</time></trkpt><trkpt lat="36.92104866384887" lon="15.141562258115329"><ele>37.0</ele><time>2026-04-12T08:24:50Z</time></trkpt><trkpt lat="36.921061110550895" lon="15.141316874741038"><ele>37.0</ele><time>2026-04-12T08:24:51Z</time></trkpt><trkpt lat="36.92106937327102" lon="15.141069402104351"><ele>37.66666666666667</ele><time>2026-04-12T08:24:52Z</time></trkpt><trkpt lat="36.92107512419522" lon="15.140821825058698"><ele>38.333333333333336</ele><time>2026-04-12T08:24:53Z</time></trkpt><trkpt lat="36.92108029389446" lon="15.140572326215079"><ele>39.0</ele><time>2026-04-12T08:24:54Z</time></trkpt><trkpt lat="36.9210815083028" lon="15.140326679875653"><ele>40.0</ele><time>2026-04-12T08:24:55Z</time></trkpt><trkpt lat="36.92107727129411" lon="15.140083558009843"><ele>41.0</ele><time>2026-04-12T08:24:56Z</time></trkpt><trkpt lat="36.921063748611715" lon="15.139838572349666"><ele>42.0</ele><time>2026-04-12T08:24:57Z</time></trkpt><trkpt lat="36.92104532023159" lon="15.139592279724857"><ele>42.666666666666664</ele><time>2026-04-12T08:24:58Z</time></trkpt><trkpt lat="36.92102695242078" lon="15.139349834307238"><ele>43.33333333333333</ele><time>2026-04-12T08:24:59Z</time></trkpt><trkpt lat="36.92101452790067" lon="15.139107187302995"><ele>44.0</ele><time>2026-04-12T08:25:00Z</time></trkpt><trkpt lat="36.92100147749196" lon="15.138868351803334"><ele>44.33333333333333</ele><time>2026-04-12T08:25:01Z</time></trkpt><trkpt lat="36.92098654744906" lon="15.138630721703185"><ele>44.666666666666664</ele><time>2026-04-12T08:25:02Z</time></trkpt><trkpt lat="36.92096285345517" lon="15.138391010094939"><ele>45.0</ele><time>2026-04-12T08:25:03Z</time></trkpt><trkpt lat="36.92093409820086" lon="15.138152320167642"><ele>45.333333333333336</ele><time>2026-04-12T08:25:04Z</time></trkpt><trkpt lat="36.920907390778204" lon="15.137912256385945"><ele>45.66666666666667</ele><time>2026-04-12T08:25:05Z</time></trkpt><trkpt lat="36.92088759556968" lon="15.137704680060747"><ele>46.0</ele><time>2026-04-12T08:25:06Z</time></trkpt><trkpt lat="36.92084367015122" lon="15.137450062391226"><ele>46.0</ele><time>2026-04-12T08:25:07Z</time></trkpt><trkpt lat="36.920809193684484" lon="15.137217688022812"><ele>46.0</ele><time>2026-04-12T08:25:08Z</time></trkpt><trkpt lat="36.920771576481194" lon="15.136994763056675"><ele>46.0</ele><time>2026-04-12T08:25:09Z</time></trkpt><trkpt lat="36.92073673204368" lon="15.13678695786839"><ele>46.0</ele><time>2026-04-12T08:25:10Z</time></trkpt><trkpt lat="36.92070169091644" lon="15.136578761698239"><ele>46.0</ele><time>2026-04-12T08:25:11Z</time></trkpt><trkpt lat="36.92066595843146" lon="15.13637897927217"><ele>46.0</ele><time>2026-04-12T08:25:12Z</time></trkpt><trkpt lat="36.920630416925505" lon="15.13617872892145"><ele>47.333333333333336</ele><time>2026-04-12T08:25:13Z</time></trkpt><trkpt lat="36.92058998989583" lon="15.135968939010914"><ele>48.66666666666667</ele><time>2026-04-12T08:25:14Z</time></trkpt><trkpt lat="36.92054511399222" lon="15.135755000765602"><ele>50.0</ele><time>2026-04-12T08:25:15Z</time></trkpt><trkpt lat="36.920481758106" lon="15.135534352719185"><ele>50.66666666666667</ele><time>2026-04-12T08:25:16Z</time></trkpt><trkpt lat="36.92041229224111" lon="15.135310065799683"><ele>51.33333333333333</ele><time>2026-04-12T08:25:17Z</time></trkpt><trkpt lat="36.92034968045304" lon="15.135077672589668"><ele>52.0</ele><time>2026-04-12T08:25:18Z</time></trkpt><trkpt lat="36.92029294871681" lon="15.134836456205061"><ele>53.0</ele><time>2026-04-12T08:25:19Z</time></trkpt><trkpt lat="36.92022739380097" lon="15.134593940573588"><ele>54.0</ele><time>2026-04-12T08:25:20Z</time></trkpt><trkpt lat="36.92014855308692" lon="15.134346740491276"><ele>55.0</ele><time>2026-04-12T08:25:21Z</time></trkpt><trkpt lat="36.92007096398216" lon="15.13410374416278"><ele>55.33333333333333</ele><time>2026-04-12T08:25:22Z</time></trkpt><trkpt lat="36.91999237639723" lon="15.133873872340798"><ele>55.66666666666667</ele><time>2026-04-12T08:25:23Z</time></trkpt><trkpt lat="36.91991713477634" lon="15.133652073532918"><ele>56.0</ele><time>2026-04-12T08:25:24Z</time></trkpt><trkpt lat="36.919847924489794" lon="15.133450450236488"><ele>56.0</ele><time>2026-04-12T08:25:25Z</time></trkpt><trkpt lat="36.91978753999908" lon="15.13325597007908"><ele>56.0</ele><time>2026-04-12T08:25:26Z</time></trkpt><trkpt lat="36.91972383102217" lon="15.1330770513642"><ele>56.0</ele><time>2026-04-12T08:25:27Z</time></trkpt><trkpt lat="36.91965656576612" lon="15.132908302304653"><ele>56.5</ele><time>2026-04-12T08:25:28Z</time></trkpt><trkpt lat="36.91958689919058" lon="15.132762361336207"><ele>57.0</ele><time>2026-04-12T08:25:29Z</time></trkpt><trkpt lat="36.91952816326489" lon="15.132616597000187"><ele>57.5</ele><time>2026-04-12T08:25:30Z</time></trkpt><trkpt lat="36.919470324010604" lon="15.132480147063678"><ele>58.0</ele><time>2026-04-12T08:25:31Z</time></trkpt><trkpt lat="36.91941784692414" lon="15.132360665308422"><ele>58.0</ele><time>2026-04-12T08:25:32Z</time></trkpt><trkpt lat="36.9193749987132" lon="15.132249021656085"><ele>58.0</ele><time>2026-04-12T08:25:33Z</time></trkpt><trkpt lat="36.919334869512035" lon="15.132140917338557"><ele>58.0</ele><time>2026-04-12T08:25:34Z</time></trkpt><trkpt lat="36.91929244095504" lon="15.13204017080438"><ele>58.0</ele><time>2026-04-12T08:25:35Z</time></trkpt><trkpt lat="36.919247345341354" lon="15.131935204966068"><ele>58.0</ele><time>2026-04-12T08:25:36Z</time></trkpt><trkpt lat="36.91919917896189" lon="15.131822812060799"><ele>58.0</ele><time>2026-04-12T08:25:37Z</time></trkpt><trkpt lat="36.919147111068696" lon="15.131702890498865"><ele>58.0</ele><time>2026-04-12T08:25:38Z</time></trkpt><trkpt lat="36.919091143140506" lon="15.131580365975054"><ele>58.0</ele><time>2026-04-12T08:25:39Z</time></trkpt><trkpt lat="36.919027994873666" lon="15.131458187718025"><ele>58.0</ele><time>2026-04-12T08:25:40Z</time></trkpt><trkpt lat="36.91896090833148" lon="15.131334239317473"><ele>58.5</ele><time>2026-04-12T08:25:41Z</time></trkpt><trkpt lat="36.9188942308613" lon="15.131210654654026"><ele>59.0</ele><time>2026-04-12T08:25:42Z</time></trkpt><trkpt lat="36.918829765051754" lon="15.131094885028979"><ele>59.5</ele><time>2026-04-12T08:25:43Z</time></trkpt><trkpt lat="36.91876700636665" lon="15.130981554047288"><ele>60.0</ele><time>2026-04-12T08:25:44Z</time></trkpt><trkpt lat="36.918707142999914" lon="15.13086531256999"><ele>60.0</ele><time>2026-04-12T08:25:45Z</time></trkpt><trkpt lat="36.91864996038921" lon="15.130742763766154"><ele>60.0</ele><time>2026-04-12T08:25:46Z</time></trkpt><trkpt lat="36.918596198921534" lon="15.130613742878172"><ele>60.0</ele><time>2026-04-12T08:25:47Z</time></trkpt><trkpt lat="36.918546099751985" lon="15.130478664860869"><ele>60.0</ele><time>2026-04-12T08:25:48Z</time></trkpt><trkpt lat="36.918487490909335" lon="15.130347105445752"><ele>60.0</ele><time>2026-04-12T08:25:49Z</time></trkpt><trkpt lat="36.91842088906176" lon="15.130220675426235"><ele>60.0</ele><time>2026-04-12T08:25:50Z</time></trkpt><trkpt lat="36.918350766163684" lon="15.130097541676514"><ele>60.0</ele><time>2026-04-12T08:25:51Z</time></trkpt><trkpt lat="36.918276834305914" lon="15.129971823104693"><ele>60.0</ele><time>2026-04-12T08:25:52Z</time></trkpt><trkpt lat="36.918201210149086" lon="15.129845998929005"><ele>60.0</ele><time>2026-04-12T08:25:53Z</time></trkpt><trkpt lat="36.918122558273645" lon="15.129720077238947"><ele>60.0</ele><time>2026-04-12T08:25:54Z</time></trkpt><trkpt lat="36.91804296157996" lon="15.129594591372715"><ele>60.0</ele><time>2026-04-12T08:25:55Z</time></trkpt><trkpt lat="36.917953428144536" lon="15.1294687734289"><ele>60.0</ele><time>2026-04-12T08:25:56Z</time></trkpt><trkpt lat="36.91786355579972" lon="15.129341978358314"><ele>60.0</ele><time>2026-04-12T08:25:57Z</time></trkpt><trkpt lat="36.91777139055925" lon="15.129218055559175"><ele>60.0</ele><time>2026-04-12T08:25:58Z</time></trkpt><trkpt lat="36.917675434111025" lon="15.129094612547762"><ele>60.0</ele><time>2026-04-12T08:25:59Z</time></trkpt><trkpt lat="36.917580905362655" lon="15.128974578292262"><ele>60.0</ele><time>2026-04-12T08:26:00Z</time></trkpt><trkpt lat="36.91748836888754" lon="15.1288597553815"><ele>60.0</ele><time>2026-04-12T08:26:01Z</time></trkpt><trkpt lat="36.917394860524645" lon="15.128745649481012"><ele>60.0</ele><time>2026-04-12T08:26:02Z</time></trkpt><trkpt lat="36.917299805894565" lon="15.128633999415086"><ele>60.0</ele><time>2026-04-12T08:26:03Z</time></trkpt><trkpt lat="36.91720752412165" lon="15.128528756930347"><ele>60.0</ele><time>2026-04-12T08:26:04Z</time></trkpt><trkpt lat="36.91711286605616" lon="15.12843120260433"><ele>60.0</ele><time>2026-04-12T08:26:05Z</time></trkpt><trkpt lat="36.917022061423125" lon="15.128335162219704"><ele>60.0</ele><time>2026-04-12T08:26:06Z</time></trkpt><trkpt lat="36.91693349270867" lon="15.128246481535745"><ele>60.0</ele><time>2026-04-12T08:26:07Z</time></trkpt><trkpt lat="36.9168440946067" lon="15.128160977712106"><ele>60.0</ele><time>2026-04-12T08:26:08Z</time></trkpt><trkpt lat="36.916758118361976" lon="15.128083722856577"><ele>59.833333333333336</ele><time>2026-04-12T08:26:09Z</time></trkpt><trkpt lat="36.916674367962834" lon="15.128012402258648"><ele>59.66666666666667</ele><time>2026-04-12T08:26:10Z</time></trkpt><trkpt lat="36.916601326042006" lon="15.127954763957993"><ele>59.5</ele><time>2026-04-12T08:26:11Z</time></trkpt><trkpt lat="36.91653653948786" lon="15.127905236267404"><ele>59.333333333333336</ele><time>2026-04-12T08:26:12Z</time></trkpt><trkpt lat="36.91645930550215" lon="15.127827632051421"><ele>59.16666666666667</ele><time>2026-04-12T08:26:14Z</time></trkpt><trkpt lat="36.91643687451182" lon="15.127743353444824"><ele>59.0</ele><time>2026-04-12T08:26:16Z</time></trkpt><trkpt lat="36.91647889418364" lon="15.127650964578706"><ele>59.0</ele><time>2026-04-12T08:26:18Z</time></trkpt><trkpt lat="36.916549195401544" lon="15.127510751153949"><ele>59.00000000000001</ele><time>2026-04-12T08:26:20Z</time></trkpt><trkpt lat="36.91658990281121" lon="15.12741441051579"><ele>59.00000000000001</ele><time>2026-04-12T08:26:21Z</time></trkpt><trkpt lat="36.916633061337315" lon="15.127310895814873"><ele>59.0</ele><time>2026-04-12T08:26:22Z</time></trkpt><trkpt lat="36.91668868138967" lon="15.127181066661947"><ele>59.0</ele><time>2026-04-12T08:26:23Z</time></trkpt><trkpt lat="36.91675115020222" lon="15.127038016818826"><ele>60.25</ele><time>2026-04-12T08:26:24Z</time></trkpt><trkpt lat="36.91680695087132" lon="15.126904706680703"><ele>61.5</ele><time>2026-04-12T08:26:25Z</time></trkpt><trkpt lat="36.91686691678877" lon="15.126750991029306"><ele>62.75</ele><time>2026-04-12T08:26:26Z</time></trkpt><trkpt lat="36.91692864157467" lon="15.126602063824075"><ele>64.0</ele><time>2026-04-12T08:26:27Z</time></trkpt><trkpt lat="36.916994308150414" lon="15.126458162962534"><ele>64.5</ele><time>2026-04-12T08:26:28Z</time></trkpt><trkpt lat="36.917058522375854" lon="15.126310192507038"><ele>65.0</ele><time>2026-04-12T08:26:29Z</time></trkpt><trkpt lat="36.91711451421" lon="15.126156812810502"><ele>65.5</ele><time>2026-04-12T08:26:30Z</time></trkpt><trkpt lat="36.91715868609257" lon="15.126006403661965"><ele>66.0</ele><time>2026-04-12T08:26:31Z</time></trkpt><trkpt lat="36.91719474580434" lon="15.125864564206593"><ele>66.6</ele><time>2026-04-12T08:26:32Z</time></trkpt><trkpt lat="36.917232483401364" lon="15.12572763033421"><ele>67.19999999999999</ele><time>2026-04-12T08:26:33Z</time></trkpt><trkpt lat="36.91726136579484" lon="15.125595142666452"><ele>67.80000000000001</ele><time>2026-04-12T08:26:34Z</time></trkpt><trkpt lat="36.917266216044716" lon="15.125458913734215"><ele>68.4</ele><time>2026-04-12T08:26:35Z</time></trkpt><trkpt lat="36.91724735353827" lon="15.125324812436363"><ele>69.0</ele><time>2026-04-12T08:26:36Z</time></trkpt><trkpt lat="36.91722785627069" lon="15.12520081702859"><ele>69.0</ele><time>2026-04-12T08:26:37Z</time></trkpt><trkpt lat="36.91722957524858" lon="15.125072076087907"><ele>69.0</ele><time>2026-04-12T08:26:38Z</time></trkpt><trkpt lat="36.9172551761094" lon="15.124932225428415"><ele>69.0</ele><time>2026-04-12T08:26:39Z</time></trkpt><trkpt lat="36.91730284203433" lon="15.124787740970985"><ele>69.0</ele><time>2026-04-12T08:26:40Z</time></trkpt><trkpt lat="36.91736161453609" lon="15.12463589774201"><ele>69.5</ele><time>2026-04-12T08:26:41Z</time></trkpt><trkpt lat="36.91742131668341" lon="15.12450090506418"><ele>70.0</ele><time>2026-04-12T08:26:42Z</time></trkpt><trkpt lat="36.9174705682928" lon="15.124372158768507"><ele>70.5</ele><time>2026-04-12T08:26:43Z</time></trkpt><trkpt lat="36.91754348520356" lon="15.12421488741037"><ele>71.0</ele><time>2026-04-12T08:26:44Z</time></trkpt><trkpt lat="36.917606568040824" lon="15.124066272035403"><ele>72.75</ele><time>2026-04-12T08:26:45Z</time></trkpt><trkpt lat="36.91766530445615" lon="15.12392678707236"><ele>74.5</ele><time>2026-04-12T08:26:46Z</time></trkpt><trkpt lat="36.91772311312313" lon="15.12377351898477"><ele>76.25</ele><time>2026-04-12T08:26:47Z</time></trkpt><trkpt lat="36.91776511323092" lon="15.12360842969768"><ele>78.0</ele><time>2026-04-12T08:26:48Z</time></trkpt><trkpt lat="36.9178044198174" lon="15.123446567385605"><ele>78.0</ele><time>2026-04-12T08:26:49Z</time></trkpt><trkpt lat="36.91784685916976" lon="15.12328808722634"><ele>78.0</ele><time>2026-04-12T08:26:50Z</time></trkpt><trkpt lat="36.91788152258794" lon="15.123129966928854"><ele>78.0</ele><time>2026-04-12T08:26:51Z</time></trkpt><trkpt lat="36.917915514741686" lon="15.12297543106378"><ele>78.0</ele><time>2026-04-12T08:26:52Z</time></trkpt><trkpt lat="36.91795759882402" lon="15.122827274054293"><ele>79.0</ele><time>2026-04-12T08:26:53Z</time></trkpt><trkpt lat="36.91801861027658" lon="15.122690146912081"><ele>80.0</ele><time>2026-04-12T08:26:54Z</time></trkpt><trkpt lat="36.91810152909424" lon="15.122560932523896"><ele>81.0</ele><time>2026-04-12T08:26:55Z</time></trkpt><trkpt lat="36.918193088181425" lon="15.122432690760641"><ele>82.0</ele><time>2026-04-12T08:26:56Z</time></trkpt><trkpt lat="36.91829213806393" lon="15.122292410723064"><ele>83.0</ele><time>2026-04-12T08:26:57Z</time></trkpt><trkpt lat="36.91839139495757" lon="15.12213626399107"><ele>84.0</ele><time>2026-04-12T08:26:58Z</time></trkpt><trkpt lat="36.91848483374368" lon="15.12198795706114"><ele>85.0</ele><time>2026-04-12T08:26:59Z</time></trkpt><trkpt lat="36.91858605649295" lon="15.121835204483517"><ele>86.33333333333333</ele><time>2026-04-12T08:27:00Z</time></trkpt><trkpt lat="36.91868722925996" lon="15.121682661334848"><ele>87.66666666666667</ele><time>2026-04-12T08:27:01Z</time></trkpt><trkpt lat="36.918784975698934" lon="15.121529638038945"><ele>89.0</ele><time>2026-04-12T08:27:02Z</time></trkpt><trkpt lat="36.918878685859426" lon="15.121369337274714"><ele>89.66666666666667</ele><time>2026-04-12T08:27:03Z</time></trkpt><trkpt lat="36.91897341822624" lon="15.121208545222656"><ele>90.33333333333333</ele><time>2026-04-12T08:27:04Z</time></trkpt><trkpt lat="36.919071418576486" lon="15.12105209185405"><ele>91.0</ele><time>2026-04-12T08:27:05Z</time></trkpt><trkpt lat="36.91918847008019" lon="15.120916278724684"><ele>92.0</ele><time>2026-04-12T08:27:06Z</time></trkpt><trkpt lat="36.91930159586061" lon="15.12077192393484"><ele>93.0</ele><time>2026-04-12T08:27:07Z</time></trkpt><trkpt lat="36.91940654082857" lon="15.120609763713414"><ele>94.0</ele><time>2026-04-12T08:27:08Z</time></trkpt><trkpt lat="36.91952116246506" lon="15.120458367548059"><ele>95.66666666666666</ele><time>2026-04-12T08:27:09Z</time></trkpt><trkpt lat="36.91963174654475" lon="15.120306275175576"><ele>97.33333333333333</ele><time>2026-04-12T08:27:10Z</time></trkpt><trkpt lat="36.919734120980756" lon="15.120146167713141"><ele>99.0</ele><time>2026-04-12T08:27:11Z</time></trkpt><trkpt lat="36.919831132254465" lon="15.119980665504489"><ele>99.66666666666666</ele><time>2026-04-12T08:27:12Z</time></trkpt><trkpt lat="36.919914869310375" lon="15.119801887362447"><ele>100.33333333333333</ele><time>2026-04-12T08:27:13Z</time></trkpt><trkpt lat="36.919983883037034" lon="15.11960157869729"><ele>101.0</ele><time>2026-04-12T08:27:14Z</time></trkpt><trkpt lat="36.92006079963709" lon="15.119408994137412"><ele>102.0</ele><time>2026-04-12T08:27:15Z</time></trkpt><trkpt lat="36.920147468778374" lon="15.119224501823219"><ele>103.0</ele><time>2026-04-12T08:27:16Z</time></trkpt><trkpt lat="36.92025269717883" lon="15.119052640648"><ele>104.0</ele><time>2026-04-12T08:27:17Z</time></trkpt><trkpt lat="36.92035807537096" lon="15.118896503703757"><ele>105.0</ele><time>2026-04-12T08:27:18Z</time></trkpt><trkpt lat="36.92046341918166" lon="15.118753331743955"><ele>106.0</ele><time>2026-04-12T08:27:19Z</time></trkpt><trkpt lat="36.920556903386405" lon="15.118600292648468"><ele>107.0</ele><time>2026-04-12T08:27:20Z</time></trkpt><trkpt lat="36.920629894123856" lon="15.118412012776817"><ele>107.0</ele><time>2026-04-12T08:27:21Z</time></trkpt><trkpt lat="36.92068623475359" lon="15.11821345213595"><ele>107.0</ele><time>2026-04-12T08:27:22Z</time></trkpt><trkpt lat="36.920743271702015" lon="15.118019585859573"><ele>107.0</ele><time>2026-04-12T08:27:23Z</time></trkpt><trkpt lat="36.92079662317777" lon="15.11782572009232"><ele>107.0</ele><time>2026-04-12T08:27:24Z</time></trkpt><trkpt lat="36.92084123410116" lon="15.117628277825858"><ele>107.0</ele><time>2026-04-12T08:27:25Z</time></trkpt><trkpt lat="36.920886821033676" lon="15.117431268070076"><ele>107.0</ele><time>2026-04-12T08:27:26Z</time></trkpt><trkpt lat="36.920949826041266" lon="15.117247185942707"><ele>109.66666666666666</ele><time>2026-04-12T08:27:27Z</time></trkpt><trkpt lat="36.921036037587356" lon="15.117082709922364"><ele>112.33333333333334</ele><time>2026-04-12T08:27:28Z</time></trkpt><trkpt lat="36.921139165059344" lon="15.1169432473099"><ele>115.0</ele><time>2026-04-12T08:27:29Z</time></trkpt><trkpt lat="36.92126994435918" lon="15.116818430350586"><ele>115.0</ele><time>2026-04-12T08:27:30Z</time></trkpt><trkpt lat="36.921416505115786" lon="15.11670473255576"><ele>115.0</ele><time>2026-04-12T08:27:31Z</time></trkpt><trkpt lat="36.92156836599913" lon="15.116579957583685"><ele>115.0</ele><time>2026-04-12T08:27:32Z</time></trkpt><trkpt lat="36.921724745308964" lon="15.116454780719495"><ele>115.66666666666667</ele><time>2026-04-12T08:27:33Z</time></trkpt><trkpt lat="36.92188609352965" lon="15.116333748026856"><ele>116.33333333333334</ele><time>2026-04-12T08:27:34Z</time></trkpt><trkpt lat="36.922055912667" lon="15.116219450300752"><ele>117.0</ele><time>2026-04-12T08:27:35Z</time></trkpt><trkpt lat="36.922222970664706" lon="15.116118674686165"><ele>117.0</ele><time>2026-04-12T08:27:36Z</time></trkpt><trkpt lat="36.922379601213976" lon="15.116030800650698"><ele>117.0</ele><time>2026-04-12T08:27:37Z</time></trkpt><trkpt lat="36.922523118668146" lon="15.11595136887907"><ele>117.0</ele><time>2026-04-12T08:27:38Z</time></trkpt><trkpt lat="36.92265927524549" lon="15.115866545192942"><ele>119.0</ele><time>2026-04-12T08:27:39Z</time></trkpt><trkpt lat="36.922792326619444" lon="15.11576962455505"><ele>121.0</ele><time>2026-04-12T08:27:40Z</time></trkpt><trkpt lat="36.92293506530327" lon="15.115637336228195"><ele>123.0</ele><time>2026-04-12T08:27:41Z</time></trkpt><trkpt lat="36.92306473024385" lon="15.115536625440408"><ele>123.0</ele><time>2026-04-12T08:27:42Z</time></trkpt><trkpt lat="36.923201023740575" lon="15.115463654678468"><ele>123.0</ele><time>2026-04-12T08:27:43Z</time></trkpt><trkpt lat="36.923335670704326" lon="15.115374081215975"><ele>123.0</ele><time>2026-04-12T08:27:44Z</time></trkpt><trkpt lat="36.92347797208385" lon="15.11528666249103"><ele>124.66666666666666</ele><time>2026-04-12T08:27:45Z</time></trkpt><trkpt lat="36.92362207118771" lon="15.115176021131145"><ele>126.33333333333333</ele><time>2026-04-12T08:27:46Z</time></trkpt><trkpt lat="36.923785399509406" lon="15.115095020746868"><ele>128.0</ele><time>2026-04-12T08:27:47Z</time></trkpt><trkpt lat="36.923945681071466" lon="15.11499242727812"><ele>128.33333333333331</ele><time>2026-04-12T08:27:48Z</time></trkpt><trkpt lat="36.92410485591686" lon="15.11487598998279"><ele>128.66666666666666</ele><time>2026-04-12T08:27:49Z</time></trkpt><trkpt lat="36.92426532980121" lon="15.114763146821861"><ele>129.0</ele><time>2026-04-12T08:27:50Z</time></trkpt><trkpt lat="36.924427367830326" lon="15.114656331050625"><ele>130.0</ele><time>2026-04-12T08:27:51Z</time></trkpt><trkpt lat="36.924587535081685" lon="15.114552174165766"><ele>131.0</ele><time>2026-04-12T08:27:52Z</time></trkpt><trkpt lat="36.9247455867732" lon="15.114451335321908"><ele>132.0</ele><time>2026-04-12T08:27:53Z</time></trkpt><trkpt lat="36.92490145293265" lon="15.114348713549644"><ele>132.0</ele><time>2026-04-12T08:27:54Z</time></trkpt><trkpt lat="36.925061041930704" lon="15.11424559090772"><ele>132.0</ele><time>2026-04-12T08:27:55Z</time></trkpt><trkpt lat="36.925225594728246" lon="15.114156008778417"><ele>132.0</ele><time>2026-04-12T08:27:56Z</time></trkpt><trkpt lat="36.925395853028505" lon="15.114089440578713"><ele>135.33333333333334</ele><time>2026-04-12T08:27:57Z</time></trkpt><trkpt lat="36.92556141433477" lon="15.114049251840528"><ele>138.66666666666669</ele><time>2026-04-12T08:27:58Z</time></trkpt><trkpt lat="36.92570947826354" lon="15.114034844361498"><ele>142.0</ele><time>2026-04-12T08:27:59Z</time></trkpt><trkpt lat="36.92586245539817" lon="15.114055426637975"><ele>142.0</ele><time>2026-04-12T08:28:00Z</time></trkpt><trkpt lat="36.92601719611855" lon="15.114101541737698"><ele>142.0</ele><time>2026-04-12T08:28:01Z</time></trkpt><trkpt lat="36.926167719087296" lon="15.114172949467797"><ele>142.0</ele><time>2026-04-12T08:28:02Z</time></trkpt><trkpt lat="36.92629503932716" lon="15.114263022796951"><ele>142.0</ele><time>2026-04-12T08:28:03Z</time></trkpt><trkpt lat="36.92640666116849" lon="15.114333797847339"><ele>142.0</ele><time>2026-04-12T08:28:04Z</time></trkpt><trkpt lat="36.92649798619648" lon="15.114376504880674"><ele>142.0</ele><time>2026-04-12T08:28:05Z</time></trkpt><trkpt lat="36.92658598126952" lon="15.114403558871889"><ele>142.0</ele><time>2026-04-12T08:28:06Z</time></trkpt><trkpt lat="36.92667314810346" lon="15.114375923971295"><ele>142.0</ele><time>2026-04-12T08:28:07Z</time></trkpt><trkpt lat="36.92676174581916" lon="15.114310013780184"><ele>142.75</ele><time>2026-04-12T08:28:08Z</time></trkpt><trkpt lat="36.92683056859617" lon="15.114206221715508"><ele>143.5</ele><time>2026-04-12T08:28:09Z</time></trkpt><trkpt lat="36.92687711997615" lon="15.114067738841179"><ele>144.25</ele><time>2026-04-12T08:28:10Z</time></trkpt><trkpt lat="36.92689209369009" lon="15.113906140252892"><ele>145.0</ele><time>2026-04-12T08:28:11Z</time></trkpt><trkpt lat="36.92687272370417" lon="15.113745650215842"><ele>146.25</ele><time>2026-04-12T08:28:12Z</time></trkpt><trkpt lat="36.92681707256511" lon="15.113579768825973"><ele>147.5</ele><time>2026-04-12T08:28:13Z</time></trkpt><trkpt lat="36.92674355117698" lon="15.113430851498334"><ele>148.75</ele><time>2026-04-12T08:28:14Z</time></trkpt><trkpt lat="36.92664075741476" lon="15.11330850338859"><ele>150.0</ele><time>2026-04-12T08:28:15Z</time></trkpt><trkpt lat="36.92651937652333" lon="15.113186087575185"><ele>153.75</ele><time>2026-04-12T08:28:16Z</time></trkpt><trkpt lat="36.92640695201737" lon="15.113085210037319"><ele>157.5</ele><time>2026-04-12T08:28:17Z</time></trkpt><trkpt lat="36.926302734699505" lon="15.11300204749222"><ele>161.25</ele><time>2026-04-12T08:28:18Z</time></trkpt><trkpt lat="36.92623633399689" lon="15.112886815337758"><ele>165.0</ele><time>2026-04-12T08:28:19Z</time></trkpt><trkpt lat="36.92619539987923" lon="15.112759001802988"><ele>165.0</ele><time>2026-04-12T08:28:20Z</time></trkpt><trkpt lat="36.926196940847944" lon="15.112603269807275"><ele>165.0</ele><time>2026-04-12T08:28:21Z</time></trkpt><trkpt lat="36.926189117155" lon="15.112417604229053"><ele>165.0</ele><time>2026-04-12T08:28:22Z</time></trkpt><trkpt lat="36.92622706284631" lon="15.112257733399506"><ele>165.0</ele><time>2026-04-12T08:28:23Z</time></trkpt><trkpt lat="36.92629185941248" lon="15.112114321292461"><ele>165.5</ele><time>2026-04-12T08:28:24Z</time></trkpt><trkpt lat="36.92638976699872" lon="15.11199552606195"><ele>166.0</ele><time>2026-04-12T08:28:25Z</time></trkpt><trkpt lat="36.92651760298399" lon="15.111890676343776"><ele>166.5</ele><time>2026-04-12T08:28:26Z</time></trkpt><trkpt lat="36.926644416441945" lon="15.111810091515299"><ele>167.0</ele><time>2026-04-12T08:28:27Z</time></trkpt><trkpt lat="36.92677434201081" lon="15.111784270864025"><ele>167.0</ele><time>2026-04-12T08:28:28Z</time></trkpt><trkpt lat="36.92690291637143" lon="15.111807616948244"><ele>167.0</ele><time>2026-04-12T08:28:29Z</time></trkpt><trkpt lat="36.927026336864465" lon="15.111854544069297"><ele>167.0</ele><time>2026-04-12T08:28:30Z</time></trkpt><trkpt lat="36.92713421614039" lon="15.111870952632456"><ele>167.0</ele><time>2026-04-12T08:28:31Z</time></trkpt><trkpt lat="36.9272550158344" lon="15.111832891476176"><ele>167.0</ele><time>2026-04-12T08:28:32Z</time></trkpt><trkpt lat="36.92737195184833" lon="15.111746892044351"><ele>167.0</ele><time>2026-04-12T08:28:33Z</time></trkpt><trkpt lat="36.92746896957381" lon="15.111602398692733"><ele>167.0</ele><time>2026-04-12T08:28:34Z</time></trkpt><trkpt lat="36.927546173389885" lon="15.111406679219606"><ele>173.33333333333331</ele><time>2026-04-12T08:28:35Z</time></trkpt><trkpt lat="36.92763178095714" lon="15.1112198984951"><ele>179.66666666666666</ele><time>2026-04-12T08:28:36Z</time></trkpt><trkpt lat="36.92770314144666" lon="15.111026656677726"><ele>186.0</ele><time>2026-04-12T08:28:37Z</time></trkpt><trkpt lat="36.927757182886324" lon="15.11083445746587"><ele>182.33333333333334</ele><time>2026-04-12T08:28:38Z</time></trkpt><trkpt lat="36.92785303897327" lon="15.110660462126418"><ele>178.66666666666669</ele><time>2026-04-12T08:28:39Z</time></trkpt><trkpt lat="36.92797886923362" lon="15.110493709467473"><ele>175.0</ele><time>2026-04-12T08:28:40Z</time></trkpt><trkpt lat="36.92813692212906" lon="15.11033430681958"><ele>175.0</ele><time>2026-04-12T08:28:41Z</time></trkpt><trkpt lat="36.92830497629233" lon="15.110167453797319"><ele>175.0</ele><time>2026-04-12T08:28:42Z</time></trkpt><trkpt lat="36.92845569592528" lon="15.109984853258924"><ele>175.0</ele><time>2026-04-12T08:28:43Z</time></trkpt><trkpt lat="36.9286011978917" lon="15.109782076214179"><ele>181.5</ele><time>2026-04-12T08:28:44Z</time></trkpt><trkpt lat="36.9287521415642" lon="15.109568060264493"><ele>188.0</ele><time>2026-04-12T08:28:45Z</time></trkpt><trkpt lat="36.92891528629352" lon="15.109362874467774"><ele>188.0</ele><time>2026-04-12T08:28:46Z</time></trkpt><trkpt lat="36.9290814304254" lon="15.109160456688334"><ele>188.0</ele><time>2026-04-12T08:28:47Z</time></trkpt><trkpt lat="36.92923816710874" lon="15.10896182754154"><ele>193.0</ele><time>2026-04-12T08:28:48Z</time></trkpt><trkpt lat="36.92938901533444" lon="15.10876470440733"><ele>198.0</ele><time>2026-04-12T08:28:49Z</time></trkpt><trkpt lat="36.92953128082036" lon="15.108567938554687"><ele>203.0</ele><time>2026-04-12T08:28:50Z</time></trkpt><trkpt lat="36.929649798987455" lon="15.108357657634354"><ele>200.0</ele><time>2026-04-12T08:28:51Z</time></trkpt><trkpt lat="36.92974590487046" lon="15.108119428814316"><ele>197.0</ele><time>2026-04-12T08:28:52Z</time></trkpt><trkpt lat="36.929827016135675" lon="15.107861801086429"><ele>194.0</ele><time>2026-04-12T08:28:53Z</time></trkpt><trkpt lat="36.92991452760011" lon="15.107596548425489"><ele>192.0</ele><time>2026-04-12T08:28:54Z</time></trkpt><trkpt lat="36.93001376158365" lon="15.107338423340414"><ele>190.0</ele><time>2026-04-12T08:28:55Z</time></trkpt><trkpt lat="36.93011089292836" lon="15.107093459933347"><ele>188.0</ele><time>2026-04-12T08:28:56Z</time></trkpt><trkpt lat="36.93019784206805" lon="15.106863754483731"><ele>200.0</ele><time>2026-04-12T08:28:57Z</time></trkpt><trkpt lat="36.93027438350588" lon="15.10664947529935"><ele>212.0</ele><time>2026-04-12T08:28:58Z</time></trkpt><trkpt lat="36.93033740631231" lon="15.106451223295037"><ele>224.0</ele><time>2026-04-12T08:28:59Z</time></trkpt><trkpt lat="36.930380737672564" lon="15.106255536744364"><ele>225.75</ele><time>2026-04-12T08:29:00Z</time></trkpt><trkpt lat="36.93040028989091" lon="15.106078889457013"><ele>227.5</ele><time>2026-04-12T08:29:01Z</time></trkpt><trkpt lat="36.930393347964795" lon="15.105912394903573"><ele>229.25</ele><time>2026-04-12T08:29:02Z</time></trkpt><trkpt lat="36.930362657556884" lon="15.105757419542972"><ele>231.0</ele><time>2026-04-12T08:29:03Z</time></trkpt><trkpt lat="36.93026413887042" lon="15.105631344284978"><ele>231.75</ele><time>2026-04-12T08:29:04Z</time></trkpt><trkpt lat="36.93015878427514" lon="15.105507527731216"><ele>232.5</ele><time>2026-04-12T08:29:05Z</time></trkpt><trkpt lat="36.93005825414353" lon="15.105379229133083"><ele>233.25</ele><time>2026-04-12T08:29:06Z</time></trkpt><trkpt lat="36.929991648790434" lon="15.105225488092435"><ele>234.0</ele><time>2026-04-12T08:29:07Z</time></trkpt><trkpt lat="36.92996635203258" lon="15.105068276934103"><ele>234.0</ele><time>2026-04-12T08:29:08Z</time></trkpt><trkpt lat="36.929976574154395" lon="15.104928798423986"><ele>233.99999999999997</ele><time>2026-04-12T08:29:09Z</time></trkpt><trkpt lat="36.929949798716905" lon="15.104816643003385"><ele>233.99999999999997</ele><time>2026-04-12T08:29:10Z</time></trkpt><trkpt lat="36.93006334036201" lon="15.104838237262115"><ele>234.0</ele><time>2026-04-12T08:29:11Z</time></trkpt><trkpt lat="36.930135142700884" lon="15.104942843080892"><ele>234.0</ele><time>2026-04-12T08:29:13Z</time></trkpt><trkpt lat="36.930191564667275" lon="15.105078817399646"><ele>234.0</ele><time>2026-04-12T08:29:14Z</time></trkpt><trkpt lat="36.93026147942089" lon="15.105207806273992"><ele>234.0</ele><time>2026-04-12T08:29:15Z</time></trkpt><trkpt lat="36.93033686040849" lon="15.105368414244204"><ele>234.0</ele><time>2026-04-12T08:29:16Z</time></trkpt><trkpt lat="36.93044229367004" lon="15.105537413525665"><ele>234.0</ele><time>2026-04-12T08:29:17Z</time></trkpt><trkpt lat="36.93055177106268" lon="15.105681726979789"><ele>233.0</ele><time>2026-04-12T08:29:18Z</time></trkpt><trkpt lat="36.93062451111245" lon="15.105870947210917"><ele>232.0</ele><time>2026-04-12T08:29:19Z</time></trkpt><trkpt lat="36.93064176194225" lon="15.106076133754797"><ele>231.0</ele><time>2026-04-12T08:29:20Z</time></trkpt><trkpt lat="36.93066365157261" lon="15.106295848421817"><ele>231.0</ele><time>2026-04-12T08:29:21Z</time></trkpt><trkpt lat="36.930672199412335" lon="15.106531692597272"><ele>231.0</ele><time>2026-04-12T08:29:22Z</time></trkpt><trkpt lat="36.930684052149715" lon="15.106766708166475"><ele>231.0</ele><time>2026-04-12T08:29:23Z</time></trkpt><trkpt lat="36.9306838950747" lon="15.106995821880881"><ele>230.66666666666669</ele><time>2026-04-12T08:29:24Z</time></trkpt><trkpt lat="36.93066566837187" lon="15.107240276909359"><ele>230.33333333333334</ele><time>2026-04-12T08:29:25Z</time></trkpt><trkpt lat="36.9306240762215" lon="15.107492229945196"><ele>230.0</ele><time>2026-04-12T08:29:26Z</time></trkpt><trkpt lat="36.93058888561492" lon="15.107730117513505"><ele>230.0</ele><time>2026-04-12T08:29:27Z</time></trkpt><trkpt lat="36.93055292162331" lon="15.107947102450359"><ele>230.0</ele><time>2026-04-12T08:29:28Z</time></trkpt><trkpt lat="36.930509879573115" lon="15.108152259191073"><ele>230.0</ele><time>2026-04-12T08:29:29Z</time></trkpt><trkpt lat="36.93046018290625" lon="15.108349141210223"><ele>231.2</ele><time>2026-04-12T08:29:30Z</time></trkpt><trkpt lat="36.93039806869369" lon="15.10853458694543"><ele>232.4</ele><time>2026-04-12T08:29:31Z</time></trkpt><trkpt lat="36.93037768977118" lon="15.10868059661177"><ele>233.60000000000002</ele><time>2026-04-12T08:29:32Z</time></trkpt><trkpt lat="36.930369132317786" lon="15.108772786395452"><ele>234.8</ele><time>2026-04-12T08:29:33Z</time></trkpt><trkpt lat="36.93042845594095" lon="15.108844486658151"><ele>236.0</ele><time>2026-04-12T08:29:35Z</time></trkpt><trkpt lat="36.930543416737045" lon="15.108717218067252"><ele>236.0</ele><time>2026-04-12T08:29:37Z</time></trkpt><trkpt lat="36.93055574542223" lon="15.108545932981231"><ele>236.0</ele><time>2026-04-12T08:29:38Z</time></trkpt><trkpt lat="36.930596092491115" lon="15.108377258155533"><ele>236.0</ele><time>2026-04-12T08:29:39Z</time></trkpt><trkpt lat="36.93066172232953" lon="15.108198717030005"><ele>236.0</ele><time>2026-04-12T08:29:40Z</time></trkpt><trkpt lat="36.93073705362547" lon="15.107989607196474"><ele>234.0</ele><time>2026-04-12T08:29:41Z</time></trkpt><trkpt lat="36.93079931534999" lon="15.107782611438045"><ele>232.0</ele><time>2026-04-12T08:29:42Z</time></trkpt><trkpt lat="36.930862350454895" lon="15.107580986617045"><ele>230.0</ele><time>2026-04-12T08:29:43Z</time></trkpt><trkpt lat="36.930926647281375" lon="15.107387584910237"><ele>242.33333333333334</ele><time>2026-04-12T08:29:44Z</time></trkpt><trkpt lat="36.93099087669461" lon="15.107202143334979"><ele>254.66666666666669</ele><time>2026-04-12T08:29:45Z</time></trkpt><trkpt lat="36.931050670955074" lon="15.107014806540413"><ele>267.0</ele><time>2026-04-12T08:29:46Z</time></trkpt><trkpt lat="36.93108908375296" lon="15.106804688388353"><ele>268.0</ele><time>2026-04-12T08:29:47Z</time></trkpt><trkpt lat="36.93110145085146" lon="15.106562601486242"><ele>269.0</ele><time>2026-04-12T08:29:48Z</time></trkpt><trkpt lat="36.93110995020017" lon="15.106326979825486"><ele>270.0</ele><time>2026-04-12T08:29:49Z</time></trkpt><trkpt lat="36.93111845868974" lon="15.106088665272386"><ele>270.0</ele><time>2026-04-12T08:29:50Z</time></trkpt><trkpt lat="36.93111928268634" lon="15.105857219567442"><ele>270.0</ele><time>2026-04-12T08:29:51Z</time></trkpt><trkpt lat="36.93109622688189" lon="15.10563421917499"><ele>270.0</ele><time>2026-04-12T08:29:52Z</time></trkpt><trkpt lat="36.93107881618005" lon="15.10541643828055"><ele>270.0</ele><time>2026-04-12T08:29:53Z</time></trkpt><trkpt lat="36.93103360202705" lon="15.105221379521309"><ele>270.0</ele><time>2026-04-12T08:29:54Z</time></trkpt><trkpt lat="36.930989253936225" lon="15.105050678820675"><ele>270.0</ele><time>2026-04-12T08:29:55Z</time></trkpt><trkpt lat="36.93096229827253" lon="15.104928437395099"><ele>270.0</ele><time>2026-04-12T08:29:56Z</time></trkpt><trkpt lat="36.93098817066167" lon="15.104839555378257"><ele>270.0</ele><time>2026-04-12T08:29:57Z</time></trkpt><trkpt lat="36.931080535605574" lon="15.104816895290666"><ele>270.0</ele><time>2026-04-12T08:29:59Z</time></trkpt><trkpt lat="36.93112476894072" lon="15.104983504290777"><ele>270.0</ele><time>2026-04-12T08:30:01Z</time></trkpt><trkpt lat="36.931159154097905" lon="15.105124209348578"><ele>270.0</ele><time>2026-04-12T08:30:02Z</time></trkpt><trkpt lat="36.93118599740363" lon="15.105264269226915"><ele>270.0</ele><time>2026-04-12T08:30:03Z</time></trkpt><trkpt lat="36.931217692373274" lon="15.105399671294428"><ele>270.0</ele><time>2026-04-12T08:30:04Z</time></trkpt><trkpt lat="36.93125383497624" lon="15.105574853670085"><ele>270.0</ele><time>2026-04-12T08:30:05Z</time></trkpt><trkpt lat="36.93130518309134" lon="15.10578748033537"><ele>270.0</ele><time>2026-04-12T08:30:06Z</time></trkpt><trkpt lat="36.93134669529273" lon="15.106008742557417"><ele>270.0</ele><time>2026-04-12T08:30:07Z</time></trkpt><trkpt lat="36.931384309720436" lon="15.106237044786232"><ele>270.0</ele><time>2026-04-12T08:30:08Z</time></trkpt><trkpt lat="36.931414469875726" lon="15.106459103449652"><ele>270.0</ele><time>2026-04-12T08:30:09Z</time></trkpt><trkpt lat="36.93143431079723" lon="15.10667676766948"><ele>269.0</ele><time>2026-04-12T08:30:10Z</time></trkpt><trkpt lat="36.931444412563074" lon="15.10688737081331"><ele>268.0</ele><time>2026-04-12T08:30:11Z</time></trkpt><trkpt lat="36.931439200242444" lon="15.107088168832618"><ele>267.0</ele><time>2026-04-12T08:30:12Z</time></trkpt><trkpt lat="36.93142194835555" lon="15.107275778676582"><ele>265.8</ele><time>2026-04-12T08:30:13Z</time></trkpt><trkpt lat="36.93140717497516" lon="15.107441435231598"><ele>264.6</ele><time>2026-04-12T08:30:14Z</time></trkpt><trkpt lat="36.93139817938459" lon="15.10757371513317"><ele>263.40000000000003</ele><time>2026-04-12T08:30:15Z</time></trkpt><trkpt lat="36.9313993451482" lon="15.107663224384803"><ele>262.2</ele><time>2026-04-12T08:30:16Z</time></trkpt><trkpt lat="36.93142698551198" lon="15.107761862011888"><ele>261.0</ele><time>2026-04-12T08:30:18Z</time></trkpt><trkpt lat="36.931509203926176" lon="15.107840215722124"><ele>261.0</ele><time>2026-04-12T08:30:21Z</time></trkpt><trkpt lat="36.93161482245376" lon="15.107806313405293"><ele>261.0</ele><time>2026-04-12T08:30:23Z</time></trkpt><trkpt lat="36.93169196732524" lon="15.10774010695903"><ele>261.0</ele><time>2026-04-12T08:30:24Z</time></trkpt><trkpt lat="36.931781131267016" lon="15.107674852265268"><ele>261.0</ele><time>2026-04-12T08:30:25Z</time></trkpt><trkpt lat="36.9319014482417" lon="15.107604747717184"><ele>261.0</ele><time>2026-04-12T08:30:26Z</time></trkpt><trkpt lat="36.93203803078927" lon="15.10751424637038"><ele>258.6666666666667</ele><time>2026-04-12T08:30:27Z</time></trkpt><trkpt lat="36.932173816637594" lon="15.107433717573212"><ele>256.33333333333337</ele><time>2026-04-12T08:30:28Z</time></trkpt><trkpt lat="36.932312066655655" lon="15.107339532346126"><ele>254.0</ele><time>2026-04-12T08:30:29Z</time></trkpt><trkpt lat="36.93242001733896" lon="15.107205094234711"><ele>259.6666666666667</ele><time>2026-04-12T08:30:30Z</time></trkpt><trkpt lat="36.93249272065783" lon="15.107032179385653"><ele>265.3333333333333</ele><time>2026-04-12T08:30:31Z</time></trkpt><trkpt lat="36.9325303012287" lon="15.10684330274623"><ele>271.0</ele><time>2026-04-12T08:30:32Z</time></trkpt><trkpt lat="36.93252670815854" lon="15.106629438556881"><ele>275.0</ele><time>2026-04-12T08:30:33Z</time></trkpt><trkpt lat="36.93250122009168" lon="15.106406797411305"><ele>279.0</ele><time>2026-04-12T08:30:34Z</time></trkpt><trkpt lat="36.932489078863725" lon="15.10621412455905"><ele>283.0</ele><time>2026-04-12T08:30:35Z</time></trkpt><trkpt lat="36.93251273958574" lon="15.106041699502386"><ele>283.0</ele><time>2026-04-12T08:30:36Z</time></trkpt><trkpt lat="36.93257081220247" lon="15.105886515293054"><ele>283.0</ele><time>2026-04-12T08:30:37Z</time></trkpt><trkpt lat="36.93267677227122" lon="15.105763288457895"><ele>283.0</ele><time>2026-04-12T08:30:38Z</time></trkpt><trkpt lat="36.93279038795904" lon="15.105599708951821"><ele>283.0</ele><time>2026-04-12T08:30:39Z</time></trkpt><trkpt lat="36.93294137852849" lon="15.105442377421653"><ele>283.0</ele><time>2026-04-12T08:30:40Z</time></trkpt><trkpt lat="36.933082045574096" lon="15.105286776875232"><ele>283.0</ele><time>2026-04-12T08:30:41Z</time></trkpt><trkpt lat="36.933237856120385" lon="15.105140018718496"><ele>283.0</ele><time>2026-04-12T08:30:42Z</time></trkpt><trkpt lat="36.933372739428414" lon="15.10499391331654"><ele>283.0</ele><time>2026-04-12T08:30:43Z</time></trkpt><trkpt lat="36.93347860029714" lon="15.10485781174732"><ele>283.0</ele><time>2026-04-12T08:30:44Z</time></trkpt><trkpt lat="36.93358963071769" lon="15.104763547813649"><ele>285.2</ele><time>2026-04-12T08:30:45Z</time></trkpt><trkpt lat="36.9336995488802" lon="15.104724289207855"><ele>287.4</ele><time>2026-04-12T08:30:46Z</time></trkpt><trkpt lat="36.93380452458125" lon="15.10473127169994"><ele>289.59999999999997</ele><time>2026-04-12T08:30:47Z</time></trkpt><trkpt lat="36.933898373031305" lon="15.104779442681219"><ele>291.8</ele><time>2026-04-12T08:30:48Z</time></trkpt><trkpt lat="36.93396703224701" lon="15.10487639738433"><ele>294.0</ele><time>2026-04-12T08:30:49Z</time></trkpt><trkpt lat="36.934004737150744" lon="15.1049883727607"><ele>295.0</ele><time>2026-04-12T08:30:50Z</time></trkpt><trkpt lat="36.93397696651643" lon="15.105119524969439"><ele>296.0</ele><time>2026-04-12T08:30:51Z</time></trkpt><trkpt lat="36.93397142166703" lon="15.105283810874765"><ele>297.0</ele><time>2026-04-12T08:30:52Z</time></trkpt><trkpt lat="36.93394465128005" lon="15.105477472768731"><ele>298.0</ele><time>2026-04-12T08:30:53Z</time></trkpt><trkpt lat="36.93391203940613" lon="15.105682240253097"><ele>300.66666666666663</ele><time>2026-04-12T08:30:54Z</time></trkpt><trkpt lat="36.933871725703305" lon="15.105880670603824"><ele>303.3333333333333</ele><time>2026-04-12T08:30:55Z</time></trkpt><trkpt lat="36.93384030150674" lon="15.106069570883635"><ele>306.0</ele><time>2026-04-12T08:30:56Z</time></trkpt><trkpt lat="36.933834422837116" lon="15.106243425543598"><ele>306.0</ele><time>2026-04-12T08:30:57Z</time></trkpt><trkpt lat="36.933877043112936" lon="15.106410015569873"><ele>306.0</ele><time>2026-04-12T08:30:58Z</time></trkpt><trkpt lat="36.9339425427102" lon="15.10658840337482"><ele>306.0</ele><time>2026-04-12T08:30:59Z</time></trkpt><trkpt lat="36.93399744978614" lon="15.106784130715585"><ele>305.3333333333333</ele><time>2026-04-12T08:31:00Z</time></trkpt><trkpt lat="36.93402046913919" lon="15.106983730893393"><ele>304.66666666666663</ele><time>2026-04-12T08:31:01Z</time></trkpt><trkpt lat="36.93404102087084" lon="15.10717934909227"><ele>304.0</ele><time>2026-04-12T08:31:02Z</time></trkpt><trkpt lat="36.934048964095425" lon="15.107376554209258"><ele>300.0</ele><time>2026-04-12T08:31:03Z</time></trkpt><trkpt lat="36.93405524265844" lon="15.107588211913558"><ele>296.0</ele><time>2026-04-12T08:31:04Z</time></trkpt><trkpt lat="36.93405525458216" lon="15.107784950480246"><ele>292.0</ele><time>2026-04-12T08:31:05Z</time></trkpt><trkpt lat="36.93404493496325" lon="15.107950314372927"><ele>292.0</ele><time>2026-04-12T08:31:06Z</time></trkpt><trkpt lat="36.934044984353974" lon="15.10810333029953"><ele>292.0</ele><time>2026-04-12T08:31:07Z</time></trkpt><trkpt lat="36.93407079178844" lon="15.108214809753111"><ele>292.0</ele><time>2026-04-12T08:31:08Z</time></trkpt><trkpt lat="36.934164254541564" lon="15.108251437236126"><ele>292.0</ele><time>2026-04-12T08:31:10Z</time></trkpt><trkpt lat="36.93422961854805" lon="15.10817677715451"><ele>292.0</ele><time>2026-04-12T08:31:11Z</time></trkpt><trkpt lat="36.93429601583034" lon="15.108070008851739"><ele>291.75</ele><time>2026-04-12T08:31:12Z</time></trkpt><trkpt lat="36.93434581703465" lon="15.107930625576175"><ele>291.5</ele><time>2026-04-12T08:31:13Z</time></trkpt><trkpt lat="36.93437807735928" lon="15.107789221422404"><ele>291.25</ele><time>2026-04-12T08:31:14Z</time></trkpt><trkpt lat="36.93440363010938" lon="15.107656254132262"><ele>291.0</ele><time>2026-04-12T08:31:15Z</time></trkpt><trkpt lat="36.93438941412039" lon="15.10752752190811"><ele>294.25</ele><time>2026-04-12T08:31:16Z</time></trkpt><trkpt lat="36.934329967146006" lon="15.107407693745143"><ele>297.5</ele><time>2026-04-12T08:31:17Z</time></trkpt><trkpt lat="36.93425086380362" lon="15.107296041214168"><ele>300.75</ele><time>2026-04-12T08:31:18Z</time></trkpt><trkpt lat="36.934201243317666" lon="15.107171259993347"><ele>304.0</ele><time>2026-04-12T08:31:19Z</time></trkpt><trkpt lat="36.93418704583898" lon="15.10701299514073"><ele>304.0</ele><time>2026-04-12T08:31:20Z</time></trkpt><trkpt lat="36.934177023513236" lon="15.10682929301688"><ele>304.0</ele><time>2026-04-12T08:31:21Z</time></trkpt><trkpt lat="36.93415724806515" lon="15.106642286232807"><ele>304.0</ele><time>2026-04-12T08:31:22Z</time></trkpt><trkpt lat="36.934137343053436" lon="15.106481704402285"><ele>304.0</ele><time>2026-04-12T08:31:23Z</time></trkpt><trkpt lat="36.93412181320294" lon="15.106334386535854"><ele>304.4</ele><time>2026-04-12T08:31:24Z</time></trkpt><trkpt lat="36.93411109662324" lon="15.106192888420003"><ele>304.79999999999995</ele><time>2026-04-12T08:31:25Z</time></trkpt><trkpt lat="36.93412189947671" lon="15.10606768928507"><ele>305.20000000000005</ele><time>2026-04-12T08:31:26Z</time></trkpt><trkpt lat="36.93415219869895" lon="15.105949434036816"><ele>305.6</ele><time>2026-04-12T08:31:27Z</time></trkpt><trkpt lat="36.934181892832655" lon="15.105833064976844"><ele>306.0</ele><time>2026-04-12T08:31:28Z</time></trkpt><trkpt lat="36.934218566431596" lon="15.105724587320648"><ele>312.8</ele><time>2026-04-12T08:31:29Z</time></trkpt><trkpt lat="36.93425678432811" lon="15.105635604494845"><ele>319.6</ele><time>2026-04-12T08:31:30Z</time></trkpt><trkpt lat="36.93429391832891" lon="15.105542934813936"><ele>326.4</ele><time>2026-04-12T08:31:31Z</time></trkpt><trkpt lat="36.93434037217757" lon="15.105446000088373"><ele>333.2</ele><time>2026-04-12T08:31:32Z</time></trkpt><trkpt lat="36.93438465867634" lon="15.105334534296803"><ele>340.0</ele><time>2026-04-12T08:31:33Z</time></trkpt><trkpt lat="36.93443629290493" lon="15.105195887401807"><ele>340.0</ele><time>2026-04-12T08:31:34Z</time></trkpt><trkpt lat="36.93451264600381" lon="15.105053346546805"><ele>340.0</ele><time>2026-04-12T08:31:35Z</time></trkpt><trkpt lat="36.93460534854649" lon="15.104914300034219"><ele>340.0</ele><time>2026-04-12T08:31:36Z</time></trkpt><trkpt lat="36.93469677573621" lon="15.104790052145985"><ele>340.0</ele><time>2026-04-12T08:31:37Z</time></trkpt><trkpt lat="36.93478479855153" lon="15.104658457989917"><ele>335.0</ele><time>2026-04-12T08:31:38Z</time></trkpt><trkpt lat="36.93486870202677" lon="15.104529979540306"><ele>330.0</ele><time>2026-04-12T08:31:39Z</time></trkpt><trkpt lat="36.93494318713347" lon="15.104390259784845"><ele>325.0</ele><time>2026-04-12T08:31:40Z</time></trkpt><trkpt lat="36.93500217283335" lon="15.10423940367521"><ele>320.0</ele><time>2026-04-12T08:31:41Z</time></trkpt><trkpt lat="36.93506706781209" lon="15.10410505702447"><ele>321.5</ele><time>2026-04-12T08:31:42Z</time></trkpt><trkpt lat="36.935133826632246" lon="15.103972022195684"><ele>323.0</ele><time>2026-04-12T08:31:43Z</time></trkpt><trkpt lat="36.93520098085729" lon="15.103841913135986"><ele>324.5</ele><time>2026-04-12T08:31:44Z</time></trkpt><trkpt lat="36.935266957299994" lon="15.103710801047804"><ele>326.0</ele><time>2026-04-12T08:31:45Z</time></trkpt><trkpt lat="36.935332418983606" lon="15.103583663589752"><ele>326.0</ele><time>2026-04-12T08:31:46Z</time></trkpt><trkpt lat="36.93539623854184" lon="15.103485416349649"><ele>326.0</ele><time>2026-04-12T08:31:47Z</time></trkpt><trkpt lat="36.935456541010325" lon="15.103415226728458"><ele>326.0</ele><time>2026-04-12T08:31:48Z</time></trkpt><trkpt lat="36.935525918240444" lon="15.103336545316084"><ele>326.0</ele><time>2026-04-12T08:31:49Z</time></trkpt><trkpt lat="36.93560243560594" lon="15.103277886399205"><ele>326.0</ele><time>2026-04-12T08:31:50Z</time></trkpt><trkpt lat="36.935683900088236" lon="15.103239144979419"><ele>326.0</ele><time>2026-04-12T08:31:51Z</time></trkpt><trkpt lat="36.93576529948296" lon="15.103211637984753"><ele>326.0</ele><time>2026-04-12T08:31:52Z</time></trkpt><trkpt lat="36.93587592197301" lon="15.103213549998605"><ele>326.0</ele><time>2026-04-12T08:31:54Z</time></trkpt><trkpt lat="36.93590396647396" lon="15.103295977771648"><ele>326.0</ele><time>2026-04-12T08:31:56Z</time></trkpt><trkpt lat="36.93583781680433" lon="15.103352549594485"><ele>326.0</ele><time>2026-04-12T08:31:58Z</time></trkpt><trkpt lat="36.935764039892724" lon="15.103342243206788"><ele>326.0</ele><time>2026-04-12T08:31:59Z</time></trkpt><trkpt lat="36.93570180912437" lon="15.103363949884827"><ele>326.0</ele><time>2026-04-12T08:32:00Z</time></trkpt><trkpt lat="36.93563263222516" lon="15.103395475768501"><ele>326.0</ele><time>2026-04-12T08:32:01Z</time></trkpt><trkpt lat="36.93556591337116" lon="15.103454236861705"><ele>326.0</ele><time>2026-04-12T08:32:02Z</time></trkpt><trkpt lat="36.935511420233624" lon="15.103545189403725"><ele>326.0</ele><time>2026-04-12T08:32:03Z</time></trkpt><trkpt lat="36.93544132109889" lon="15.103662477221969"><ele>326.0</ele><time>2026-04-12T08:32:04Z</time></trkpt><trkpt lat="36.935378007511495" lon="15.103820181028528"><ele>326.0</ele><time>2026-04-12T08:32:05Z</time></trkpt><trkpt lat="36.935321049975734" lon="15.103991509760727"><ele>326.0</ele><time>2026-04-12T08:32:06Z</time></trkpt><trkpt lat="36.93522620466468" lon="15.104179933043762"><ele>326.0</ele><time>2026-04-12T08:32:07Z</time></trkpt><trkpt lat="36.93516812292794" lon="15.104369222254837"><ele>324.0</ele><time>2026-04-12T08:32:08Z</time></trkpt><trkpt lat="36.93509798026591" lon="15.104581273549549"><ele>322.0</ele><time>2026-04-12T08:32:09Z</time></trkpt><trkpt lat="36.93501130469706" lon="15.104798874676451"><ele>320.0</ele><time>2026-04-12T08:32:10Z</time></trkpt><trkpt lat="36.93492606812562" lon="15.10500105163974"><ele>326.6666666666667</ele><time>2026-04-12T08:32:11Z</time></trkpt><trkpt lat="36.934841902832964" lon="15.10517991908836"><ele>333.3333333333333</ele><time>2026-04-12T08:32:12Z</time></trkpt><trkpt lat="36.9347656867915" lon="15.105343338959674"><ele>340.0</ele><time>2026-04-12T08:32:13Z</time></trkpt><trkpt lat="36.93469827193581" lon="15.105494078457143"><ele>340.0</ele><time>2026-04-12T08:32:14Z</time></trkpt><trkpt lat="36.93464640845646" lon="15.105632309156185"><ele>340.0</ele><time>2026-04-12T08:32:15Z</time></trkpt><trkpt lat="36.934634553231156" lon="15.105766284952884"><ele>340.0</ele><time>2026-04-12T08:32:16Z</time></trkpt><trkpt lat="36.93465479392167" lon="15.105872902369653"><ele>340.0</ele><time>2026-04-12T08:32:17Z</time></trkpt><trkpt lat="36.93472858743928" lon="15.105953447114777"><ele>340.0</ele><time>2026-04-12T08:32:18Z</time></trkpt><trkpt lat="36.93484730628559" lon="15.10599947981408"><ele>341.3333333333333</ele><time>2026-04-12T08:32:19Z</time></trkpt><trkpt lat="36.934996698911924" lon="15.106004641208058"><ele>342.6666666666667</ele><time>2026-04-12T08:32:20Z</time></trkpt><trkpt lat="36.935157446535506" lon="15.105997742728848"><ele>344.0</ele><time>2026-04-12T08:32:21Z</time></trkpt><trkpt lat="36.93529777294257" lon="15.10599822136211"><ele>346.2</ele><time>2026-04-12T08:32:22Z</time></trkpt><trkpt lat="36.93541279931128" lon="15.106009178432613"><ele>348.4</ele><time>2026-04-12T08:32:23Z</time></trkpt><trkpt lat="36.935512829174485" lon="15.106024178426187"><ele>350.6</ele><time>2026-04-12T08:32:24Z</time></trkpt><trkpt lat="36.93561599699633" lon="15.106031164885945"><ele>352.8</ele><time>2026-04-12T08:32:25Z</time></trkpt><trkpt lat="36.93570277025684" lon="15.10601913388572"><ele>355.0</ele><time>2026-04-12T08:32:26Z</time></trkpt><trkpt lat="36.93576643881541" lon="15.10591402856334"><ele>355.0</ele><time>2026-04-12T08:32:28Z</time></trkpt><trkpt lat="36.935720769080476" lon="15.105818409106092"><ele>355.0</ele><time>2026-04-12T08:32:30Z</time></trkpt><trkpt lat="36.93565291759944" lon="15.10579604815549"><ele>355.0</ele><time>2026-04-12T08:32:31Z</time></trkpt><trkpt lat="36.935549760061775" lon="15.105782633048097"><ele>355.0</ele><time>2026-04-12T08:32:32Z</time></trkpt><trkpt lat="36.93541476112759" lon="15.105721739531862"><ele>355.0</ele><time>2026-04-12T08:32:33Z</time></trkpt><trkpt lat="36.93529915380832" lon="15.105635907420046"><ele>359.2</ele><time>2026-04-12T08:32:34Z</time></trkpt><trkpt lat="36.93518974988132" lon="15.105552832750803"><ele>363.4</ele><time>2026-04-12T08:32:35Z</time></trkpt><trkpt lat="36.935106937499434" lon="15.10547318285615"><ele>367.6</ele><time>2026-04-12T08:32:36Z</time></trkpt><trkpt lat="36.93510354396029" lon="15.105367689913207"><ele>371.8</ele><time>2026-04-12T08:32:37Z</time></trkpt><trkpt lat="36.93512926224263" lon="15.105287731370494"><ele>376.0</ele><time>2026-04-12T08:32:38Z</time></trkpt><trkpt lat="36.9352041331609" lon="15.10522980157514"><ele>376.0</ele><time>2026-04-12T08:32:39Z</time></trkpt><trkpt lat="36.93528113761806" lon="15.105098086130653"><ele>376.0</ele><time>2026-04-12T08:32:40Z</time></trkpt><trkpt lat="36.93535981571555" lon="15.104955990366049"><ele>376.0</ele><time>2026-04-12T08:32:41Z</time></trkpt><trkpt lat="36.93544910814835" lon="15.104781301083776"><ele>376.0</ele><time>2026-04-12T08:32:42Z</time></trkpt><trkpt lat="36.93555397555047" lon="15.104583247676329"><ele>371.3333333333333</ele><time>2026-04-12T08:32:43Z</time></trkpt><trkpt lat="36.935653817518144" lon="15.104394890334419"><ele>366.6666666666667</ele><time>2026-04-12T08:32:44Z</time></trkpt><trkpt lat="36.9357546494261" lon="15.104207011856829"><ele>362.0</ele><time>2026-04-12T08:32:45Z</time></trkpt><trkpt lat="36.93585273393871" lon="15.104051702274768"><ele>357.25</ele><time>2026-04-12T08:32:46Z</time></trkpt><trkpt lat="36.93594833082426" lon="15.103969585368977"><ele>352.5</ele><time>2026-04-12T08:32:47Z</time></trkpt><trkpt lat="36.93605601020401" lon="15.10392825513408"><ele>347.75</ele><time>2026-04-12T08:32:48Z</time></trkpt><trkpt lat="36.93618354194695" lon="15.103885152699224"><ele>343.0</ele><time>2026-04-12T08:32:49Z</time></trkpt><trkpt lat="36.93631730241622" lon="15.10388560203226"><ele>343.0</ele><time>2026-04-12T08:32:50Z</time></trkpt><trkpt lat="36.93647009895814" lon="15.103896738309457"><ele>343.0</ele><time>2026-04-12T08:32:51Z</time></trkpt><trkpt lat="36.936625039607954" lon="15.103919175572338"><ele>343.0</ele><time>2026-04-12T08:32:52Z</time></trkpt><trkpt lat="36.93676873585219" lon="15.103981726945193"><ele>348.66666666666663</ele><time>2026-04-12T08:32:53Z</time></trkpt><trkpt lat="36.93690125438052" lon="15.10406839873081"><ele>354.3333333333333</ele><time>2026-04-12T08:32:54Z</time></trkpt><trkpt lat="36.937038096672495" lon="15.104163659505604"><ele>360.0</ele><time>2026-04-12T08:32:55Z</time></trkpt><trkpt lat="36.93718939368894" lon="15.104249916781146"><ele>363.3333333333333</ele><time>2026-04-12T08:32:56Z</time></trkpt><trkpt lat="36.93733212427529" lon="15.104350225804016"><ele>366.66666666666663</ele><time>2026-04-12T08:32:57Z</time></trkpt><trkpt lat="36.937476269599586" lon="15.104442623840677"><ele>370.0</ele><time>2026-04-12T08:32:58Z</time></trkpt><trkpt lat="36.937623654795075" lon="15.104518647584362"><ele>372.66666666666663</ele><time>2026-04-12T08:32:59Z</time></trkpt><trkpt lat="36.93777293056861" lon="15.104587374629121"><ele>375.3333333333333</ele><time>2026-04-12T08:33:00Z</time></trkpt><trkpt lat="36.93791688240257" lon="15.104660542863352"><ele>378.0</ele><time>2026-04-12T08:33:01Z</time></trkpt><trkpt lat="36.9380568436437" lon="15.10472960934547"><ele>378.0</ele><time>2026-04-12T08:33:02Z</time></trkpt><trkpt lat="36.93820152877746" lon="15.104771442243639"><ele>378.0</ele><time>2026-04-12T08:33:03Z</time></trkpt><trkpt lat="36.938354766352965" lon="15.104788438390527"><ele>378.0</ele><time>2026-04-12T08:33:04Z</time></trkpt><trkpt lat="36.93851084690488" lon="15.104791233056213"><ele>380.0</ele><time>2026-04-12T08:33:05Z</time></trkpt><trkpt lat="36.93866133669442" lon="15.104783959174792"><ele>382.0</ele><time>2026-04-12T08:33:06Z</time></trkpt><trkpt lat="36.93880469419326" lon="15.104766843798767"><ele>384.0</ele><time>2026-04-12T08:33:07Z</time></trkpt><trkpt lat="36.93894156863969" lon="15.104714532911876"><ele>386.0</ele><time>2026-04-12T08:33:08Z</time></trkpt><trkpt lat="36.939080198838056" lon="15.104629090386117"><ele>386.0</ele><time>2026-04-12T08:33:09Z</time></trkpt><trkpt lat="36.93921249198888" lon="15.104522844725023"><ele>386.0</ele><time>2026-04-12T08:33:10Z</time></trkpt><trkpt lat="36.93935494819892" lon="15.10444373488591"><ele>386.0</ele><time>2026-04-12T08:33:11Z</time></trkpt><trkpt lat="36.939493463757074" lon="15.104348629730648"><ele>391.0</ele><time>2026-04-12T08:33:12Z</time></trkpt><trkpt lat="36.939622096877464" lon="15.10424236626922"><ele>396.0</ele><time>2026-04-12T08:33:13Z</time></trkpt><trkpt lat="36.93976709023044" lon="15.104191832949207"><ele>401.0</ele><time>2026-04-12T08:33:14Z</time></trkpt><trkpt lat="36.93990177702243" lon="15.104145409645746"><ele>406.0</ele><time>2026-04-12T08:33:15Z</time></trkpt><trkpt lat="36.94003289252503" lon="15.104112964723903"><ele>408.6</ele><time>2026-04-12T08:33:16Z</time></trkpt><trkpt lat="36.94013966947099" lon="15.104073266919722"><ele>411.20000000000005</ele><time>2026-04-12T08:33:17Z</time></trkpt><trkpt lat="36.94023658551857" lon="15.104041598837837"><ele>413.79999999999995</ele><time>2026-04-12T08:33:19Z</time></trkpt><trkpt lat="36.94025549105067" lon="15.103964983175404"><ele>416.4</ele><time>2026-04-12T08:33:20Z</time></trkpt><trkpt lat="36.940290625107714" lon="15.103824614572147"><ele>419.0</ele><time>2026-04-12T08:33:22Z</time></trkpt><trkpt lat="36.94022187958702" lon="15.10373754091353"><ele>419.0</ele><time>2026-04-12T08:33:23Z</time></trkpt><trkpt lat="36.940143103841294" lon="15.10367920854776"><ele>419.0</ele><time>2026-04-12T08:33:24Z</time></trkpt><trkpt lat="36.940048247711175" lon="15.103624542361494"><ele>419.0</ele><time>2026-04-12T08:33:25Z</time></trkpt><trkpt lat="36.93995031586546" lon="15.103552803221804"><ele>419.0</ele><time>2026-04-12T08:33:26Z</time></trkpt><trkpt lat="36.939854893082824" lon="15.103465679927938"><ele>419.0</ele><time>2026-04-12T08:33:27Z</time></trkpt><trkpt lat="36.939755249474125" lon="15.103365975028979"><ele>418.0</ele><time>2026-04-12T08:33:28Z</time></trkpt><trkpt lat="36.939662128349966" lon="15.10329528095249"><ele>417.0</ele><time>2026-04-12T08:33:29Z</time></trkpt><trkpt lat="36.93955865699171" lon="15.1032869789614"><ele>416.0</ele><time>2026-04-12T08:33:30Z</time></trkpt><trkpt lat="36.939445818867206" lon="15.103350343958855"><ele>415.0</ele><time>2026-04-12T08:33:31Z</time></trkpt><trkpt lat="36.939328404387574" lon="15.103444894227376"><ele>415.2</ele><time>2026-04-12T08:33:32Z</time></trkpt><trkpt lat="36.939202573869544" lon="15.103507347330734"><ele>415.4</ele><time>2026-04-12T08:33:33Z</time></trkpt><trkpt lat="36.939104206473026" lon="15.103540494017848"><ele>415.6</ele><time>2026-04-12T08:33:34Z</time></trkpt><trkpt lat="36.93903769170295" lon="15.103501798535026"><ele>415.8</ele><time>2026-04-12T08:33:36Z</time></trkpt><trkpt lat="36.93911130867549" lon="15.103415605803733"><ele>416.0</ele><time>2026-04-12T08:33:38Z</time></trkpt><trkpt lat="36.93920946822667" lon="15.10337606511048"><ele>416.0</ele><time>2026-04-12T08:33:39Z</time></trkpt><trkpt lat="36.93931961705762" lon="15.103327790746967"><ele>415.0</ele><time>2026-04-12T08:33:40Z</time></trkpt></trkseg></trk></gpx>